[[{"header":{"parameterUnit":"m.s-1","parameterCategory":1,"la1":30.6,"la2":28.766,"lo1":-90.7593,"lo2":-88.6598,"dx":0.0162,"dy":0.0183,"nx":116,"ny":114,"refTime":"2022-11-29T06:00:00:Z","depth":0,"parameterNumber":2,"parameterNumberName":"U-component_of_WINDS"},"data":[0.0,0.0,0.0,0.0,0.0,0.0,0.0,0.0,0.0,0.0,0.0,0.0,0.0,0.0,0.0,0.0,0.0,0.0,0.0,0.0,0.0,0.0,0.0,0.0,0.0,0.0,0.0,0.0,0.0,0.0,0.0,0.0,0.0,0.0,0.0,0.0,0.0,0.0,0.0,0.0,0.0,0.0,0.0,0.0,0.0,0.0,0.0,0.0,0.0,0.0,0.0,0.0,0.0,0.0,0.0,0.0,0.0,0.0,0.0,0.0,0.0,0.0,0.0,0.0,0.0,0.0,0.0,0.0,0.0,0.0,0.0,0.0,0.0,0.0,0.0,0.0,0.0,0.0,0.0,0.0,0.0,0.0,0.0,0.0,0.0,0.0,0.0,0.0,0.0,0.0,0.0,0.0,0.0,0.0,0.0,0.0,0.0,0.0,0.0,0.0,0.0,0.0,0.0,0.0,0.0,0.0,0.0,0.0,0.0,0.0,0.0,0.0,0.0,0.0,0.0,0.0,0.0,0.0,0.0,0.0,0.0,0.0,0.0,0.0,0.0,0.0,0.0,0.0,0.0,0.0,0.0,0.0,0.0,0.0,0.0,0.0,0.0,0.0,0.0,0.0,0.0,0.0,0.0,0.0,0.0,0.0,0.0,0.0,0.0,0.0,0.0,0.0,0.0,0.0,0.0,0.0,0.0,0.0,0.0,0.0,0.0,0.0,0.0,0.0,0.0,0.0,0.0,0.0,0.0,0.0,0.0,0.0,0.0,0.0,0.0,0.0,0.0,0.0,0.0,0.0,0.0,0.0,0.0,0.0,0.0,0.0,0.0,0.0,0.0,0.0,0.0,0.0,0.0,0.0,0.0,0.0,0.0,0.0,0.0,0.0,0.0,0.0,0.0,0.0,0.0,0.0,0.0,0.0,0.0,0.0,0.0,0.0,0.0,0.0,0.0,0.0,0.0,0.0,0.0,0.0,0.0,0.0,0.0,0.0,0.0,0.0,0.0,0.0,0.0,0.0,0.0,0.0,0.0,0.0,0.0,0.0,0.0,0.0,0.0,0.0,0.0,0.0,0.0,0.0,0.0,0.0,0.0,0.0,0.0,0.0,0.0,0.0,0.0,0.0,0.0,0.0,0.0,0.0,0.0,0.0,0.0,0.0,0.0,0.0,0.0,0.0,0.0,0.0,0.0,0.0,0.0,0.0,0.0,0.0,0.0,0.0,0.0,0.0,0.0,0.0,0.0,0.0,0.0,0.0,0.0,0.0,0.0,0.0,0.0,0.0,0.0,0.0,0.0,0.0,0.0,0.0,0.0,0.0,0.0,0.0,0.0,0.0,0.0,0.0,0.0,0.0,0.0,0.0,0.0,0.0,0.0,0.0,0.0,0.0,0.0,0.0,0.0,0.0,0.0,0.0,0.0,0.0,0.0,0.0,0.0,0.0,0.0,0.0,0.0,0.0,0.0,0.0,0.0,0.0,0.0,0.0,0.0,0.0,0.0,0.0,0.0,0.0,0.0,0.0,0.0,0.0,0.0,0.0,0.0,0.0,0.0,0.0,0.0,0.0,0.0,0.0,0.0,0.0,0.0,0.0,0.0,0.0,0.0,0.0,0.0,0.0,0.0,0.0,0.0,0.0,0.0,0.0,0.0,0.0,0.0,0.0,0.0,0.0,0.0,0.0,0.0,0.0,0.0,0.0,0.0,0.0,0.0,0.0,0.0,0.0,0.0,0.0,0.0,0.0,0.0,0.0,0.0,0.0,0.0,0.0,0.0,0.0,0.0,0.0,0.0,0.0,0.0,0.0,0.0,0.0,0.0,0.0,0.0,0.0,0.0,0.0,0.0,0.0,0.0,0.0,0.0,0.0,0.0,0.0,0.0,0.0,0.0,0.0,0.0,0.0,0.0,0.0,0.0,0.0,0.0,0.0,0.0,0.0,0.0,0.0,0.0,0.0,0.0,0.0,0.0,0.0,0.0,0.0,0.0,0.0,0.0,0.0,0.0,0.0,0.0,0.0,0.0,0.0,0.0,0.0,0.0,0.0,0.0,0.0,0.0,0.0,0.0,0.0,0.0,0.0,0.0,0.0,0.0,0.0,0.0,0.0,0.0,0.0,0.0,0.0,0.0,0.0,0.0,0.0,0.0,0.0,0.0,0.0,0.0,0.0,0.0,0.0,0.0,0.0,0.0,0.0,0.0,0.0,0.0,0.0,0.0,0.0,0.0,0.0,0.0,0.0,0.0,0.0,0.0,0.0,0.0,0.0,0.0,0.0,0.0,0.0,0.0,0.0,0.0,0.0,0.0,0.0,0.0,0.0,0.0,0.0,0.0,0.0,0.0,0.0,0.0,0.0,0.0,0.0,0.0,0.0,0.0,0.0,0.0,0.0,0.0,0.0,0.0,0.0,0.0,0.0,0.0,0.0,0.0,0.0,0.0,0.0,0.0,0.0,0.0,0.0,0.0,0.0,0.0,0.0,0.0,0.0,0.0,0.0,0.0,0.0,0.0,0.0,0.0,0.0,0.0,0.0,0.0,0.0,0.0,0.0,0.0,0.0,0.0,0.0,0.0,0.0,0.0,0.0,0.0,0.0,0.0,0.0,0.0,0.0,0.0,0.0,0.0,0.0,0.0,0.0,0.0,0.0,0.0,0.0,0.0,0.0,0.0,0.0,0.0,0.0,0.0,0.0,0.0,0.0,0.0,0.0,0.0,0.0,0.0,0.0,0.0,0.0,0.0,0.0,0.0,0.0,0.0,0.0,0.0,0.0,0.0,0.0,0.0,0.0,0.0,0.0,0.0,0.0,0.0,0.0,0.0,0.0,0.0,0.0,0.0,0.0,0.0,0.0,0.0,0.0,0.0,0.0,0.0,0.0,0.0,0.0,0.0,0.0,0.0,0.0,0.0,0.0,0.0,0.0,0.0,0.0,0.0,0.0,0.0,0.0,0.0,0.0,0.0,0.0,0.0,0.0,0.0,0.0,0.0,0.0,0.0,0.0,0.0,0.0,0.0,0.0,0.0,0.0,0.0,0.0,0.0,0.0,0.0,0.0,0.0,0.0,0.0,0.0,0.0,0.0,0.0,0.0,0.0,0.0,0.0,0.0,0.0,0.0,0.0,0.0,0.0,0.0,0.0,0.0,0.0,0.0,0.0,0.0,0.0,0.0,0.0,0.0,0.0,0.0,0.0,0.0,0.0,0.0,0.0,0.0,0.0,0.0,0.0,0.0,0.0,0.0,0.0,0.0,0.0,0.0,0.0,0.0,0.0,0.0,0.0,0.0,0.0,0.0,0.0,0.0,0.0,0.0,0.0,0.0,0.0,0.0,0.0,0.0,0.0,0.0,0.0,0.0,0.0,0.0,0.0,0.0,0.0,0.0,0.0,0.0,0.0,0.0,0.0,0.0,0.0,0.0,0.0,0.0,0.0,0.0,0.0,0.0,0.0,0.0,0.0,0.0,0.0,0.0,0.0,0.0,0.0,0.0,0.0,0.0,0.0,0.0,0.0,0.0,0.0,0.0,0.0,0.0,0.0,0.0,0.0,0.0,0.0,0.0,0.0,0.0,0.0,0.0,0.0,0.0,0.0,0.0,0.0,0.0,0.0,0.0,0.0,0.0,0.0,0.0,0.0,0.0,0.0,0.0,0.0,0.0,0.0,0.0,0.0,0.0,0.0,0.0,0.0,0.0,0.0,0.0,0.0,0.0,0.0,0.0,0.0,0.0,0.0,0.0,0.0,0.0,0.0,0.0,0.0,0.0,0.0,0.0,0.0,0.0,0.0,0.0,0.0,0.0,0.0,0.0,0.0,0.0,0.0,0.0,0.0,0.0,0.0,0.0,0.0,0.0,0.0,0.0,0.0,0.0,0.0,0.0,0.0,0.0,0.0,0.0,0.0,0.0,0.0,0.0,0.0,0.0,0.0,0.0,0.0,0.0,0.0,0.0,0.0,0.0,0.0,0.0,0.0,0.0,0.0,0.0,0.0,0.0,0.0,0.0,0.0,0.0,0.0,0.0,0.0,0.0,0.0,0.0,0.0,0.0,0.0,0.0,0.0,0.0,0.0,0.0,0.0,0.0,0.0,0.0,0.0,0.0,0.0,0.0,0.0,0.0,0.0,0.0,0.0,0.0,0.0,0.0,0.0,0.0,0.0,0.0,0.0,0.0,0.0,0.0,0.0,0.0,0.0,0.0,0.0,0.0,0.0,0.0,0.0,0.0,0.0,0.0,0.0,0.0,0.0,0.0,0.0,0.0,0.0,0.0,0.0,0.0,0.0,0.0,0.0,0.0,0.0,0.0,0.0,0.0,0.0,0.0,0.0,0.0,0.0,0.0,0.0,0.0,0.0,0.0,0.0,0.0,0.0,0.0,0.0,0.0,0.0,0.0,0.0,0.0,0.0,0.0,0.0,0.0,0.0,0.0,0.0,0.0,0.0,0.0,0.0,0.0,0.0,0.0,0.0,0.0,0.0,0.0,0.0,0.0,0.0,0.0,0.0,0.0,0.0,0.0,0.0,0.0,0.0,0.0,0.0,0.0,0.0,0.0,0.0,0.0,0.0,0.0,0.0,0.0,0.0,0.0,0.0,0.0,0.0,0.0,0.0,0.0,0.0,0.0,0.0,0.0,0.0,0.0,0.0,0.0,0.0,0.0,0.0,0.0,0.0,0.0,0.0,0.0,0.0,0.0,0.0,0.0,0.0,0.0,0.0,0.0,0.0,0.0,0.0,0.0,0.0,0.0,0.0,0.0,0.0,0.0,0.0,0.0,0.0,0.0,0.0,0.0,0.0,0.0,0.0,0.0,0.0,0.0,0.0,0.0,0.0,0.0,0.0,0.0,0.0,0.0,0.0,0.0,0.0,0.0,0.0,0.0,0.0,0.0,0.0,0.0,0.0,0.0,0.0,0.0,0.0,0.0,0.0,0.0,0.0,0.0,0.0,0.0,0.0,0.0,0.0,0.0,0.0,0.0,0.0,0.0,0.0,0.0,0.0,0.0,0.0,0.0,0.0,0.0,0.0,0.0,0.0,0.0,0.0,0.0,0.0,0.0,0.0,0.0,0.0,0.0,0.0,0.0,0.0,0.0,0.0,0.0,0.0,0.0,0.0,0.0,0.0,0.0,0.0,0.0,0.0,0.0,0.0,0.0,0.0,0.0,0.0,0.0,0.0,0.0,0.0,0.0,0.0,0.0,0.0,0.0,0.0,0.0,0.0,0.0,0.0,0.0,0.0,0.0,0.0,0.0,0.0,0.0,0.0,0.0,0.0,0.0,0.0,0.0,0.0,0.0,0.0,0.0,0.0,0.0,0.0,0.0,0.0,0.0,0.0,0.0,0.0,0.0,0.0,0.0,0.0,0.0,0.0,0.0,0.0,0.0,0.0,0.0,0.0,0.0,0.0,0.0,0.0,0.0,0.0,0.0,0.0,0.0,0.0,0.0,0.0,0.0,0.0,0.0,0.0,0.0,0.0,0.0,0.0,0.0,0.0,0.0,0.0,0.0,0.0,0.0,0.0,0.0,0.0,0.0,0.0,0.0,0.0,0.0,0.0,0.0,0.0,0.0,0.0,0.0,0.0,0.0,0.0,0.0,0.0,0.0,0.0,0.0,0.0,0.0,0.0,0.0,0.0,0.0,0.0,0.0,0.0,0.0,0.0,0.0,0.0,0.0,0.0,0.0,0.0,0.0,0.0,0.0,0.0,0.0,0.0,0.0,0.0,0.0,0.0,0.0,0.0,0.0,0.0,0.0,0.0,0.0,0.0,0.0,0.0,0.0,0.0,0.0,0.0,0.0,0.0,0.0,0.0,0.0,0.0,0.0,0.0,0.0,0.0,0.0,0.0,0.0,0.0,0.0,0.0,0.0,0.0,0.0,0.0,0.0,0.0,0.0,0.0,0.0,0.0,0.0,0.0,0.0,0.0,0.0,0.0,0.0,0.0,0.0,0.0,0.0,0.0,0.0,0.0,0.0,0.0,0.0,0.0,0.0,0.0,0.0,0.0,0.0,0.0,0.0,0.0,0.0,0.0,0.0,0.0,0.0,0.0,0.0,0.0,0.0,0.0,0.0,0.0,0.0,0.0,0.0,0.0,0.0,0.0,0.0,-1.1982,-1.0198,0.0,0.0,0.0,0.0,0.0,0.0,0.0,0.0,0.0,0.0,0.0,0.0,0.0,0.0,0.0,0.0,0.0,0.0,0.0,0.0,0.0,0.0,0.0,-0.8014,-0.8031,-0.7966,-0.7635,0.0,0.0,0.0,0.0,0.0,0.0,0.0,0.0,0.0,-0.7759,-0.8858,-0.8858,-0.9235,-0.9941,-0.9168,-0.8621,-0.8295,0.0,0.0,0.0,0.0,0.0,0.0,0.0,0.0,0.0,0.0,0.0,0.0,0.0,0.0,0.0,0.0,0.0,0.0,0.0,0.0,0.0,0.0,0.0,0.0,0.0,0.0,0.0,0.0,0.0,0.0,0.0,0.0,0.0,0.0,0.0,0.0,0.0,0.0,0.0,0.0,0.0,0.0,0.0,0.0,0.0,0.0,0.0,0.0,0.0,0.0,0.0,0.0,0.0,0.0,0.0,0.0,0.0,0.0,0.0,0.0,0.0,0.0,0.0,0.0,0.0,0.0,0.0,0.0,0.0,0.0,-1.3629,-1.2067,0.0,0.0,0.0,0.0,0.0,0.0,0.0,0.0,0.0,0.0,0.0,0.0,0.0,0.0,0.0,0.0,0.0,0.0,0.0,0.0,0.0,-0.8491,-0.9194,-0.9293,-0.9237,-0.9104,-0.8543,-0.8154,-0.8033,-0.7435,0.0,0.0,0.0,0.0,-0.817,-0.8187,-0.8841,-1.0193,-1.0322,-1.0785,-1.1509,-1.162,-1.1367,-1.0761,-1.0379,0.0,0.0,0.0,0.0,0.0,0.0,0.0,0.0,0.0,0.0,0.0,0.0,0.0,0.0,0.0,0.0,0.0,0.0,0.0,0.0,0.0,0.0,0.0,0.0,0.0,0.0,0.0,0.0,0.0,0.0,0.0,0.0,0.0,0.0,0.0,0.0,0.0,0.0,0.0,0.0,0.0,0.0,0.0,0.0,0.0,0.0,0.0,0.0,0.0,0.0,0.0,0.0,0.0,0.0,0.0,0.0,0.0,0.0,0.0,0.0,0.0,0.0,0.0,-1.6388,-1.6574,-1.6888,-1.6888,-1.7061,-1.7279,-1.5445,-1.4501,-1.4155,-1.303,0.0,0.0,0.0,0.0,0.0,0.0,0.0,0.0,0.0,0.0,0.0,0.0,0.0,0.0,0.0,0.0,0.0,0.0,0.0,-0.9127,-0.9129,-0.9223,-0.9237,-0.9104,-0.9007,-0.895,-0.8929,-0.8729,0.0,0.0,0.0,0.0,-0.9697,-0.9714,-1.0125,-1.0961,-1.1654,-1.2365,-1.3108,-1.3752,-1.3996,-1.3827,-1.184,-1.0944,-1.0893,0.0,0.0,0.0,0.0,0.0,0.0,0.0,0.0,0.0,0.0,0.0,0.0,0.0,0.0,0.0,0.0,0.0,0.0,0.0,0.0,0.0,0.0,0.0,0.0,0.0,0.0,0.0,0.0,0.0,0.0,0.0,0.0,0.0,0.0,0.0,0.0,0.0,0.0,0.0,0.0,0.0,-0.9994,-1.0613,0.0,0.0,0.0,0.0,0.0,0.0,0.0,0.0,0.0,0.0,0.0,0.0,0.0,-1.6697,-1.719,-1.737,-1.7457,-1.7483,-1.7483,-1.7809,-1.8399,-1.8399,-1.8448,-1.8467,-1.818,0.0,-1.5975,-1.6023,0.0,0.0,0.0,0.0,0.0,0.0,0.0,0.0,0.0,0.0,0.0,0.0,0.0,0.0,0.0,0.0,0.0,0.0,0.0,0.0,0.0,-1.0293,-1.0486,-1.0354,-1.0342,-1.0307,-1.0228,-1.0176,0.0,0.0,0.0,-1.029,-1.0605,-1.1055,-1.185,-1.2999,-1.3785,-1.431,-1.464,-1.4969,-1.5122,-1.5061,-1.4073,-1.3168,-1.2338,-1.1603,0.0,0.0,0.0,0.0,0.0,0.0,0.0,0.0,0.0,0.0,0.0,0.0,0.0,0.0,0.0,0.0,0.0,0.0,0.0,0.0,0.0,0.0,0.0,0.0,0.0,0.0,0.0,0.0,0.0,0.0,0.0,0.0,0.0,0.0,0.0,0.0,0.0,0.0,0.0,-1.0782,-1.1356,-1.2362,-1.281,-1.3271,0.0,0.0,0.0,0.0,0.0,0.0,0.0,0.0,0.0,-1.7234,-1.7639,-1.7968,-1.8252,-1.8642,-1.8822,-1.8837,-1.9208,-1.9537,-1.9836,-2.0213,-2.0393,-2.0393,-2.0393,-1.9766,-1.869,-1.7434,-1.6816,-1.6645,0.0,0.0,0.0,0.0,-1.652,-1.6475,0.0,0.0,0.0,0.0,0.0,0.0,0.0,0.0,0.0,0.0,0.0,0.0,-1.0749,-1.1182,-1.1399,-1.1256,-1.1243,-1.1281,-1.1391,-1.1408,-1.1492,-1.1678,-1.1695,-1.178,-1.1975,-1.2923,-1.4056,-1.5349,-1.6086,-1.6542,-1.6728,-1.6728,-1.6728,-1.6728,-1.6728,-1.5697,-1.3912,-1.3084,-1.2296,-1.1507,0.0,0.0,0.0,0.0,0.0,0.0,0.0,0.0,0.0,0.0,0.0,0.0,0.0,0.0,0.0,0.0,0.0,0.0,0.0,0.0,0.0,0.0,0.0,0.0,0.0,0.0,0.0,0.0,0.0,0.0,0.0,0.0,0.0,0.0,0.0,0.0,0.0,-1.2343,-1.3002,-1.4169,-1.4887,-1.5351,0.0,0.0,0.0,0.0,0.0,0.0,-1.7378,-1.7861,-1.8159,-1.8207,-1.885,-1.9211,-1.9211,-1.9869,-2.0217,-2.0232,-2.0722,-2.0961,-2.0957,-2.147,-2.1695,-2.1695,-2.1695,-2.1425,-2.0789,-1.8832,-1.8086,-1.8173,-1.7873,-1.7956,-1.8173,-1.7888,-1.777,-1.7741,0.0,0.0,0.0,0.0,0.0,0.0,0.0,0.0,0.0,0.0,0.0,-1.0749,-1.1209,-1.1298,-1.1256,-1.1124,-1.111,-1.1424,-1.2195,-1.2246,-1.2558,-1.3261,-1.3278,-1.3608,-1.4318,-1.574,-1.6857,-1.7631,-1.8369,-1.9096,-1.9782,-1.9782,-1.9782,-1.9782,-1.9782,-1.8189,-1.5423,-1.436,-1.3519,-1.2814,-1.175,0.0,0.0,0.0,0.0,0.0,0.0,0.0,0.0,0.0,0.0,0.0,0.0,0.0,0.0,0.0,0.0,0.0,0.0,0.0,0.0,0.0,0.0,0.0,0.0,0.0,0.0,0.0,0.0,0.0,0.0,0.0,0.0,0.0,0.0,0.0,0.0,0.0,0.0,-1.5619,-1.6234,0.0,0.0,0.0,0.0,-1.8238,-1.8299,-1.8594,-1.9229,-1.9308,-1.9403,-1.9588,-2.0258,-2.0598,-2.0598,-2.1261,-2.159,-2.159,-2.1635,-2.165,-2.165,-2.168,-2.1695,-2.1695,-2.1695,-2.168,-2.159,-2.0818,-2.0165,-1.9603,-1.9585,-1.9585,-1.9603,-1.9585,-1.9567,-1.9477,0.0,0.0,0.0,-0.9496,-0.9563,-0.9641,-0.9694,-1.0135,-1.0493,-1.0593,-1.1386,-1.1974,-1.2003,-1.24,-1.2817,-1.3244,-1.3286,-1.3608,-1.4377,-1.4411,-1.453,-1.481,-1.5266,-1.6096,-1.7304,-1.7856,-1.8488,-1.9208,-1.949,-1.9744,-2.0002,-2.0002,-2.0002,-2.0002,-2.0002,-1.9423,-1.8346,-1.7014,-1.5899,-1.4932,-1.3602,-1.2861,0.0,0.0,0.0,0.0,0.0,0.0,0.0,0.0,0.0,0.0,0.0,0.0,0.0,0.0,0.0,0.0,0.0,0.0,0.0,0.0,0.0,0.0,0.0,0.0,0.0,0.0,0.0,0.0,0.0,0.0,0.0,0.0,0.0,0.0,0.0,0.0,0.0,-1.6952,-1.785,0.0,-1.8345,-1.8956,-1.9334,-1.9229,-1.9637,-1.9967,-2.0228,-2.0652,-2.091,-2.0981,-2.1216,-2.1335,-2.1335,-2.1575,-2.1924,-2.2358,-2.2748,-2.3146,-2.3573,-2.4007,-2.4208,-2.4208,-2.4208,-2.3947,-2.3543,-2.3304,-2.2317,-2.0996,-2.0996,-2.0996,-2.0996,-2.0996,-2.0996,-2.0946,0.0,0.0,0.0,-0.9504,-0.9563,-0.9641,-0.9694,-1.0324,-1.0824,-1.0891,-1.1892,-1.263,-1.2723,-1.3353,-1.3971,-1.447,-1.4723,-1.5281,-1.6289,-1.6339,-1.6559,-1.7056,-1.7557,-1.8268,-1.9249,-1.9536,-1.9908,-2.0403,-2.0657,-2.0792,-2.0792,-2.0792,-2.0792,-2.0792,-2.0792,-2.0792,-2.0707,-1.9469,-1.8188,-1.6863,-1.5517,-1.4762,-1.4283,0.0,0.0,0.0,0.0,0.0,0.0,0.0,0.0,0.0,0.0,0.0,0.0,0.0,0.0,0.0,0.0,0.0,0.0,0.0,0.0,0.0,0.0,0.0,0.0,0.0,0.0,0.0,0.0,0.0,0.0,0.0,0.0,0.0,0.0,-1.712,-1.7725,-1.7999,-1.9031,-1.9621,-1.9396,-2.0018,-2.0477,-2.0576,-2.0978,-2.125,-2.125,-2.1659,-2.1928,-2.2044,-2.2233,-2.2458,-2.2682,-2.2906,-2.3236,-2.367,-2.4073,-2.4522,-2.4948,-2.5397,-2.5615,-2.5615,-2.5615,-2.5337,-2.4933,-2.4933,-2.4171,-2.2951,-2.2278,-2.2044,-2.1994,-2.1784,-2.1695,-2.1695,0.0,0.0,-0.95,-0.95,-0.95,-0.9556,-0.9697,-1.0245,-1.0856,-1.1452,-1.2065,-1.2689,-1.3354,-1.4073,-1.452,-1.4571,-1.5223,-1.6255,-1.7732,-1.7834,-1.8493,-1.9968,-2.0035,-2.0052,-2.0069,-2.0839,-2.1224,-2.1224,-2.1955,-2.2296,-2.2296,-2.2296,-2.2296,-2.2296,-2.2296,-2.2296,-2.2245,-2.1546,-2.0219,-1.853,-1.7422,-1.6743,-1.6227,0.0,0.0,0.0,0.0,0.0,0.0,0.0,0.0,0.0,0.0,0.0,0.0,0.0,0.0,0.0,0.0,0.0,0.0,0.0,0.0,0.0,0.0,0.0,0.0,0.0,0.0,0.0,0.0,0.0,0.0,0.0,0.0,0.0,-1.7833,-1.8709,-1.9253,-1.8813,-1.9686,-2.043,-2.0715,-2.0737,-2.1182,-2.2224,-2.2324,-2.2355,-2.237,-2.2385,-2.2531,-2.2804,-2.3383,-2.3991,-2.4642,-2.5309,-2.5638,-2.563,-2.5644,-2.5644,-2.5674,-2.5683,-2.5674,-2.5674,-2.5674,-2.5674,-2.5674,-2.5674,-2.5674,-2.548,-2.3556,-2.2793,-2.2718,-2.2074,-2.1814,-2.1814,-0.9349,-0.9358,-0.9358,-0.9358,-0.9358,-0.9596,-1.0327,-1.0931,-1.1588,-1.2274,-1.2902,-1.3507,-1.4124,-1.4385,-1.4926,-1.5994,-1.6282,-1.7027,-1.8504,-1.8606,-1.9283,-2.0788,-2.0873,-2.1126,-2.1654,-2.1874,-2.2006,-2.2006,-2.2195,-2.2296,-2.2296,-2.2296,-2.2296,-2.2296,-2.2296,-2.2296,-2.2279,-2.209,-2.1711,-2.111,-1.9452,-1.8568,-1.811,0.0,0.0,0.0,0.0,0.0,0.0,0.0,0.0,0.0,0.0,0.0,0.0,0.0,0.0,0.0,0.0,0.0,0.0,0.0,0.0,0.0,0.0,0.0,0.0,0.0,0.0,0.0,0.0,0.0,0.0,0.0,-1.8358,-1.8642,-1.8446,-1.9123,-1.976,-2.0109,-2.0678,-2.1121,-2.1389,-2.169,-2.206,-2.2546,-2.3009,-2.3456,-2.3947,-2.443,-2.4938,-2.5441,-2.561,-2.5795,-2.5973,-2.6157,-2.6275,-2.6318,-2.6771,-2.7006,-2.7046,-2.7494,-2.747,-2.7061,-2.7061,-2.7061,-2.7061,-2.7061,-2.7061,-2.6911,-2.539,-2.4807,-2.4777,-2.4597,-2.4537,-2.4537,-0.9203,-0.9208,-0.9208,-0.9208,-0.9208,-0.9415,-1.0026,-1.0898,-1.1625,-1.2054,-1.2922,-1.3777,-1.4428,-1.4774,-1.5426,-1.6597,-1.7264,-1.8178,-1.948,-2.0159,-2.0837,-2.163,-2.1651,-2.1854,-2.2279,-2.2296,-2.2296,-2.2296,-2.2296,-2.2296,-2.2296,-2.2296,-2.2296,-2.2296,-2.2296,-2.2296,-2.2296,-2.2296,-2.2296,-2.2198,-2.1108,-2.0362,-1.9797,-1.863,-1.8097,-1.7762,-1.6088,-1.5272,-1.478,-1.3544,0.0,0.0,0.0,0.0,0.0,0.0,0.0,0.0,0.0,0.0,0.0,0.0,0.0,0.0,0.0,0.0,0.0,0.0,0.0,0.0,0.0,0.0,0.0,0.0,-1.9181,-1.954,-1.954,-2.002,-2.0555,-2.1055,-2.1728,-2.2237,-2.2469,-2.2975,-2.3434,-2.3871,-2.4472,-2.4872,-2.5016,-2.5629,-2.6153,-2.652,-2.6543,-2.6795,-2.7376,-2.7667,-2.7832,-2.7869,-2.8492,-2.8667,-2.8438,-2.8809,-2.8784,-2.8438,-2.8438,-2.8438,-2.8438,-2.8438,-2.8438,0.0,0.0,0.0,0.0,0.0,-2.5615,-2.5615,-0.9093,-0.9068,-0.9068,-0.9068,-0.9068,-0.9154,-0.9375,-1.0476,-1.1317,-1.1423,-1.2574,-1.3709,-1.4537,-1.5206,-1.5927,-1.6739,-1.811,-1.9381,-2.0517,-2.1883,-2.255,-2.231,-2.2296,-2.2296,-2.2296,-2.2296,-2.2296,-2.2296,-2.2296,-2.2296,-2.2296,-2.2381,-2.2415,-2.2415,-2.2415,-2.2415,-2.2429,-2.233,-2.2296,-2.2296,-2.2296,-2.1904,-2.1241,-2.0437,-1.9948,-1.9525,-1.8182,-1.749,-1.698,-1.5565,0.0,0.0,0.0,0.0,0.0,0.0,0.0,0.0,0.0,0.0,0.0,0.0,0.0,0.0,0.0,0.0,0.0,0.0,0.0,0.0,0.0,0.0,0.0,0.0,-2.0004,-2.0853,-2.1002,-2.1337,-2.1647,-2.1889,-2.2747,-2.3453,-2.3788,-2.435,-2.4993,-2.5674,-2.6214,-2.6344,-2.5952,-2.6512,0.0,0.0,0.0,-2.772,-2.8927,-2.9443,-2.9674,-2.9606,-3.0273,-3.0247,-2.9606,-2.9687,-2.966,-2.9606,-2.9606,-2.9606,-2.9606,-2.9606,-2.9606,-2.9427,-2.7645,-2.6956,-2.6881,-2.6273,-2.6048,-2.6048,-0.8946,-0.8941,-0.8941,-0.8941,-0.8941,-0.9206,-0.9982,-1.0695,-1.1404,-1.2169,-1.2931,-1.3912,-1.524,-1.5511,-1.6136,-1.7462,-1.8386,-1.9522,-2.096,-2.1895,-2.2346,-2.231,-2.2296,-2.2296,-2.2296,-2.2296,-2.2296,-2.2296,-2.2296,-2.2296,-2.2313,-2.2919,-2.319,-2.319,-2.319,-2.319,-2.3139,-2.255,-2.2296,-2.2296,-2.2296,-2.2212,-2.2006,-2.1245,-2.0931,-2.0743,-1.9833,-1.9277,-1.8769,-1.737,-1.6623,-1.6088,-1.4793,-1.4288,0.0,0.0,0.0,0.0,0.0,0.0,0.0,0.0,0.0,0.0,0.0,0.0,0.0,0.0,0.0,0.0,0.0,0.0,0.0,-2.0299,-2.0991,-2.1874,-2.2892,-2.311,-2.3176,-2.3242,-2.3426,-2.3988,-2.5106,-2.5322,-2.5689,-2.6348,-2.6498,-2.7003,-2.7964,-2.8652,-2.9475,-3.0513,-3.0553,-3.0695,-3.094,-3.0526,-3.0072,-2.9606,0.0,0.0,-2.9606,-3.0105,-3.0068,-2.9606,-2.9606,-2.9606,-2.9606,-2.9606,-2.9606,-2.9577,-2.9172,-2.9037,-2.9007,-2.8861,-2.8843,-2.8843,-0.8897,-0.8897,-0.8897,-0.8897,-0.8897,-0.9066,-0.952,-1.044,-1.1273,-1.1747,-1.2723,-1.3963,-1.5443,-1.5595,-1.6339,-1.82,-1.9519,-2.0674,-2.1681,-2.2218,-2.2436,-2.231,-2.2296,-2.2296,-2.2296,-2.2296,-2.2296,-2.2296,-2.2296,-2.2296,-2.2296,-2.2682,-2.2852,-2.2852,-2.2852,-2.2852,-2.2835,-2.2448,-2.2296,-2.2296,-2.2296,-2.2296,-2.2245,-2.1887,-2.1752,-2.1651,-2.0889,-2.0494,-2.019,-1.9081,-1.8585,-1.8157,-1.6549,-1.5968,-1.5729,0.0,0.0,0.0,0.0,0.0,0.0,0.0,0.0,0.0,0.0,0.0,0.0,0.0,0.0,-1.8912,-1.9567,0.0,-2.0808,-2.1156,-2.2024,-2.2877,-2.3505,-2.4178,-2.4709,-2.5033,-2.507,-2.5484,-2.6458,-2.7176,-2.7734,-2.807,-2.8684,-2.9228,-2.9582,-2.9894,-3.0194,-3.0551,-3.0551,-3.068,-3.1006,-3.1037,-3.0884,-3.0552,-3.1248,-3.1194,-3.0552,-3.0855,-3.0827,-3.0552,-3.0552,-3.0552,-3.0552,-3.0552,-3.0552,-3.0552,-3.0552,-3.0163,-2.9606,-2.9606,-2.9606,-2.9606,-0.8897,-0.8897,-0.8897,-0.8897,-0.8897,-0.8897,-0.8897,-1.0037,-1.0944,-1.1079,-1.2322,-1.3743,-1.5223,-1.5511,-1.6542,-1.891,-2.0441,-2.158,-2.2257,-2.25,-2.2541,-2.231,-2.2296,-2.2296,-2.2296,-2.2296,-2.2296,-2.2296,-2.2296,-2.2296,-2.2296,-2.2448,-2.2499,-2.2499,-2.2499,-2.2499,-2.2499,-2.2347,-2.2296,-2.2296,-2.2296,-2.2296,-2.2296,-2.2296,-2.2296,-2.2212,-2.1518,-2.1285,-2.1154,-2.0366,-2.0101,-1.9823,-1.831,-1.7671,-1.7293,-1.6228,-1.5741,0.0,0.0,0.0,0.0,0.0,0.0,0.0,0.0,-1.7712,-1.8418,-1.8816,-1.9001,-1.942,-2.0494,-2.0897,-2.1306,-2.1964,-2.3041,-2.3894,-2.4148,-2.5121,-2.6174,-2.715,-2.6979,-2.7057,-2.7829,-2.8924,-2.9623,-2.9788,-3.0609,-3.0961,-3.0608,-3.0665,-3.0534,-3.0184,-3.0184,-3.0413,-3.091,-3.135,-3.1558,-3.1511,-3.2092,-3.2064,-3.1511,-3.1511,-3.1511,-3.1511,-3.1511,-3.1511,-3.1511,-3.1511,-3.1511,-3.1511,-3.1511,-3.0853,-2.9968,-2.9968,-2.9968,-2.9968,-0.8897,-0.8897,-0.8897,-0.8897,-0.8897,-0.8897,-0.8897,-0.9591,-1.0362,-1.1011,-1.1874,-1.299,-1.4453,-1.5206,-1.6762,-1.9625,-2.0056,-2.078,-2.2212,-2.2321,-2.2335,-2.2296,-2.2296,-2.2296,-2.2296,-2.2296,-2.2296,-2.2296,-2.2296,-2.2296,-2.2313,-2.297,-2.3274,-2.3274,-2.3274,-2.3274,-2.3224,-2.2581,-2.2296,-2.2296,-2.2296,-2.2296,-2.2296,-2.2296,-2.2296,-2.222,-2.1724,-2.1558,-2.1442,-2.0699,-2.0435,-2.0362,-1.9874,-1.9685,-1.9559,-1.9052,-1.8694,-1.8415,-1.836,-1.8395,-1.8301,-1.765,-1.7805,-1.8161,0.0,-1.8572,-1.8828,-1.9453,-2.0064,-2.0524,-2.0673,-2.1665,-2.2688,-2.3281,-2.4007,-2.4889,-2.6093,-2.6378,-2.7381,-2.9773,-2.8473,-2.7914,-2.9244,-2.945,-2.9766,-3.0431,-3.006,-3.0021,-3.0496,-3.111,-3.1707,-3.2245,-3.2261,-3.2307,-3.2369,-3.1788,-3.1507,-3.1511,-3.1582,-3.1582,-3.1511,-3.1511,-3.1511,-3.1511,-3.1511,-3.1511,-3.1511,-3.1511,-3.1511,-3.1511,-3.1511,-3.1406,-3.1286,-3.1286,-3.1286,-3.1286,-0.8897,-0.8897,-0.8897,-0.8897,-0.8897,-0.8897,-0.8897,-0.9523,-1.0102,-1.0413,-1.1536,-1.2703,-1.376,-1.5663,-1.7377,-1.8611,-1.9495,-2.0471,-2.1583,-2.1651,-2.1854,-2.2279,-2.2296,-2.2296,-2.2296,-2.2296,-2.2296,-2.2296,-2.2296,-2.2296,-2.2296,-2.2632,-2.2767,-2.2767,-2.2767,-2.2767,-2.275,-2.2431,-2.2296,-2.2296,-2.2296,-2.2296,-2.2296,-2.2296,-2.2296,-2.2265,-2.2077,-2.2003,0.0,-2.1341,-2.133,-2.1373,-2.0327,-2.0012,-1.9872,-1.9279,-1.8821,-1.8575,-1.8921,-1.8888,-1.8755,-1.8848,-1.8957,-1.9103,-1.9264,-1.9585,-1.9944,-2.0228,-2.0827,-2.1395,-2.1784,-2.2613,-2.343,-2.4066,-2.5053,-2.5959,-2.6512,-2.6941,-2.7735,-2.9212,-2.8958,-2.9192,-3.0559,-3.0717,-3.0861,-3.1166,-3.1278,-3.1457,-3.1717,-3.1609,-3.1663,-3.1951,-3.1951,-3.1951,-3.1951,-3.1668,-3.1511,-3.1511,-3.1511,-3.1511,-3.1511,-3.1511,-3.1511,-3.1511,-3.1511,-3.1511,-3.1511,-3.1511,-3.1511,-3.1511,-3.1511,-3.1511,-3.1511,-3.1511,-3.1511,-3.1511,-0.8897,-0.8897,-0.8897,-0.8897,-0.8897,-0.8897,-0.8897,-0.936,-0.977,-0.9967,-1.0971,-1.2111,-1.3278,-1.5494,-1.7141,-1.7749,-1.878,-1.9811,-2.0788,-2.0869,-2.1211,-2.1972,-2.2006,-2.2076,-2.2296,-2.2296,-2.2296,-2.2296,-2.2296,-2.2296,-2.2296,-2.2296,-2.2296,-2.2296,-2.2296,-2.2296,-2.2296,-2.2296,-2.2296,-2.2296,-2.2296,-2.2296,-2.2296,-2.2296,-2.2296,-2.2282,-2.2149,-2.2106,-2.2046,-2.1703,-2.1823,-2.1903,-2.0781,-2.0438,-2.0279,-1.9509,-1.8968,-1.8725,-1.9197,-1.9163,-1.9091,-1.9588,-1.9708,-1.9753,-1.9929,-2.0363,-2.0748,-2.0946,-2.1515,-2.2134,-2.2613,-2.3325,-2.4103,-2.4769,-2.5854,-2.6647,-2.6866,-2.7465,-2.8201,-2.9044,-2.9515,-3.0314,-3.1677,-3.1649,-3.1641,-3.1869,-3.2133,-3.2299,-3.2299,-3.1796,-3.1511,-3.1511,-3.1511,-3.1511,-3.1511,-3.1511,-3.1511,-3.1511,-3.169,-3.178,-3.178,-3.1959,-3.2049,-3.2049,-3.2049,-3.2049,-3.2049,-3.2049,-3.2049,-3.2049,-3.2049,-3.2049,-3.2049,-3.2049,-3.1809,-3.1511,-0.8897,-0.8897,-0.8897,-0.8897,-0.8897,-0.8897,-0.8897,-0.8914,-0.9196,-0.9906,-1.0035,-1.092,-1.3159,-1.4124,-1.5467,-1.7614,-1.7834,-1.8476,-1.9934,-2.0035,-2.0386,-2.119,-2.1224,-2.158,-2.2279,-2.2296,-2.2296,-2.2296,-2.2296,-2.2296,-2.2296,-2.2296,-2.2296,-2.2296,-2.2296,-2.2296,-2.2296,-2.2296,-2.2296,-2.2296,-2.2296,-2.2296,-2.2296,-2.2296,-2.2296,-2.2237,-2.1794,-2.1612,-2.1628,-2.1597,-2.1613,-2.1612,-2.1565,-2.1549,-2.1381,-2.052,-1.9974,-1.9666,-1.9681,-1.9678,-1.9678,-1.9693,-1.9708,-1.9872,-2.0509,-2.0688,-2.0882,-2.1545,-2.2209,-2.2673,-2.2703,-2.3729,-2.4784,-2.5457,-2.6153,-2.6836,-2.748,-2.8154,-2.9074,-3.0376,-3.049,-3.1021,-3.2435,-3.1851,-3.1716,-3.2509,-3.1923,-3.1524,-3.1524,-3.1496,-3.1511,-3.1511,-3.1511,-3.1511,-3.1511,-3.1511,-3.1511,-3.1511,-3.2153,-3.2452,-3.2497,-3.314,-3.344,-3.344,-3.344,-3.344,-3.344,-3.344,-3.344,-3.344,-3.344,-3.344,-3.344,-3.344,-3.2632,-3.1511,-0.8897,-0.8897,-0.8897,-0.8897,-0.8897,-0.8897,-0.8897,-0.8897,-0.8999,-0.9241,-0.9686,0.0,0.0,0.0,0.0,0.0,-1.5781,-1.6982,-1.8442,-1.8544,-1.9101,-2.0352,-2.0919,-2.1309,-2.1563,-2.2057,-2.2296,-2.2296,-2.2296,-2.2296,-2.2296,-2.2296,-2.2296,-2.2296,-2.2296,-2.2296,-2.2296,-2.2296,-2.2296,-2.2296,-2.2296,-2.2106,-2.1834,-2.1639,-2.1684,-2.1803,0.0,-2.1642,-2.2017,-2.1703,-2.1809,-2.1974,-2.1368,-2.1384,-2.1528,-2.1083,-2.0549,-2.0142,-2.0336,-2.0034,-1.9813,-2.0258,-2.0363,-2.0543,-2.1216,-2.171,-2.2104,-2.2328,-2.3221,-2.3947,-2.3947,-2.5046,-2.6004,-2.6228,-2.6836,-2.7345,-2.757,-2.8173,-2.8937,-2.9834,-3.0268,-3.0846,-3.1777,-3.1626,-3.1596,-3.1851,-3.164,-3.1511,-3.1511,-3.1511,-3.1511,-3.1511,-3.1929,-3.2153,-3.2153,-3.2617,-3.2841,-3.2841,-3.3066,-3.3155,-3.317,-3.3395,-3.3499,-3.3499,-3.3499,-3.3499,-3.3499,-3.3499,-3.3499,-3.3499,-3.3499,-3.3499,-3.3499,-3.3499,-3.3215,-3.2841,-0.8897,-0.8852,-0.8835,-0.8835,-0.8835,0.0,0.0,0.0,0.0,0.0,0.0,0.0,0.0,0.0,0.0,0.0,0.0,-1.5731,-1.6921,-1.727,-1.7946,-1.9169,-1.9959,-2.0496,-2.0771,-2.1231,-2.162,-2.1904,-2.1904,-2.204,-2.2296,-2.2296,-2.2296,-2.2296,-2.2296,-2.2296,-2.2296,-2.2296,-2.2448,-2.2649,-2.2124,-2.1885,-2.1768,-2.1049,-2.0881,0.0,-2.083,-2.1092,-2.1511,-2.1776,-2.1943,-2.193,-2.1229,-2.1134,-2.1209,-2.0846,-2.0592,-2.049,-2.0663,-2.0393,-2.0213,-2.0902,-2.1066,-2.1231,-2.1889,-2.2388,-2.2763,-2.2987,-2.367,-2.4231,-2.4231,-2.5345,-2.6243,-2.6243,-2.7016,-2.76,-2.76,-2.8393,-2.9101,-2.9562,-3.0342,-3.1017,-3.1466,-3.1511,-3.1511,-3.1511,-3.1511,-3.1511,-3.1511,-3.1735,-3.1854,-3.1854,-3.2497,-3.2871,-3.2871,-3.3275,-3.3619,-3.3844,-3.3844,-3.3978,-3.4218,-3.4218,-3.4218,-3.4218,-3.4218,-3.4218,-3.4218,-3.4218,-3.4218,-3.4218,-3.4218,-3.4218,-3.4218,-3.4218,-3.4218,-3.4143,-0.8886,-0.8777,-0.8687,0.0,0.0,0.0,0.0,0.0,0.0,0.0,0.0,0.0,0.0,0.0,0.0,0.0,0.0,0.0,-1.5494,-1.6197,-1.6925,-1.7648,-1.8437,-1.9181,-1.9866,-1.9951,-2.0369,-2.114,-2.114,-2.1498,-2.2178,-2.2178,-2.2178,-2.2178,-2.2178,-2.2164,-2.2164,-2.2164,-2.2552,-2.3045,-2.1657,-2.1461,-2.1902,-2.0415,-1.9875,-1.9896,-1.9888,-1.9934,-2.0221,-2.1708,-2.1911,-2.1476,-2.1102,-2.0862,-2.0546,-1.9969,-2.0235,-2.0726,-2.0752,-2.0748,-2.0897,-2.1575,-2.1739,-2.1939,-2.2598,-2.2748,-2.2912,-2.3475,-2.3625,-2.3655,-2.3655,-2.4717,-2.5615,-2.5659,-2.6731,-2.7555,-2.76,-2.8753,-2.9606,-2.9606,-3.0703,-3.1511,-3.1511,-3.1511,-3.1511,-3.1555,-3.1555,-3.1555,-3.1555,-3.2183,-3.2557,-3.2557,-3.32,-3.3544,-3.3544,-3.3589,-3.3903,-3.4563,-3.4563,-3.4876,-3.5504,-3.5504,-3.5504,-3.5504,-3.5504,-3.5504,-3.5504,-3.5504,-3.5504,-3.5504,-3.5504,-3.5504,-3.5504,-3.5504,-3.5504,-3.5325,0.0,0.0,0.0,0.0,0.0,0.0,0.0,0.0,0.0,0.0,0.0,0.0,0.0,0.0,0.0,0.0,0.0,0.0,-1.4723,-1.496,-1.5392,-1.6136,-1.7388,-1.8172,-1.8358,-1.9427,-2.0086,-2.0302,-2.0302,-2.0403,-2.0589,-2.0589,-2.0589,-2.0589,-2.0589,-2.0441,-2.0206,-2.0206,-2.0182,-2.0086,-1.9712,-1.9186,-1.8599,-1.8148,-1.8156,-1.8438,-1.8377,-1.9068,-2.0098,-2.075,-2.0821,-2.0667,-2.0926,-2.0724,-2.0479,-2.0801,-2.1016,-2.1185,-2.1388,-2.1455,-2.1605,-2.2283,-2.2448,-2.2613,-2.3242,-2.337,-2.34,-2.3565,-2.4014,-2.435,-2.435,-2.5023,-2.5764,-2.6258,-2.6617,-2.7031,-2.7525,-2.8753,-2.9606,-2.9606,-3.0703,-3.1511,-3.1511,-3.1511,-3.1705,-3.2198,-3.2243,-3.2243,-3.2243,-3.2886,-3.3245,-3.3245,-3.3888,-3.4264,-3.4264,-3.4741,-3.5085,-3.525,-3.525,-3.5325,-3.5504,-3.5504,-3.5504,-3.5504,-3.5504,-3.5504,-3.5504,-3.5504,-3.5504,-3.5504,-3.5504,-3.5504,-3.5504,-3.5504,-3.5504,-3.5459,0.0,0.0,0.0,0.0,0.0,0.0,0.0,0.0,0.0,0.0,0.0,0.0,0.0,0.0,0.0,0.0,0.0,0.0,0.0,-1.4318,-1.4689,-1.5105,-1.6221,-1.683,-1.683,-1.7648,-1.8222,-1.8555,-1.8882,-1.9203,-1.9524,-1.9862,-2.0002,-2.0002,-2.0002,-1.9801,-1.9491,-1.9491,-1.9329,0.0,0.0,-1.7738,-1.7141,-1.6459,-1.6353,-1.6536,-1.6489,-1.7477,-1.8874,-1.9346,-1.9846,-2.0314,-2.0398,-2.0443,-2.049,-2.0569,-2.1011,-2.1516,-2.1669,-2.1904,-2.2298,-2.2921,-2.3092,-2.3176,-2.352,-2.3385,-2.3212,-2.3212,-2.3266,-2.3319,-2.3319,-2.4103,-2.4852,-2.5211,-2.6019,-2.6722,-2.7121,-2.8334,-2.9265,-2.9577,-3.0462,-3.1182,-3.1466,-3.1511,-3.178,-3.2437,-3.2512,-3.2647,-3.2931,-3.3559,-3.3918,-3.3918,-3.4577,-3.4921,-3.4921,-3.531,-3.5504,-3.5504,-3.5504,-3.5504,-3.5504,-3.5504,-3.5504,-3.5504,0.0,-3.5504,-3.5504,-3.5504,-3.5504,-3.5504,-3.5504,-3.5504,-3.5504,-3.5504,-3.5504,-3.5504,0.0,0.0,0.0,0.0,0.0,0.0,0.0,0.0,0.0,-1.0215,-1.0118,-1.0235,-1.0697,-1.1409,0.0,0.0,0.0,0.0,0.0,0.0,-1.4216,-1.4216,-1.4919,-1.5341,-1.5443,-1.5544,-1.591,-1.6553,-1.7185,-1.7845,-1.8471,-1.9118,-1.9423,-1.941,-1.9386,-1.9181,-1.8864,-1.8822,-1.8648,-1.8276,-1.6991,-1.6472,-1.6322,0.0,-1.4598,-1.4626,-1.4852,-1.5889,-1.7278,-1.796,-1.9102,-2.0158,-1.9803,-2.0094,-2.0434,-1.9872,-2.0587,-2.156,-2.156,-2.2074,-2.2703,-2.3206,-2.3355,-2.3355,-2.3355,-2.2936,-2.2568,-2.2568,-2.2104,-2.1695,-2.1695,-2.2592,-2.34,-2.3565,-2.5136,-2.6393,-2.6557,-2.7754,-2.8846,-2.9532,-3.0118,-3.0748,-3.1436,-3.1511,-3.1809,-3.2587,-3.2647,-3.2931,-3.3589,-3.4279,-3.4638,-3.4638,-3.519,-3.5504,-3.5504,-3.5504,-3.5504,-3.5504,-3.5504,-3.5504,-3.5504,-3.5504,-3.5504,-3.5504,-3.5504,-3.5504,-3.5504,-3.5504,-3.5504,-3.5504,-3.5504,-3.5504,-3.5504,-3.5504,-3.5504,-3.5504,0.0,0.0,0.0,0.0,0.0,0.0,0.0,0.0,0.0,0.0,-1.0712,-1.0367,0.0,0.0,0.0,0.0,0.0,0.0,0.0,0.0,0.0,-1.2686,-1.3388,-1.4065,-1.4673,-1.5291,-1.5663,-1.5791,-1.5917,-1.6052,-1.617,-1.6306,-1.6356,-1.6346,-1.613,-1.584,-1.5517,-1.53,-1.5012,-1.4699,-1.4432,-1.4004,-1.3516,-1.3496,0.0,0.0,-1.5131,-1.6,-1.6657,-1.7821,-1.8906,-1.98,-1.9711,-1.9783,-1.9839,-1.9738,-2.0258,-2.0868,-2.0868,-2.1365,-2.1889,-2.1994,-2.2024,-2.2024,-2.2024,-2.1949,-2.1859,-2.1859,-2.1769,-2.1695,-2.1695,-2.1874,-2.2368,-2.343,-2.4373,-2.5322,-2.6437,-2.7754,-2.8846,-2.9532,-3.0118,-3.0748,-3.1436,-3.1511,-3.2004,-3.323,-3.332,-3.3619,-3.4294,-3.4951,-3.5325,-3.5325,-3.5444,-3.5504,-3.5504,-3.5504,-3.5504,-3.5504,-3.5504,-3.5504,-3.5504,-3.5504,-3.5504,-3.5504,-3.5504,0.0,-3.5504,-3.5504,-3.5504,-3.5504,-3.5504,-3.5504,-3.5504,-3.5504,-3.5504,-3.5504,0.0,0.0,0.0,0.0,0.0,0.0,0.0,-1.1158,-1.132,-1.18,-1.1435,-1.1187,-1.1318,-1.1643,-1.1866,0.0,0.0,0.0,0.0,0.0,0.0,-1.1576,-1.1919,-1.2381,-1.2976,-1.3348,-1.3759,-1.4252,0.0,-1.4889,-1.5037,-1.5426,-1.5536,-1.5389,-1.5265,-1.4935,-1.4482,-1.4339,-1.3693,-1.2751,-1.2751,-1.2164,-1.1332,-1.1788,0.0,0.0,-1.4216,-1.5096,-1.5765,-1.7395,-1.8493,-1.9226,-1.9588,-1.9708,-1.9708,-1.9708,-2.0168,-2.0703,-2.0703,-2.1201,-2.1695,-2.1695,-2.1695,-2.1695,-2.1695,-2.1425,-2.1186,-2.1186,-2.0902,-2.0647,-2.0647,-2.0946,-2.15,-2.2458,-2.3445,-2.4567,-2.5899,-2.6931,-2.8053,-2.9457,-2.9849,-3.0417,-3.1406,-3.1809,-3.2422,-3.3425,-3.3814,-3.4307,-3.4981,-3.5325,-3.5504,-3.5504,-3.5504,-3.5504,-3.5504,-3.5504,-3.5504,-3.5504,-3.5504,-3.5504,-3.5504,-3.5504,-3.5504,-3.5504,-3.5504,-3.5504,-3.5504,-3.5504,-3.5504,-3.5504,-3.5504,-3.5504,-3.5504,-3.5504,-3.5504,-3.5504,0.0,0.0,0.0,0.0,0.0,0.0,0.0,-1.1944,-1.188,-1.2091,-1.1929,-1.1891,-1.2086,-1.2107,-1.2107,0.0,0.0,0.0,0.0,0.0,0.0,0.0,0.0,0.0,-1.1597,0.0,0.0,-1.2915,-1.35,0.0,0.0,0.0,0.0,0.0,-1.4611,-1.4213,-1.3626,-1.357,-1.2728,0.0,0.0,-1.0787,-0.9965,0.0,0.0,0.0,0.0,-1.4139,-1.4872,-1.6832,-1.7938,-1.8612,-1.9271,-1.9588,-1.9708,-1.9708,-2.0064,-2.0498,-2.0498,-2.0872,-2.1261,-2.1261,-2.1261,-2.1261,-2.1261,-2.0857,-2.0498,-2.0498,-2.0064,-1.9708,-1.9708,-2.0124,-2.0722,-2.138,-2.2562,-2.3864,-2.5187,-2.6093,-2.736,-2.9367,-2.9606,-3.0103,-3.1376,-3.2108,-3.2781,-3.344,-3.4247,-3.4936,-3.5474,-3.5504,-3.5504,-3.5504,-3.5504,-3.5504,-3.5504,-3.5504,-3.5504,-3.5504,-3.5504,-3.5504,-3.5504,-3.5504,-3.5504,-3.5504,-3.5504,-3.5504,-3.5504,-3.5504,-3.5504,-3.5504,-3.5504,-3.5504,-3.5504,-3.5504,-3.5504,-3.5504,0.0,0.0,0.0,0.0,0.0,0.0,0.0,-1.1826,-1.1816,-1.1822,-1.1826,-1.1816,-1.1822,-1.1848,-1.1848,0.0,0.0,0.0,0.0,0.0,0.0,0.0,0.0,0.0,0.0,0.0,0.0,-1.2639,-1.2703,0.0,0.0,0.0,0.0,0.0,0.0,-1.211,-1.1464,-1.1232,0.0,0.0,0.0,0.0,0.0,0.0,0.0,0.0,0.0,-1.3842,-1.4186,-1.6144,-1.7234,-1.7908,-1.8583,-1.9211,-1.9708,-1.9708,-1.9753,-1.9798,-1.9798,-1.9842,-1.9887,-1.9887,-1.9887,-1.9887,-1.9887,-1.9842,-1.9798,-1.9798,-1.9753,-1.9708,-1.9708,-1.9753,-2.0004,-2.0673,-2.1904,-2.3242,-2.4515,-2.5794,-2.736,-2.9367,-2.9606,-3.0103,-3.1376,-3.2108,-3.2781,-3.344,-3.4681,-3.5429,-3.5504,-3.5504,-3.5504,-3.5504,-3.5504,-3.5504,-3.5504,-3.5504,-3.5504,-3.5504,-3.5504,-3.5504,-3.5504,-3.5504,-3.5504,-3.5504,-3.5504,-3.5504,0.0,-3.5504,-3.5504,-3.5504,-3.5504,-3.5504,-3.5504,-3.5504,-3.5504,-3.5504,0.0,0.0,0.0,0.0,0.0,0.0,-1.17,-1.1805,-1.1805,-1.1805,-1.1805,-1.1805,-1.1805,-1.1805,-1.1805,-1.1805,0.0,0.0,0.0,0.0,0.0,0.0,0.0,0.0,0.0,0.0,-1.1523,-1.2362,-1.2362,0.0,0.0,0.0,0.0,0.0,0.0,-1.1749,-1.0959,-1.0857,0.0,0.0,0.0,0.0,0.0,0.0,0.0,0.0,0.0,0.0,-1.4036,-1.5635,-1.6846,-1.7818,-1.8493,-1.9151,-1.9708,-1.9708,-1.9708,-1.9708,-1.9708,-1.9708,-1.9708,-1.9708,-1.9708,-1.9708,-1.9708,-1.9393,-1.9091,-1.9091,-1.8777,-1.8627,-1.9016,-1.9091,-1.945,-2.0524,-2.1485,-2.2682,-2.4365,-2.5397,-2.6886,-2.9322,-2.9606,-3.0103,-3.1376,-3.2452,-3.3544,-3.4622,-3.5205,-3.5504,-3.5504,-3.5504,-3.5504,-3.5504,-3.5504,-3.5504,-3.5504,-3.5504,-3.5504,-3.5504,-3.5504,-3.5504,-3.5504,-3.5504,-3.5504,-3.5504,-3.5504,-3.5504,0.0,-3.5504,-3.5504,-3.5504,-3.5504,-3.5504,-3.5504,-3.5504,-3.5504,-3.5504,0.0,0.0,0.0,0.0,0.0,-1.1256,-1.173,-1.1805,-1.1805,-1.1805,-1.1805,-1.1805,-1.1805,-1.1805,-1.1805,-1.1805,-1.0875,0.0,0.0,0.0,0.0,0.0,0.0,0.0,0.0,0.0,-1.1213,-1.2076,-1.2076,-1.222,0.0,0.0,-1.2296,-1.2205,0.0,0.0,0.0,0.0,0.0,0.0,0.0,0.0,0.0,0.0,0.0,0.0,0.0,0.0,0.0,0.0,0.0,-1.7518,-1.8192,-1.8867,-1.9453,-1.9648,-1.9708,-1.9708,-1.9708,-1.9708,-1.9708,-1.9708,-1.9708,-1.9648,-1.9453,-1.9031,-1.8642,-1.8446,-1.8027,-1.7908,-1.8583,-1.8702,-1.9076,-2.0228,-2.1126,-2.2308,-2.4051,-2.5038,-2.6602,-2.9292,-2.9606,-3.0103,-3.1376,-3.2721,-3.4053,-3.54,-3.5504,-3.5504,-3.5504,-3.5504,-3.5504,-3.5504,-3.5504,-3.5504,-3.5504,-3.5504,-3.5504,-3.5504,-3.5504,-3.5504,-3.5504,-3.5504,-3.5504,-3.5504,-3.5504,-3.5504,0.0,-3.5504,-3.5504,-3.5504,-3.5504,-3.5504,-3.5504,-3.5504,-3.5504,-3.5504,0.0,0.0,0.0,0.0,0.0,0.0,-1.1805,-1.1805,-1.1805,-1.1805,-1.1805,-1.1805,-1.1805,-1.1805,-1.1805,-1.1805,-1.1181,0.0,0.0,0.0,0.0,0.0,0.0,0.0,0.0,0.0,-1.1136,-1.179,-1.179,-1.1929,-1.2205,-1.1929,-1.194,-1.2195,0.0,0.0,0.0,0.0,0.0,0.0,0.0,0.0,0.0,0.0,0.0,0.0,0.0,0.0,0.0,0.0,0.0,0.0,0.0,-1.8177,-1.8837,-1.9513,-1.9708,-1.9708,-1.9708,-1.9708,-1.9708,-1.9708,-1.9708,-1.9528,-1.8867,-1.8717,-1.8506,-1.7848,-1.7713,-1.7908,-1.8583,-1.8702,-1.8927,-1.9603,-2.0827,-2.2143,-2.343,-2.4762,-2.6602,-2.9292,-2.9606,-3.0103,-3.1376,-3.2721,-3.4053,-3.54,-3.5504,0.0,-3.5504,-3.5504,-3.5504,-3.5504,-3.5504,-3.5504,-3.5504,-3.5504,-3.5504,-3.5504,-3.5504,-3.5504,-3.5504,-3.5504,-3.5504,-3.5504,-3.5504,-3.5504,0.0,-3.5504,-3.5504,-3.5504,-3.5504,-3.5504,-3.5504,-3.5504,-3.5504,-3.5504,0.0,0.0,0.0,0.0,0.0,0.0,0.0,-1.1805,-1.1805,-1.1805,-1.1805,-1.1805,-1.1805,-1.1805,-1.1805,-1.1805,-1.1196,0.0,0.0,0.0,0.0,0.0,0.0,0.0,0.0,-1.17,-1.228,-1.2475,-1.2942,-1.3202,-1.3286,-1.3202,-1.3202,-1.3271,-1.2719,-1.2115,0.0,0.0,0.0,0.0,0.0,0.0,0.0,0.0,0.0,0.0,0.0,0.0,0.0,0.0,0.0,0.0,0.0,0.0,0.0,-1.8957,-1.9348,-1.9708,-1.9708,-1.9708,-1.9708,-1.9708,-1.9363,-1.8957,-1.8747,-1.7997,-1.7279,-1.707,-1.6682,-1.6727,-1.7818,-1.8012,-1.8386,-1.9528,-2.0827,-2.2143,-2.3415,-2.4762,-2.6602,-2.9292,-3.0372,-3.1435,-3.2751,-3.3245,-3.4053,-3.54,-3.5504,-3.5504,-3.5504,-3.5504,-3.5504,-3.5504,-3.5504,-3.5504,-3.5504,-3.5504,-3.5504,-3.5504,-3.5504,-3.5504,-3.5504,-3.5504,-3.5504,-3.5504,-3.5504,-3.5504,-3.5504,-3.5504,-3.5504,-3.5504,-3.5504,-3.5504,-3.5504,-3.5504,-3.5504,-3.5504,0.0,0.0,0.0,0.0,0.0,0.0,0.0,-1.1805,-1.1805,-1.1805,-1.1805,-1.1805,-1.1805,-1.1805,-1.1805,-1.1805,-1.142,0.0,0.0,0.0,0.0,0.0,0.0,0.0,-1.1536,-1.237,-1.2924,-1.3178,-1.36,-1.3797,-1.3797,-1.3797,-1.3797,-1.3782,-1.3361,-1.2792,0.0,0.0,0.0,0.0,0.0,0.0,-1.0827,0.0,0.0,0.0,0.0,0.0,0.0,0.0,0.0,0.0,0.0,0.0,0.0,0.0,-1.9001,-1.9393,-1.9633,-1.9708,-1.9708,-1.9708,-1.9393,-1.9016,-1.8762,-1.8057,-1.7384,-1.713,-1.6772,-1.6832,-1.7878,-1.8072,-1.8431,-1.9528,-2.0827,-2.2143,-2.3415,-2.4762,-2.6602,-2.9292,-3.0703,-3.2019,-3.3365,-3.3499,-3.4053,-3.54,-3.5504,-3.5504,-3.5504,-3.5504,-3.5504,-3.5504,-3.5504,-3.5504,-3.5504,-3.5504,-3.5504,-3.5504,-3.5504,-3.5504,-3.5504,-3.5504,-3.5504,-3.5504,-3.5504,-3.5504,0.0,-3.5504,-3.5504,-3.5504,-3.5504,-3.5504,-3.5504,-3.5504,-3.5504,-3.5504,0.0,0.0,0.0,0.0,0.0,0.0,0.0,-1.1805,-1.1805,-1.1805,-1.1805,-1.1805,-1.1805,-1.1805,-1.1805,-1.1805,0.0,0.0,0.0,0.0,0.0,0.0,0.0,0.0,-1.2834,-1.2954,-1.3343,-1.4006,-1.4051,-1.4081,-1.4081,-1.4081,-1.4081,-1.4066,-1.3976,-1.351,0.0,0.0,0.0,0.0,-1.0264,-1.0359,0.0,0.0,0.0,0.0,0.0,0.0,0.0,0.0,0.0,0.0,0.0,0.0,0.0,0.0,0.0,0.0,0.0,-1.9633,-1.9708,-1.9708,-1.9663,-1.9468,-1.8837,-1.8672,0.0,-1.7833,-1.7713,-1.7908,-1.8583,-1.8702,-1.8942,-1.9663,-2.0861,-2.2158,-2.349,-2.4956,-2.6811,-2.928,-3.0776,-3.2064,-3.3365,-3.3529,-3.4098,-3.5415,-3.5504,-3.5504,-3.5504,-3.5504,-3.5504,-3.5504,-3.5504,-3.5504,-3.5504,-3.5504,-3.5504,-3.5504,-3.5504,-3.5504,-3.5504,-3.5504,-3.5504,0.0,-3.5504,-3.5504,-3.5504,-3.5504,-3.5504,-3.5504,-3.5504,-3.5504,-3.5504,-3.5504,-3.5504,-3.5504,0.0,0.0,0.0,0.0,0.0,0.0,0.0,0.0,0.0,0.0,-1.1805,-1.1805,-1.1805,-1.1805,-1.1805,0.0,0.0,0.0,0.0,0.0,0.0,0.0,0.0,0.0,-1.354,-1.4571,-1.5396,-1.6025,-1.6517,-1.6787,-1.6787,-1.6787,-1.6787,-1.6742,-1.5755,-1.439,0.0,0.0,0.0,0.0,-1.1416,-1.1446,0.0,0.0,0.0,0.0,-1.1805,-1.1895,0.0,0.0,0.0,0.0,0.0,0.0,0.0,0.0,-1.7533,-1.7968,-1.8132,0.0,-1.9708,-1.9708,-1.9301,-1.8897,0.0,-1.8296,-1.7893,-1.7727,-1.7713,-1.7908,-1.8583,-1.8702,-1.9091,-2.0255,-2.1156,-2.2323,-2.4111,-2.6841,-2.8876,-2.9532,-3.118,-3.2602,-3.3425,-3.3948,-3.4592,-3.5444,-3.5504,-3.5504,-3.5504,-3.5504,-3.5504,-3.5504,-3.5504,-3.5504,-3.5504,-3.5504,-3.5504,-3.5504,-3.5504,-3.5504,-3.5504,-3.5504,-3.5504,-3.5504,-3.5504,-3.5504,-3.5504,-3.5504,-3.5504,-3.5504,-3.5504,-3.5504,-3.5504,-3.5504,-3.5504,-3.5504,0.0,0.0,0.0,0.0,0.0,0.0,0.0,0.0,0.0,0.0,0.0,-1.1805,-1.1805,-1.1805,0.0,0.0,0.0,0.0,0.0,0.0,0.0,0.0,0.0,-1.3346,-1.4691,-1.5695,-1.6518,-1.716,-1.7518,-1.7713,-1.7713,-1.7713,-1.7713,-1.7654,-1.6368,-1.4841,0.0,0.0,0.0,0.0,-1.1476,0.0,0.0,0.0,0.0,0.0,-1.1805,-1.1805,0.0,-1.222,-1.2549,-1.2936,0.0,0.0,0.0,0.0,-1.6742,-1.7309,-1.7624,-1.8446,-1.9226,-1.9226,-1.9196,-1.9151,-1.9151,-1.8882,-1.8627,-1.8627,-1.8627,-1.8732,-1.9091,-1.9405,-1.9869,-2.0583,-2.1754,-2.337,-2.5659,-2.8053,-2.9711,-2.9968,-3.1495,-3.2766,0.0,-3.4129,-3.4788,-3.5444,-3.5504,-3.5504,-3.5504,-3.5504,-3.5504,-3.5504,-3.5504,-3.5504,-3.5504,-3.5504,-3.5504,-3.5504,-3.5504,-3.5504,-3.5504,-3.5504,-3.5504,-3.5504,-3.5504,-3.5504,-3.5504,-3.5504,-3.5504,-3.5504,-3.5504,-3.5504,-3.5504,-3.5504,-3.5504,-3.5504,0.0,0.0,0.0,0.0,0.0,0.0,0.0,0.0,0.0,0.0,0.0,0.0,0.0,0.0,0.0,0.0,0.0,0.0,0.0,0.0,0.0,0.0,-1.36,-1.4573,-1.5904,-1.6637,-1.7339,-1.8012,-1.8012,-1.8012,-1.8012,-1.8012,-1.7953,-1.7803,-1.6623,-1.529,-1.387,0.0,0.0,0.0,-1.1181,0.0,0.0,0.0,0.0,0.0,0.0,0.0,0.0,-1.1805,-1.2175,-1.2684,-1.2891,0.0,0.0,0.0,0.0,0.0,-1.7369,-1.8042,-1.8565,-1.8672,-1.9196,-1.9708,-1.9708,-1.9708,-1.9708,-1.9708,-1.9708,-1.9738,-1.9842,-2.0318,-2.0793,-2.1092,-2.2877,-2.4986,-2.7285,-2.8843,-2.9924,-3.0447,-3.1779,-3.2886,-3.344,-3.4188,-3.4876,-3.5459,-3.5504,-3.5504,-3.5504,-3.5504,-3.5504,-3.5504,-3.5504,-3.5504,-3.5504,-3.5504,-3.5504,-3.5504,-3.5359,-3.5279,-3.5279,-3.5133,-3.5148,-3.5246,0.0,0.0,-3.5279,-3.5279,-3.5279,-3.5279,-3.5439,-3.5407,-3.5279,-3.5279,-3.518,-3.5067,0.0,0.0,0.0,0.0,0.0,0.0,0.0,0.0,0.0,0.0,0.0,0.0,0.0,0.0,0.0,0.0,0.0,0.0,0.0,0.0,0.0,-1.363,-1.4288,-1.5261,-1.6532,-1.7758,-1.8732,-1.9393,-1.9393,-1.9393,-1.9393,-1.9393,-1.9091,-1.8506,-1.7743,-1.6368,-1.4588,-1.3812,0.0,-1.179,-1.1685,0.0,0.0,0.0,0.0,0.0,0.0,0.0,0.0,-1.1805,-1.1865,-1.2149,-1.3301,0.0,0.0,0.0,0.0,0.0,-1.6682,-1.7339,-1.7997,-1.8568,-1.9196,-1.9708,-1.9708,-1.9708,-1.9708,-1.9708,-1.9708,-1.9869,-2.0453,-2.0628,-2.1241,-2.2892,-2.5323,-2.7121,-2.754,-2.9175,-3.0402,-3.0492,-3.2183,-3.338,-3.3484,-3.4622,-3.5385,-3.5489,-3.5504,-3.5504,-3.5504,-3.5504,-3.5504,-3.5504,-3.5504,-3.5504,-3.5504,-3.5504,-3.5504,-3.5504,-3.4658,-3.4245,-3.4211,-3.3394,-3.3463,-3.4177,0.0,-3.3498,-3.4245,-3.4245,-3.4245,-3.4312,-3.5166,-3.4986,-3.4245,-3.4245,-3.3719,-3.3031,0.0,0.0,0.0,0.0,0.0,0.0,0.0,0.0,0.0,0.0,0.0,0.0,0.0,0.0,0.0,0.0,0.0,0.0,0.0,0.0,-1.3104,-1.3767,-1.5098,-1.6264,-1.7219,-1.8553,-1.9393,-1.9708,-1.9708,-1.9708,-1.9708,-1.9708,-1.9348,-1.8672,-1.7997,-1.6817,-1.5275,-1.4244,-1.3241,-1.231,0.0,0.0,0.0,0.0,0.0,0.0,0.0,0.0,0.0,0.0,-1.1805,-1.191,-1.2512,0.0,0.0,0.0,0.0,0.0,-1.6547,-1.7189,-1.7863,-1.8521,-1.9196,-1.9708,-1.9708,-1.9708,-1.9708,-1.9708,-1.9989,-2.0333,-2.0643,-2.1575,-2.2921,-2.4896,-2.6566,-2.7854,-2.8588,-2.9729,-3.0776,-3.1509,0.0,-3.3634,-3.4024,-3.4921,-3.5504,-3.5504,-3.5504,-3.5504,-3.5504,-3.4986,-3.4691,-3.4691,-3.4192,-3.3939,-3.3939,-3.3939,-3.4192,-3.4691,-3.3719,-3.3241,-3.3241,-3.282,-3.2855,-3.3206,0.0,-3.2855,-3.3241,-3.3241,-3.3241,-3.3276,-3.3754,-3.365,-3.3241,-3.3241,-3.2961,-3.2593,0.0,0.0,0.0,0.0,0.0,0.0,0.0,0.0,0.0,0.0,0.0,0.0,0.0,0.0,0.0,0.0,0.0,0.0,0.0,-1.2579,-1.3256,-1.3782,-1.5815,-1.7174,-1.7699,-1.9016,-1.9708,-1.9708,-1.9708,-1.9708,-1.9708,-1.9708,-1.9438,-1.8897,-1.8237,-1.7221,-1.5934,-1.4752,-1.3703,-1.2756,0.0,0.0,0.0,0.0,0.0,0.0,0.0,0.0,0.0,0.0,0.0,0.0,0.0,0.0,0.0,-1.4184,-1.5096,-1.6144,-1.6771,-1.7413,-1.8102,-1.8777,-1.9316,-1.9708,-1.9708,-1.9828,-1.9929,-1.9929,-2.0468,-2.1036,-2.1316,-2.2981,-2.4852,-2.6566,-2.754,-2.8483,-2.9666,-3.0342,-3.118,-3.2377,-3.3095,-3.3754,-3.4444,-3.51,-3.5504,-3.5504,-3.5279,-3.5133,-3.5133,-3.4211,-3.3671,-3.3671,-3.2961,-3.2593,-3.2593,-3.2393,-3.2749,-3.3671,-3.2713,-3.2285,-3.2249,-3.2033,-3.2069,-3.2249,-3.2046,-3.2083,-3.2285,-3.2285,-3.2285,-3.2285,-3.25,-3.2464,-3.2249,-3.2046,-3.1938,-3.1938,0.0,0.0,0.0,0.0,0.0,0.0,0.0,0.0,0.0,0.0,0.0,0.0,0.0,0.0,0.0,0.0,0.0,0.0,0.0,-1.3005,-1.375,-1.3797,-1.6263,-1.7637,-1.7713,-1.9016,-1.9708,-1.9708,-1.9708,-1.9708,-1.9708,-1.9708,-1.9678,-1.9603,-1.8927,-1.7893,-1.6592,-1.5919,-1.4554,-1.2801,-1.2756,0.0,0.0,0.0,0.0,0.0,0.0,0.0,0.0,0.0,0.0,0.0,0.0,0.0,-1.4036,-1.529,-1.6129,-1.6786,-1.7443,-1.8117,-1.8792,-1.9468,-1.9663,-1.9708,-1.9708,-2.0183,-2.0628,-2.0628,-2.1171,-2.1994,-2.3176,-2.5031,-2.6641,-2.7405,-2.8618,-2.9696,-3.0342,-3.1002,-3.169,-3.2392,-3.3095,-3.3754,-3.4444,-3.51,-3.5504,-3.5504,-3.4658,-3.4095,-3.4095,-3.3206,-3.2713,-3.2713,-3.2629,-3.2593,-3.2593,-3.1742,-3.1779,-3.2713,-3.1742,-3.1278,-3.1278,-3.0394,-3.0495,-3.1254,-3.0394,-3.0495,-3.1278,-3.1278,-3.1278,-3.1389,-3.2249,-3.2069,-3.1217,-3.0317,-2.9998,-2.9998,0.0,0.0,0.0,0.0,0.0,0.0,0.0,0.0,0.0,0.0,0.0,0.0,0.0,0.0,0.0,0.0,0.0,0.0,0.0,-1.3062,-1.3797,-1.3797,-1.6308,-1.7713,-1.7713,-1.9016,-1.9708,-1.9708,-1.9708,-1.9708,-1.9708,-1.9708,-1.9708,-1.9678,-1.9001,-1.8192,-1.7249,-1.6233,-1.4871,-1.3391,-1.2969,-1.24,0.0,0.0,0.0,0.0,0.0,0.0,0.0,0.0,-1.1805,-1.1954,-1.2894,-1.3466,-1.4064,-1.541,-1.6234,-1.695,-1.8027,-1.8506,-1.8972,-2.0049,-2.0318,-2.0318,-2.0318,-2.0842,-2.144,-2.1859,-2.2443,-2.3535,-2.5698,-2.6716,-2.7585,-2.8678,-2.9564,-3.0238,-3.0477,-3.145,-3.2363,-3.3036,-3.3709,-3.4399,-3.5055,-3.5355,-3.5246,-3.461,-3.4211,-3.3739,-3.3171,-3.2249,-3.1742,-3.1742,-3.1156,-3.0846,-3.0846,-3.0495,-3.0533,-3.0846,-3.0495,-3.0317,-3.0317,-2.9972,-2.9998,-3.0317,-2.996,-2.9998,-3.0317,-3.0317,-3.0317,-3.0343,-3.0709,-3.0633,-3.0279,-2.9934,-2.9792,-2.9792,0.0,0.0,0.0,0.0,0.0,0.0,0.0,0.0,0.0,0.0,0.0,0.0,0.0,0.0,0.0,0.0,0.0,0.0,-1.173,-1.3062,-1.3797,-1.3797,-1.6308,-1.7713,-1.7713,-1.9016,-1.9708,-1.9708,-1.9708,-1.9708,-1.9708,-1.9708,-1.9708,-1.9678,-1.9211,-1.8538,-1.7654,-1.6772,-1.5515,-1.4064,-1.3388,-1.2714,0.0,0.0,0.0,0.0,0.0,0.0,0.0,0.0,-1.1805,-1.1954,-1.2834,-1.3436,-1.4096,-1.562,-1.6533,-1.7264,-1.8386,-1.9016,-1.9555,-2.0464,-2.1021,-2.1335,-2.1335,-2.1829,-2.2428,-2.2897,-2.3991,-2.5428,-2.7255,-2.7944,-2.8603,-2.9684,-3.0223,-3.0657,-3.1076,-3.1928,-3.2841,-3.3709,-3.4234,-3.4631,-3.4993,-3.5019,-3.4624,-3.3636,-3.3276,-3.2855,-3.2177,-3.1254,-3.0758,-3.0758,-3.0139,-2.9792,-2.9792,-2.9792,-2.9792,-2.9792,-2.9792,-2.9792,-2.9792,-2.9792,-2.9792,-2.9792,-2.9792,-2.9792,-2.9792,-2.9792,-2.9792,-2.9792,-2.9792,-2.9792,-2.9792,-2.9792,-2.9792,-2.9792,0.0,0.0,0.0,0.0,0.0,0.0,0.0,0.0,0.0,0.0,0.0,0.0,0.0,0.0,0.0,0.0,0.0,0.0,-1.176,-1.3062,-1.3797,-1.3797,-1.6308,-1.7699,-1.7713,-1.9016,-1.9708,-1.9708,-1.9708,-1.9708,-1.9708,-1.9708,-1.9708,-1.9708,-1.9708,-1.8957,-1.7713,-1.7713,-1.6577,-1.4751,-1.4066,-1.3391,-1.2726,0.0,0.0,0.0,0.0,0.0,0.0,0.0,-1.1805,-1.2029,-1.3376,-1.3797,-1.4186,-1.6129,-1.7174,-1.7848,-1.8538,-1.969,-2.0688,-2.0703,-2.171,-2.2703,-2.2703,-2.3197,-2.3625,-2.364,-2.5773,-2.76,-2.7615,-2.8708,-2.9816,-3.0417,-3.0507,-3.0986,-3.2317,-3.2497,-3.3021,-3.4354,-3.4518,-3.4345,-3.4037,-3.3993,-3.3602,-3.2664,-3.1742,-3.1217,-3.118,-3.0317,-2.9792,-2.9792,-2.9792,-2.9792,-2.9792,-2.9792,-2.9792,-2.9792,-2.9792,-2.9792,-2.9792,-2.9792,-2.9792,-2.9792,-2.9792,-2.9792,-2.9792,-2.9792,-2.9792,-2.9792,-2.9792,-2.9792,-2.9792,-2.9792,-2.9792,-2.9792,0.0,0.0,0.0,0.0,0.0,0.0,0.0,0.0,0.0,0.0,0.0,0.0,0.0,0.0,0.0,0.0,0.0,0.0,-1.176,-1.3062,-1.3797,-1.3797,-1.5845,-1.7219,-1.7699,-1.9016,-1.9708,-1.9708,-1.9708,-1.9708,-1.9708,-1.9708,-1.9708,-1.9708,-1.9708,-1.8957,-1.7713,-1.7713,-1.6577,-1.4751,-1.4066,-1.3391,-1.2726,0.0,0.0,0.0,0.0,0.0,0.0,0.0,0.0,0.0,-1.2819,-1.3421,-1.4186,-1.6129,-1.7174,-1.7953,-1.9091,-1.969,-2.0213,-2.1171,-2.1695,-2.2353,-2.3708,-2.4552,-2.527,-2.6222,-2.7435,-2.8442,-2.8933,-2.9669,-3.0447,-3.1092,-3.1585,-3.2063,-3.2452,-3.3305,-3.4038,-3.4459,-3.4283,-3.4109,-3.4013,-3.338,-3.2629,-3.1669,-3.1352,-3.0895,-3.0241,-2.9934,-2.9792,-2.9792,-2.9792,-2.9792,-2.9792,-2.9792,-2.9792,-2.9792,-2.9792,-2.9792,-2.9792,-2.9792,-2.9792,-2.9792,-2.9792,-2.9792,-2.9792,-2.9792,-2.9792,-2.9792,-2.9792,-2.9792,-2.9792,-2.9792,-2.9792,-2.9792,0.0,0.0,0.0,0.0,0.0,0.0,0.0,0.0,0.0,0.0,-0.7899,-0.7899,0.0,0.0,0.0,0.0,0.0,0.0,-1.176,-1.2807,-1.3525,-1.3782,-1.5426,-1.6891,-1.8072,-1.8897,-1.942,-1.9708,-1.9708,-1.9708,-1.9708,-1.9708,-1.9708,-1.9708,-1.9708,-1.8957,-1.7713,-1.7713,-1.6727,-1.511,-1.4184,-1.3555,-1.3104,0.0,0.0,0.0,0.0,0.0,0.0,0.0,0.0,0.0,-1.2426,-1.3144,-1.4186,-1.6129,-1.7174,-1.7997,-1.9348,-1.9902,-2.0348,-2.1425,-2.1889,-2.2667,-2.4896,-2.5719,-2.6378,-2.7735,-2.8517,-2.919,-2.9834,-3.0477,-3.1107,-3.178,-3.2228,-3.2706,-3.3215,-3.3978,-3.4467,-3.4304,-3.4114,-3.3705,-3.2961,-3.2393,-3.1646,-3.0733,-3.062,-3.0381,-2.983,-2.9792,-2.9792,-2.9792,-2.9792,-2.9792,-2.9792,-2.9792,-2.9792,-2.9792,-2.9792,-2.9792,-2.9792,-2.9792,-2.9792,-2.9792,-2.9792,-2.9792,-2.9792,-2.9792,-2.9792,-2.9792,-2.9792,-2.9792,-2.9792,-2.9792,-2.9792,-2.9792,0.0,0.0,0.0,0.0,0.0,0.0,0.0,0.0,0.0,-0.7899,-0.7899,-0.7899,0.0,0.0,0.0,-0.9839,-1.0449,-1.1091,-1.176,-1.243,-1.3074,-1.369,-1.505,-1.6623,-1.8403,-1.8612,-1.9001,-1.9618,-1.9678,-1.9708,-1.9708,-1.9708,-1.9708,-1.9708,-1.9708,-1.8986,-1.7788,-1.7728,-1.6997,-1.5769,-1.4438,-1.3842,-1.3663,-1.2388,0.0,0.0,0.0,0.0,0.0,0.0,0.0,0.0,-1.2153,-1.2937,-1.4104,-1.598,-1.7069,-1.7933,-1.9256,-2.0094,-2.0778,-2.1515,-2.2343,-2.3586,-2.5959,-2.6647,-2.7141,-2.8427,-2.9205,-2.9834,-3.0402,-3.0975,-3.1588,-3.2273,-3.2437,-3.2914,-3.4198,-3.4422,-3.4324,-3.4023,-3.3842,-3.3066,-3.1352,-3.1106,-3.0733,-2.9856,-2.9792,-2.9792,-2.9792,-2.9792,-2.9792,-2.9792,-2.9792,-2.9792,-2.9792,-2.9792,-2.9792,-2.9792,-2.9792,-2.9792,-2.9792,-2.9792,-2.9792,-2.9792,-2.9792,-2.9792,-2.9792,-2.9792,-2.9792,-2.9792,-2.9792,-2.9792,-2.9792,-2.9792,-2.9792,-2.9792,0.0,0.0,0.0,0.0,0.0,0.0,0.0,0.0,-0.7899,-0.7899,-0.7899,-0.7899,-0.7899,-0.8492,0.0,-0.9839,-1.0449,-1.1091,-1.176,-1.243,-1.2864,-1.3014,-1.4809,-1.6008,-1.6398,-1.7909,-1.8777,-1.8912,-1.9453,-1.9708,-1.9708,-1.9708,-1.9708,-1.9708,-1.9708,-1.9241,-1.8446,-1.7923,-1.7234,-1.6383,-1.5111,-1.4274,-1.3707,-1.2894,-1.2092,0.0,0.0,0.0,0.0,0.0,0.0,0.0,-1.1811,-1.2572,-1.3582,-1.485,-1.6171,-1.7483,-1.8601,-1.939,-2.0198,-2.1395,-2.3355,-2.5121,-2.5689,-2.7036,-2.8397,-2.9232,-2.9864,-3.0342,-3.0477,-3.0543,-3.0727,-3.1304,-3.1888,-3.2515,-3.3282,-3.3804,-3.4085,-3.4013,-3.2713,-3.1646,-3.1254,-3.052,-2.9998,-2.983,-2.9792,-2.9792,-2.9792,-2.9792,-2.9792,-2.9792,-2.9792,-2.9792,-2.9792,-2.9792,-2.9792,0.0,-2.9792,-2.9792,-2.9792,-2.9792,-2.9792,-2.9792,-2.9792,-2.9792,-2.9792,-2.9792,-2.9792,-2.9792,-2.9792,-2.9792,-2.9792,-2.9792,-2.9792,-2.9792,0.0,0.0,0.0,0.0,0.0,0.0,0.0,0.0,-0.7899,-0.7899,-0.7899,-0.7899,-0.7899,-0.8222,0.0,0.0,-0.9994,-1.0643,-1.1271,-1.1939,-1.246,-1.2786,-1.4107,-1.514,-1.5784,-1.6787,-1.776,-1.8702,-1.9046,-1.9393,-1.9708,-1.9708,-1.9708,-1.9708,-1.9708,-1.9333,-1.8687,-1.8326,-1.7608,-1.6622,-1.5665,-1.4733,-1.3891,-1.3448,-1.2638,-1.1758,-1.1957,0.0,0.0,0.0,0.0,0.0,0.0,0.0,-1.3337,-1.4067,-1.5615,-1.7287,-1.8167,-1.9043,-2.0022,-2.1365,-2.367,-2.5615,-2.5615,-2.6891,-2.8236,-2.8855,-2.9794,-3.0485,-3.041,-3.0569,-3.0886,-3.1487,-3.1781,-3.2125,-3.2774,-3.3113,-3.3171,-3.2713,-3.1815,-3.1007,-3.0558,-3.0113,-2.9792,-2.9792,-2.9792,-2.9792,-2.9792,-2.9792,-2.9792,-2.9792,-2.9792,-2.9792,-2.9792,-2.9792,-2.9792,-2.9792,-2.9792,-2.9792,-2.9792,-2.9792,-2.9792,-2.9792,-2.9792,-2.9792,-2.9792,-2.9792,-2.9792,-2.9792,-2.9792,-2.9792,-2.9792,-2.9792,-2.9792,-2.9792,0.0,0.0,0.0,0.0,0.0,0.0,0.0,0.0,0.0,-0.7899,-0.7899,-0.7899,-0.7899,-0.7899,-0.8177,0.0,0.0,0.0,-1.0753,-1.142,-1.2044,-1.2594,-1.3271,-1.4152,-1.5259,-1.5619,-1.6578,-1.8194,-1.8433,-1.8807,-1.9346,-1.9588,-1.9708,-1.9708,-1.9708,-1.9393,-1.8867,-1.8747,-1.8057,-1.698,-1.6248,-1.5286,-1.4242,-1.3962,-1.3147,-1.2204,-1.2541,-1.229,-1.1684,-1.1136,0.0,0.0,0.0,0.0,-1.316,-1.3444,-1.5156,-1.7087,-1.7654,-1.8742,-2.0061,-2.1361,-2.349,-2.533,-2.5555,-2.6509,-2.7462,-2.7954,-2.9159,-3.0103,-3.0079,-3.0316,-3.0758,-3.1527,-3.143,-3.1513,-3.2247,-3.2357,-3.2069,-3.1278,-3.1082,-3.0658,-2.9869,-2.9792,-2.9792,0.0,0.0,-2.9792,-2.9792,-2.9792,-2.9792,-2.9792,-2.9792,-2.9792,-2.9792,-2.9792,-2.9792,-2.9792,-2.9792,-2.9792,-2.9792,-2.9792,-2.9792,-2.9792,-2.9792,-2.9792,-2.9792,-2.9792,-2.9792,-2.9792,-2.9792,-2.9792,-2.9792,-2.9792,-2.9792,-2.9792,0.0,0.0,0.0,0.0,0.0,0.0,0.0,0.0,0.0,0.0,-0.7899,-0.7899,-0.7899,-0.7899,-0.8177,-0.8845,-0.9518,-1.0159,-1.0753,0.0,0.0,-1.1925,-1.2579,-1.3014,-1.3205,-1.4914,-1.5933,-1.6188,-1.7296,-1.7878,-1.7997,-1.9151,-1.9708,-1.9708,-1.9708,-1.9648,-1.9528,-1.8957,-1.8612,-1.8311,-1.707,-1.5919,-1.4903,-1.4285,-1.3221,-1.2024,-1.2081,-1.1898,-1.1593,-1.1268,-1.1216,0.0,0.0,0.0,-1.2775,-1.2817,-1.4537,-1.6431,-1.6532,-1.8162,-2.0167,-2.1401,-2.2787,-2.4178,-2.5345,-2.6132,-2.674,-2.7106,-2.7873,-2.8638,-2.9112,-2.8624,-2.8519,-2.9579,-2.9749,-3.0153,-3.1243,-3.1389,-3.1352,-3.1217,-3.0482,-2.9934,-2.9792,0.0,0.0,0.0,-2.9792,-2.9792,-2.9792,-2.9792,-2.9792,-2.9792,-2.9792,-2.9792,-2.9792,-2.9792,-2.9792,-2.9792,-2.9792,-2.9792,-2.9792,-2.9792,-2.9792,-2.9792,-2.9792,-2.9792,-2.9792,-2.9792,-2.9792,-2.9792,-2.9792,-2.9792,-2.9792,-2.9792,-2.9792,-2.9792,0.0,0.0,0.0,0.0,0.0,0.0,0.0,0.0,0.0,0.0,0.0,-0.7899,-0.7899,-0.7899,-0.8177,-0.8845,-0.9518,-1.0324,-1.1301,-1.164,-1.1805,-1.1805,-1.2074,-1.2415,-1.2786,-1.4032,-1.505,-1.5799,-1.6697,-1.7339,-1.7697,-1.8296,-1.8777,-1.9151,-1.9525,-1.9708,-1.9678,-1.9393,-1.8874,-1.8229,-1.7941,-1.6994,-1.5799,-1.6026,-1.5365,-1.4248,-1.3871,-1.3421,-1.2863,-1.1944,-1.1561,-1.1401,-1.0939,0.0,0.0,0.0,-1.3696,-1.5657,-1.661,-1.8117,-1.9644,-2.0476,-2.1679,-2.2965,-2.421,-2.4619,-2.4997,-2.5762,-2.6122,-2.6699,-2.804,-2.8206,-2.8428,-2.925,-2.9291,-2.9468,-3.0303,-3.0419,-3.0419,-3.0419,-3.0037,-2.9792,0.0,0.0,0.0,0.0,-2.9792,-2.9792,-2.9792,-2.9792,-2.9792,-2.9792,-2.9792,-2.9792,-2.9792,-2.9792,-2.9792,-2.9792,-2.9792,-2.9792,-2.9792,-2.9792,-2.9792,-2.9792,-2.9792,-2.9792,-2.9792,-2.9792,-2.9792,-2.9792,-2.9792,-2.9792,-2.9792,-2.9792,-2.9792,-2.9792,0.0,0.0,0.0,0.0,0.0,0.0,0.0,0.0,0.0,0.0,0.0,-0.8401,-0.8401,0.0,0.0,0.0,-0.9749,-1.0608,-1.173,-1.164,-1.155,-1.155,-1.155,-1.1775,-1.228,-1.3121,-1.4109,-1.529,-1.5905,-1.6562,-1.722,-1.737,-1.7697,-1.8222,-1.9076,-1.9453,-1.9468,-1.9633,-1.9179,-1.8386,-1.8607,-1.7928,-1.6821,-1.7347,-1.6899,-1.5931,-1.5433,-1.4844,-1.4097,-1.2756,-1.2211,-1.1959,-1.1165,-1.1547,0.0,0.0,0.0,-1.4976,-1.6654,-1.776,-1.8645,-1.9487,-2.0548,-2.1694,-2.2906,-2.3164,-2.3472,-2.4659,-2.4723,-2.5127,-2.6855,-2.7605,-2.8178,-2.8777,-2.8647,-2.8762,-2.9478,-2.9578,-2.9628,-2.9779,0.0,0.0,0.0,0.0,0.0,0.0,-2.9792,-2.9792,-2.9792,-2.9792,-2.9792,-2.9792,-2.9792,-2.9792,-2.9792,-2.9792,-2.9792,-2.9792,-2.9792,-2.9792,-2.9792,-2.9792,-2.9792,-2.9792,-2.9792,-2.9792,-2.9792,-2.9792,-2.9792,-2.9792,-2.9792,-2.9792,-2.9792,-2.9792,-2.9792,-2.9792,0.0,0.0,0.0,0.0,0.0,0.0,0.0,0.0,0.0,0.0,0.0,-0.9785,-0.9785,-0.9785,-0.98,-0.9854,-1.0404,-1.1047,-1.1745,-1.1196,-1.0842,-1.0842,-1.0842,0.0,-1.0902,-1.2179,-1.3193,-1.3902,-1.4573,-1.5245,-1.5918,-1.6488,-1.6771,-1.686,-1.8177,-1.8747,-1.8792,-1.9438,-1.966,-1.9552,-1.8939,-1.8416,-1.7948,-1.734,-1.6547,-1.5715,-1.5688,-1.5324,-1.4689,-1.3544,-1.3132,-1.2935,-1.1892,-1.221,-1.2872,0.0,0.0,0.0,-1.6099,-1.6592,-1.7036,-1.8734,-1.9592,-2.0338,-2.1676,-2.2233,-2.2797,-2.4094,-2.4163,-2.4368,-2.5501,-2.6202,-2.6782,-2.7301,-2.7379,-2.7745,-2.8787,-2.8938,-2.9176,0.0,0.0,0.0,0.0,0.0,0.0,0.0,-2.9792,-2.9792,-2.9792,-2.9792,-2.9792,-2.9792,-2.9792,-2.9792,-2.9792,-2.9792,-2.9792,-2.9792,-2.9792,-2.9792,-2.9792,-2.9792,-2.9792,-2.9792,-2.9792,-2.9792,-2.9792,-2.9792,-2.9792,-2.9792,-2.9792,-2.9792,-2.9792,-2.9792,-2.9792,-2.9792,0.0,0.0,0.0,0.0,0.0,0.0,0.0,0.0,0.0,0.0,0.0,0.0,0.0,-0.989,-1.0054,-1.0449,-1.1062,-1.154,-1.1775,-1.1166,-1.0798,-1.0798,-1.0434,-1.0404,-1.0783,-1.1685,-1.249,-1.3163,-1.3825,-1.4498,-1.517,-1.508,-1.5419,-1.6174,-1.7577,-1.8379,-1.873,-1.9053,-1.8987,-1.8674,-1.8778,-1.8323,-1.7605,-1.7711,-1.774,-1.7609,-1.6583,-1.631,-1.6214,-1.4788,-1.3804,-1.3135,-1.2751,-1.2614,-1.2647,-1.2847,-1.3488,-1.4304,-1.5223,-1.5722,-1.6314,-1.7661,-1.8148,-1.8695,-2.0219,-2.0656,-2.1179,-2.2687,-2.3229,-2.3647,-2.4431,-2.5297,-2.6201,-2.7165,-2.7281,-2.7544,-2.8298,-2.8398,0.0,0.0,0.0,0.0,0.0,0.0,0.0,0.0,0.0,-2.9792,-2.9792,-2.9792,-2.9792,-2.9792,-2.9792,-2.9792,-2.9792,-2.9792,-2.9792,-2.9792,-2.9792,-2.9792,-2.9792,-2.9792,-2.9792,-2.9792,-2.9792,-2.9792,-2.9792,-2.9792,-2.9792,-2.9792,-2.9792,-2.9792,-2.9792,-2.9792,-2.9792,-2.9792,0.0,0.0,0.0,0.0,0.0,0.0,0.0,0.0,0.0,-1.0842,0.0,0.0,0.0,0.0,-1.0937,-1.1121,-1.154,-1.1805,-1.1805,-1.0972,-1.0494,-1.0494,-0.9899,-0.9749,-1.0159,-1.0817,-1.1591,-1.246,-1.279,-1.3589,-1.4797,-1.4367,-1.4674,-1.5625,-1.6775,-1.759,-1.8113,-1.8477,-1.8438,-1.8145,-1.8496,-1.8204,-1.7605,-1.7967,-1.8329,-1.85,-1.7223,-1.7003,-1.7116,-1.5657,-1.4664,-1.4005,-1.383,-1.3408,-1.2994,-1.3148,-1.3483,-1.3916,-1.4488,-1.5009,-1.5663,-1.6606,-1.7121,-1.7687,-1.8744,-1.9409,-2.0125,-2.1242,-2.2042,-2.2811,-2.3577,-2.4293,-2.5197,-2.6502,-2.6716,-2.6979,-2.772,0.0,0.0,0.0,0.0,0.0,0.0,0.0,0.0,0.0,0.0,0.0,-2.9792,-2.9792,-2.9792,-2.9792,-2.9792,-2.9792,-2.9792,-2.9792,-2.9792,-2.9792,-2.9792,-2.9792,-2.9792,-2.9792,-2.9792,-2.9792,-2.9792,-2.9792,-2.9792,-2.9792,-2.9792,-2.9792,-2.9792,-2.9792,-2.9792,-2.9792,-2.9585,-2.9236,0.0,0.0,0.0,0.0,0.0,0.0,0.0,0.0,-1.2059,-1.2744,0.0,0.0,0.0,0.0,0.0,-1.188,-1.1835,-1.182,-1.1805,-1.0623,-0.992,-0.9905,-0.9257,-0.8905,-0.8897,-0.9546,-1.0508,-1.1753,-1.1442,-1.2468,-1.471,-1.4394,-1.4544,-1.5087,-1.5761,-1.635,-1.6921,-1.7729,-1.8086,-1.8086,-1.8086,-1.8066,-1.8046,-1.806,-1.8132,-1.8122,-1.7542,-1.7364,-1.7257,-1.6141,-1.5718,-1.5613,-1.506,-1.4525,-1.3972,-1.3403,-1.321,-1.3328,0.0,0.0,0.0,-1.5575,-1.6534,-1.7385,-1.741,-1.8606,-1.9748,-1.9773,-2.0665,-2.1769,-2.2832,-2.3045,-2.3597,-2.5259,-2.5548,-2.5963,0.0,0.0,0.0,0.0,0.0,0.0,0.0,0.0,0.0,0.0,-2.9767,-2.9779,-2.9792,-2.9792,-2.9792,-2.9792,-2.9792,-2.9792,-2.9792,-2.9792,-2.9792,-2.9792,-2.9792,-2.9792,-2.9792,-2.9792,-2.9792,-2.9792,-2.9753,-2.9753,-2.9753,-2.9753,-2.9753,-2.9753,-2.9702,-2.9714,-2.9714,-2.9714,-2.8988,-2.8056,0.0,0.0,0.0,0.0,0.0,-1.0635,-1.1719,-1.2248,-1.2759,0.0,0.0,0.0,-1.354,-1.3525,-1.3256,-1.2579,-1.2519,-1.2325,-1.1835,-1.1017,-1.0359,-0.992,-0.9257,-0.8809,-0.8612,-0.9226,-0.985,-1.0502,-1.1036,-1.1777,-1.2716,-1.2912,-1.3388,-1.4117,-1.4884,-1.5485,-1.5945,-1.7049,-1.7524,-1.7524,-1.7524,-1.7291,-1.6981,-1.7441,-1.7852,-1.8184,-1.8013,-1.7971,-1.7878,-1.7166,-1.6371,-1.5613,-1.506,-1.4525,-1.4078,-1.3909,-1.3546,-1.3328,-1.3946,0.0,0.0,0.0,0.0,0.0,-1.731,-1.7727,-1.8279,-1.9058,-1.9786,-2.0489,-2.1245,-2.1681,-2.2359,-2.3584,-2.4474,-2.5272,0.0,0.0,0.0,0.0,0.0,0.0,0.0,0.0,0.0,0.0,-2.9126,-2.9352,-2.9767,-2.9792,-2.9792,-2.9792,-2.9792,-2.9792,-2.9792,-2.9792,-2.9792,-2.9792,-2.9792,-2.9792,-2.9792,-2.9792,-2.9792,-2.9753,-2.8937,-2.8557,-2.8557,-2.8557,-2.8557,-2.8478,-2.7718,-2.7424,-2.7424,-2.7424,-2.7209,-2.6924,0.0,0.0,-0.9401,-1.0574,-1.1019,-1.1494,-1.2373,-1.2979,-1.3568,0.0,0.0,0.0,-1.4634,-1.4378,-1.388,-1.3033,-1.2976,-1.2624,-1.1814,-1.112,-1.0498,-0.9922,-0.9045,-0.8502,-0.8333,-0.8426,-0.8856,-0.963,-0.9984,-1.0771,-1.1898,-1.1993,-1.2536,-1.345,-1.4393,-1.4978,-1.5318,-1.6473,-1.6972,-1.6997,-1.7243,-1.7144,-1.6936,-1.7501,-1.806,-1.8495,-1.8284,-1.848,-1.874,-1.7981,-1.7137,-1.6258,-1.5487,-1.5009,-1.4676,-1.4242,-1.3858,-1.3596,-1.3702,-1.4148,-1.4639,-1.4947,0.0,0.0,-1.6597,-1.7071,-1.7586,0.0,-1.8769,-1.9309,-1.9874,-2.0426,-2.1079,-2.197,-2.2849,0.0,0.0,0.0,0.0,0.0,0.0,0.0,0.0,-2.762,-2.7996,-2.8549,-2.8586,-2.8837,-2.9402,-2.9666,-2.9792,-2.9792,-2.9792,-2.9792,-2.9792,-2.9792,-2.9792,-2.9792,-2.9792,-2.9792,-2.9792,-2.9792,-2.9534,-2.9067,-2.8386,-2.7844,-2.74,-2.6942,-2.6982,-2.7371,-2.6719,-2.6524,-2.6524,-2.6524,-2.6182,-2.5797,0.0,0.0,-1.0126,-1.1034,-1.173,-1.2295,-1.2689,-1.357,-1.4414,0.0,-1.5656,-1.6033,-1.5847,-1.5299,-1.4538,-1.3513,-1.3357,-1.2909,-1.1951,-1.1215,-1.0572,-1.0016,-0.8904,-0.8223,-0.8068,-0.7606,-0.7908,-0.9011,-0.8808,-0.9727,-1.1672,-1.1468,-1.1892,-1.29,-1.4087,-1.4743,-1.4959,-1.6045,-1.6538,-1.666,-1.7174,-1.7436,-1.7561,-1.8091,-1.8607,-1.9033,-1.8631,-1.9045,-1.9648,-1.8568,-1.7877,0.0,0.0,-1.5831,-1.558,-1.4576,-1.4186,-1.3972,-1.3441,-1.369,-1.4103,-1.4103,-1.4865,0.0,-1.568,-1.6471,-1.7234,0.0,-1.7727,-1.8267,-1.8732,-1.9246,-1.9811,-2.0415,0.0,0.0,0.0,0.0,0.0,0.0,0.0,0.0,-2.626,-2.6813,-2.7331,-2.7883,-2.8034,-2.8348,-2.8863,-2.9415,-2.9729,-2.9792,-2.9792,-2.9792,-2.9792,-2.9792,-2.9792,-2.9792,-2.9792,-2.974,-2.9624,-2.9624,-2.8988,-2.7936,-2.7804,-2.7197,-2.6224,-2.5083,-2.5294,-2.6307,-2.6182,-2.6099,-2.6099,-2.6099,-2.5473,-2.4617,-0.8869,-0.9282,-0.9721,-1.0448,-1.1039,-1.1629,-1.2224,-1.3797,-1.4995,-1.5216,-1.5727,-1.6093,-1.6052,-1.5927,-1.5557,-1.488,-1.4369,-1.3802,-1.3111,-1.2088,-1.1227,-1.0574,-0.9909,-0.9012,-0.7886,-0.8167,-0.8374,-0.8459,-0.9094,-0.9709,-1.0302,-1.0939,-1.1471,-1.1939,-1.3531,-1.4461,-1.4959,-1.6045,-1.6785,-1.7225,-1.736,-1.7674,-1.8103,-1.8632,-1.9171,-1.9698,-2.0088,-2.0024,-1.9648,-1.8568,-1.8129,-1.7928,0.0,-1.6735,-1.6233,-1.5588,-1.479,-1.4078,-1.3959,-1.4009,-1.4103,-1.4103,-1.4576,0.0,-1.5593,-1.5869,-1.6145,0.0,-1.7149,-1.7576,-1.7689,-1.8154,-1.8694,-1.9233,0.0,0.0,0.0,0.0,0.0,0.0,0.0,0.0,-2.5134,-2.5624,-2.6163,-2.6776,-2.7607,-2.8348,-2.8863,-2.9001,-2.9315,-2.9779,-2.9792,-2.9792,-2.9792,-2.9792,-2.9792,-2.9792,-2.9792,-2.9326,-2.8426,-2.8426,-2.7815,-2.676,-2.5828,-2.5326,-2.5041,-2.3887,-2.4092,-2.5041,-2.4135,-2.3767,-2.3767,-2.3767,-2.3637,-2.343,-0.8612,-0.9213,-0.9903,-1.0663,-1.1295,-1.2052,-1.3093,-1.4203,-1.5124,-1.5721,-1.6319,-1.6669,-1.6596,-1.6605,-1.625,-1.5417,-1.5078,-1.4578,-1.3808,-1.2938,-1.2179,-1.1577,-1.0494,-0.9568,-0.8864,-0.8583,-0.8531,-0.8699,-0.9136,-0.9535,-0.9905,-1.0353,-1.1066,-1.2052,-1.3157,-1.4249,-1.5349,-1.617,-1.7011,-1.779,-1.779,-1.8279,-1.9058,-1.9623,-2.0175,-2.0677,-2.1006,-2.0918,-2.0564,-2.0024,-1.966,0.0,-1.8455,-1.798,-1.7528,-1.6434,-1.5718,-1.5185,-1.4639,-1.45,-1.4425,-1.4166,-1.45,0.0,0.0,-1.511,-1.5387,-1.5663,-1.6145,-1.6556,-1.6556,-1.7247,-1.789,0.0,0.0,0.0,0.0,0.0,0.0,0.0,0.0,0.0,-2.3923,-2.4481,-2.497,-2.535,-2.6111,-2.6797,-2.7323,-2.7874,-2.8303,-2.8533,-2.9346,-2.9248,-2.8171,-2.87,-2.87,-2.8131,-2.8131,-2.7839,-2.7279,-2.7279,-2.6707,-2.563,-2.5041,-2.4457,-2.392,-2.3343,-2.343,-2.3887,-2.3299,-2.3091,-2.3091,-2.3091,-2.3091,-2.3091,-0.8449,-0.924,-1.0147,-1.0963,-1.1645,-1.2535,-1.3878,-1.4552,-1.527,-1.635,-1.6859,-1.7107,-1.6986,-1.6971,-1.6642,-1.5775,-1.5607,-1.5228,-1.4456,-1.376,-1.3178,-1.2743,-1.1224,-1.0282,-1.0069,-0.9115,-0.8774,-0.91,-0.91,-0.9365,-0.9905,-1.0006,-1.0847,-1.2291,-1.3027,-1.4168,-1.5613,-1.6358,-1.7275,-1.8229,-1.843,-1.9095,-2.0037,-2.0629,-2.1194,-2.1644,-2.1644,-2.1719,-2.1794,-2.1681,-2.1307,-2.0691,-1.9773,-1.9321,-1.887,-1.7403,-1.6751,-1.63,-1.5449,-1.506,-1.4802,-1.4362,-1.4576,-1.479,0.0,0.0,0.0,0.0,0.0,0.0,0.0,0.0,0.0,0.0,0.0,0.0,0.0,0.0,0.0,0.0,0.0,0.0,0.0,-2.3016,-2.349,-2.3789,-2.4307,-2.4814,-2.5381,-2.6352,-2.6916,-2.7027,-2.8324,-2.8235,-2.6524,-2.7371,-2.7371,-2.6524,-2.6524,-2.6389,-2.6182,-2.6182,-2.5546,-2.4457,-2.4457,-2.3963,-2.3091,-2.3091,-2.3091,-2.3091,-2.3091,-2.3091,-2.3091,-2.3091,-2.3091,-2.3091,-0.9012,-0.9491,-1.0069,-1.0662,-1.1257,-1.2045,-1.3158,-1.4597,-1.5976,-1.7041,-1.6841,-1.6591,-1.657,-1.6557,-1.6511,-1.6397,-1.5964,-1.5628,-1.5537,-1.4557,-1.3959,-1.3909,-1.2759,-1.1635,-1.0632,-1.0018,-0.9516,-0.91,-0.91,-0.9365,-0.9905,-1.0394,-1.0996,-1.1766,-1.3304,-1.4374,-1.5085,-1.6644,-1.7639,-1.8292,-1.9246,-1.9999,0.0,-2.1207,-2.1732,-2.2221,-2.2221,-2.2506,-2.2844,0.0,-2.1845,-2.1408,0.0,-2.0514,-1.9585,-1.8907,-1.7666,-1.6475,-1.6337,-1.5618,-1.489,-1.4808,-1.4846,-1.4871,0.0,0.0,-1.4755,-1.4288,0.0,0.0,0.0,0.0,0.0,0.0,0.0,0.0,-1.4252,0.0,0.0,0.0,0.0,0.0,0.0,0.0,-2.152,-2.2378,-2.2853,-2.3387,-2.3922,-2.4393,-2.5057,-2.5939,-2.6149,-2.6307,-2.6513,-2.6637,-2.6637,-2.6524,-2.6524,-2.5964,-2.4999,-2.4999,-2.4382,-2.3299,-2.3299,-2.3222,-2.3091,-2.3091,-2.3091,-2.3091,-2.3091,-2.3091,-2.3091,-2.3091,-2.3091,-2.3091,-0.9226,-0.978,-1.0545,-1.1123,-1.1949,-1.2902,-1.4011,-1.5298,-1.6448,-1.7256,-1.7166,-1.7137,-1.744,-1.7501,-1.7363,-1.7049,-1.6832,-1.6534,-1.6195,-1.5462,-1.5022,-1.5022,-1.3647,-1.2634,-1.2159,-1.1324,-1.0786,-1.0547,-1.0194,-1.032,-1.0872,-1.0758,-1.1538,-1.3078,-1.3801,-1.4739,-1.5894,-1.6936,-1.789,0.0,0.0,-2.1029,0.0,-2.2347,-2.297,-2.3735,-2.3735,-2.3885,-2.4048,0.0,-2.3615,0.0,0.0,0.0,0.0,-1.9924,-1.8982,-1.8216,-1.7275,-1.6685,-1.6107,-1.5098,0.0,0.0,-1.3961,0.0,-1.3656,0.0,0.0,0.0,0.0,0.0,0.0,0.0,-1.3547,0.0,0.0,0.0,0.0,0.0,0.0,0.0,0.0,0.0,0.0,0.0,0.0,-2.1512,-2.2331,-2.282,-2.3476,-2.4309,-2.5296,-2.5398,-2.4553,-2.5179,-2.5179,-2.452,-2.452,-2.4264,-2.38,-2.38,-2.3551,-2.3091,-2.3091,-2.3091,-2.3091,-2.3091,-2.3091,-2.3091,-2.3091,-2.3091,-2.3091,-2.3091,-2.3091,-2.3091,-0.9906,-1.0282,-1.0946,-1.1688,-1.2588,-1.3629,-1.4921,-1.6045,-1.6911,-1.7348,-1.7674,-1.799,-1.8392,-1.843,-1.8267,-1.7865,-1.7689,-1.7426,-1.6989,-1.6459,-1.6158,-1.6158,-1.4695,-1.3817,-1.3667,-1.2605,-1.1964,-1.1829,-1.1222,-1.1173,-1.159,-1.1297,-1.2128,-1.3871,-1.4173,-1.5135,-1.655,-1.73,-1.8242,-1.9309,-2.0465,-2.1983,-2.3572,-2.3572,-2.4161,-2.4988,-2.4838,-2.4876,-2.5034,-2.5034,-2.4913,0.0,-2.3998,-2.3471,-2.2782,0.0,-2.0401,-1.9748,-1.8405,0.0,0.0,0.0,0.0,0.0,0.0,0.0,0.0,0.0,0.0,0.0,0.0,0.0,0.0,0.0,0.0,0.0,0.0,0.0,0.0,0.0,0.0,0.0,0.0,0.0,0.0,0.0,0.0,0.0,-2.0772,-2.1284,-2.1907,-2.2694,-2.4049,-2.4157,-2.2959,-2.3859,-2.392,-2.3091,-2.3091,-2.3091,-2.3091,-2.3091,-2.3091,-2.3091,-2.3091,-2.3091,-2.3091,-2.3091,-2.3091,-2.3091,-2.3091,-2.3091,-2.3091,-2.3091,-2.3091,-2.3091,-1.1414,-1.1071,-1.1044,-1.2174,-1.2839,-1.3767,-1.5417,-1.6635,-1.7385,-1.741,-1.8304,-1.8958,-1.897,-1.897,-1.897,-1.8958,-1.8456,-1.8179,-1.8154,-1.7639,-1.736,-1.736,-1.6254,-1.5387,-1.4865,-1.3729,-1.2885,-1.2363,-1.1826,-1.159,-1.1615,-1.2115,-1.2663,-1.3273,-1.4375,-1.5487,-1.6575,-1.7702,-1.8794,-1.9874,-2.1004,-2.2786,-2.4738,0.0,-2.5109,-2.5498,-2.5008,0.0,0.0,-2.5573,-2.5234,0.0,0.0,0.0,0.0,0.0,0.0,0.0,0.0,0.0,0.0,-1.6774,0.0,0.0,0.0,0.0,-1.3453,0.0,0.0,0.0,0.0,0.0,0.0,0.0,0.0,0.0,0.0,0.0,0.0,0.0,0.0,0.0,0.0,0.0,0.0,0.0,0.0,0.0,-1.933,-1.9744,-2.038,-2.1221,-2.1752,-2.2183,-2.2529,-2.293,-2.3135,-2.3091,-2.3091,-2.3091,-2.3091,-2.3091,-2.3091,-2.3091,-2.3091,-2.3091,-2.3091,-2.3091,-2.3091,-2.3091,-2.3091,-2.3091,-2.3091,-2.3091,-2.3091,-2.3091,-1.209,-1.1977,-1.1949,-1.2325,-1.3471,-1.4751,-1.6024,-1.6886,-1.7536,-1.7877,-1.8544,-1.9284,-2.0037,-2.0138,-2.0138,-2.0138,-1.9962,-1.9522,-1.877,-1.8556,-1.8141,-1.7436,-1.6647,-1.5982,-1.5449,-1.4689,-1.4067,-1.3531,-1.2944,-1.2663,-1.2663,-1.2475,-1.3094,-1.4337,-1.4733,-1.5713,-1.7137,-1.789,-1.9045,0.0,0.0,-2.4582,-2.5862,0.0,0.0,-2.6691,-2.6515,-2.6804,0.0,-2.6829,-2.659,-2.6352,-2.5774,-2.5209,-2.4556,-2.3434,-2.2706,0.0,0.0,0.0,-1.9207,-1.7846,0.0,0.0,0.0,0.0,0.0,0.0,0.0,0.0,0.0,0.0,0.0,0.0,0.0,0.0,0.0,0.0,0.0,0.0,0.0,0.0,0.0,0.0,0.0,0.0,0.0,0.0,0.0,-1.9121,-1.9893,-2.0762,-2.1504,-2.209,-2.251,-2.2886,-2.3091,-2.3091,-2.3091,-2.3091,-2.3091,-2.3091,-2.3091,-2.3091,-2.3091,-2.3091,-2.3091,-2.3091,-2.3091,-2.3091,-2.3091,-2.3091,-2.3091,-2.3091,-2.3091,-2.3091,-1.2651,-1.2689,-1.2751,-1.2956,-1.4217,-1.5563,-1.666,-1.73,-1.794,-1.8681,-1.9409,-2.025,-2.1182,-2.1282,-2.1282,-2.1282,-2.1094,-2.074,-2.0211,-1.9823,-1.9296,-1.8605,-1.7815,-1.7061,-1.6308,-1.5764,-1.5211,-1.4676,-1.3903,-1.3622,-1.3779,-1.3257,-1.379,-1.5185,-1.5185,-1.6116,-1.7714,-1.8267,-1.9447,0.0,0.0,-2.5473,0.0,0.0,-2.6779,-2.757,0.0,-2.7808,-2.8047,-2.7695,-2.757,-2.7406,-2.649,-2.6063,-2.5649,-2.4381,-2.3847,-2.3384,-2.1945,-2.1267,0.0,-1.8712,-1.7496,0.0,-1.4982,0.0,-1.3311,0.0,0.0,0.0,0.0,0.0,0.0,0.0,0.0,0.0,0.0,0.0,0.0,0.0,0.0,0.0,0.0,0.0,0.0,0.0,0.0,0.0,0.0,0.0,-1.9443,-2.0303,-2.1191,-2.1855,-2.2285,-2.2705,-2.2945,-2.3091,-2.3091,-2.3091,-2.3091,-2.3091,-2.3091,-2.3091,-2.3091,-2.3091,-2.3091,-2.3091,-2.3091,-2.3091,-2.3091,-2.3091,-2.3091,-2.3091,-2.3091,-2.3091,-1.3173,-1.3298,-1.3504,-1.4072,-1.5009,-1.607,-1.7234,-1.7877,-1.8618,-1.966,-2.079,-2.1707,-2.2284,-2.2347,-2.2343,-2.2435,-2.1958,-2.1857,-2.2322,-2.1368,0.0,0.0,-1.9635,-1.8555,-1.7511,-1.6873,-1.6283,-1.5731,-1.4689,-1.4425,-1.4884,-1.4374,-1.4702,-1.5693,-1.5693,-1.6635,-1.8242,-1.877,-2.0024,-2.1807,-2.3979,-2.5536,-2.6637,-2.7165,-2.7682,-2.8185,-2.816,-2.816,-2.8185,-2.816,-2.8147,-2.8047,-2.7494,-2.6967,-2.638,-2.5812,-2.5219,-2.4484,-2.3392,-2.3037,-2.2297,-1.9333,0.0,0.0,0.0,0.0,-1.3477,0.0,0.0,0.0,0.0,0.0,0.0,0.0,0.0,0.0,0.0,0.0,0.0,0.0,0.0,0.0,0.0,0.0,0.0,0.0,0.0,0.0,0.0,0.0,-1.8958,-1.9853,-2.0703,-2.1426,-2.1885,-2.2305,-2.2682,-2.3091,-2.3091,-2.3091,-2.3091,-2.3091,-2.3091,-2.3091,-2.3091,-2.3091,-2.3091,-2.3091,-2.3091,-2.3091,-2.3091,-2.3091,-2.3091,-2.3091,-2.3091,-2.3091,-1.4444,-1.4777,-1.5103,-1.5261,-1.5525,-1.607,-1.7234,-1.8191,-1.9033,-1.971,-2.079,-2.1857,-2.2794,-2.2895,-2.3233,-2.4073,-2.401,0.0,0.0,0.0,0.0,-2.0742,-1.9987,-1.9296,-1.8594,-1.7652,-1.6873,-1.6287,-1.5618,-1.516,-1.4896,-1.4765,-1.5047,-1.5693,-1.5693,-1.6635,-1.8242,-1.877,-2.0675,-2.3477,-2.4845,-2.6314,0.0,0.0,-2.8511,-2.9302,-2.8875,-2.8988,-2.9302,-2.8863,-2.8675,-2.8587,-2.8059,-2.7237,-2.6481,-2.6308,-2.5045,-2.3629,-2.3337,-2.2418,-2.1284,-2.0198,-1.9095,-1.8024,0.0,0.0,0.0,0.0,0.0,0.0,0.0,0.0,0.0,0.0,0.0,0.0,0.0,0.0,0.0,0.0,0.0,0.0,0.0,0.0,0.0,0.0,0.0,0.0,0.0,0.0,0.0,-1.9424,-2.0283,-2.1103,-2.1875,-2.2305,-2.2682,-2.3091,-2.3091,-2.3091,-2.3091,-2.3091,-2.3091,-2.3091,-2.3091,-2.3091,-2.3091,-2.3091,-2.3091,-2.3091,-2.3091,-2.3091,-2.3091,-2.3091,-2.3091,-2.3091,-1.4896,-1.5517,-1.6132,-1.6405,-1.6835,-1.7363,-1.8003,-1.8819,-1.9798,-2.1091,-2.1791,-2.2636,-2.3722,-2.3835,-2.4098,-2.4725,-2.4788,0.0,-2.4211,0.0,0.0,-2.22,-2.1568,-2.0638,-1.9371,-1.8756,0.0,-1.6898,-1.6333,-1.5894,-1.558,-1.5361,-1.555,-1.607,-1.6321,-1.7225,-1.8644,-2.0149,-2.2167,-2.4456,-2.5536,-2.6829,0.0,-2.8373,-2.9013,-2.9754,-2.9428,-2.9515,-2.9741,-2.9415,-2.9302,-2.9202,-2.8649,-2.7715,-2.6816,-2.6566,-2.5292,-2.3854,-2.3417,-2.2682,-2.1781,-2.0759,-1.9807,-1.883,-1.7786,-1.6735,-1.5811,0.0,0.0,0.0,0.0,0.0,0.0,0.0,0.0,0.0,0.0,0.0,0.0,0.0,0.0,0.0,0.0,0.0,0.0,0.0,0.0,0.0,0.0,0.0,0.0,-1.9248,-1.9932,-2.0791,-2.1875,-2.2119,-2.2539,-2.3091,-2.3091,-2.3091,-2.3091,-2.3091,-2.3091,-2.3091,-2.3091,-2.3091,-2.3091,-2.3091,-2.3091,-2.3091,-2.3091,-2.3091,-2.3091,-2.3091,-2.3091,-2.3091,-1.5324,-1.6007,-1.6801,-1.7501,-1.837,-1.9071,-1.9371,-1.9823,0.0,-2.2844,0.0,-2.3735,-2.4775,-2.4996,-2.5059,-2.5134,-2.5176,-2.5385,-2.5686,-2.5285,-2.4757,-2.413,-2.3446,-2.2192,-2.0275,-2.0024,-1.9183,0.0,-1.7023,-1.6644,-1.6557,-1.6,-1.5982,-1.6451,-1.6979,-1.7953,-1.9357,-2.2076,-2.3835,-2.488,-2.5968,-2.6921,-2.7829,-2.8312,-2.8844,-2.9378,-2.9378,-2.9546,-2.9792,-2.9792,-2.9702,-2.9498,-2.8948,-2.7946,-2.687,-2.6506,-2.5495,-2.4336,-2.3528,-2.3211,-2.2696,-2.101,-2.0301,-1.9678,-1.8454,-1.7486,-1.6648,-1.5918,-1.5322,-1.4814,0.0,0.0,0.0,0.0,0.0,0.0,0.0,0.0,0.0,0.0,0.0,0.0,0.0,0.0,0.0,0.0,0.0,0.0,0.0,0.0,0.0,-1.9228,-1.9639,0.0,-2.1875,0.0,-2.2305,-2.3091,-2.3091,-2.3091,-2.3091,-2.3091,-2.3091,-2.3091,-2.3091,-2.3091,-2.3091,-2.3091,-2.3091,-2.3091,-2.3091,-2.3091,-2.3091,-2.3091,-2.3091,-2.3091,-1.7626,-1.7285,-1.7364,-1.8509,-1.8754,-1.9412,-2.1406,-2.1791,-2.2142,-2.2995,-2.391,-2.4738,-2.5385,-2.5887,-2.6386,-2.6804,-2.7268,0.0,0.0,0.0,0.0,-2.4687,-2.3659,-2.292,-2.2531,-2.1204,-2.0163,0.0,0.0,-1.7434,-1.6979,-1.6283,-1.599,-1.6081,-1.6196,-1.7708,-2.0306,-2.2797,0.0,-2.4849,-2.5493,-2.5866,-2.6035,-2.6154,-2.656,-2.7098,-2.7098,-2.8251,-2.9792,-2.9792,-2.9197,-2.8374,-2.8266,-2.6845,-2.5319,-2.5652,-2.4399,-2.2957,-2.3238,-2.2713,-2.191,-2.0857,-2.0541,-2.0236,-1.9275,-1.8398,-1.7744,-1.7588,-1.6641,-1.5733,-1.5264,0.0,0.0,0.0,0.0,0.0,0.0,0.0,0.0,0.0,0.0,0.0,0.0,0.0,0.0,0.0,0.0,0.0,0.0,0.0,0.0,0.0,-1.9365,0.0,0.0,0.0,-2.2305,-2.3091,-2.3091,-2.3091,-2.3091,-2.3091,-2.3091,-2.3091,-2.3091,-2.3091,-2.3091,-2.3091,-2.3091,-2.3091,-2.3091,-2.3091,-2.3091,-2.3091,-2.3091,-2.3091,-1.8607,-1.8809,-1.9165,-1.9772,-2.0479,-2.1383,0.0,-2.3464,-2.4104,-2.4368,-2.5146,-2.5875,-2.6414,-2.6979,-2.7419,-2.7682,-2.7946,-2.7883,-2.7344,-2.7318,-2.6851,-2.5724,-2.5159,-2.4456,-2.3602,-2.251,-2.1531,-2.0677,0.0,-1.8047,-1.7499,-1.648,-1.5989,-1.6033,-1.7041,-1.8582,0.0,0.0,0.0,-2.4093,-2.4946,-2.5422,-2.5623,-2.5931,-2.6259,-2.6524,-2.6524,-2.718,-2.8091,-2.8091,-2.7706,-2.7279,-2.7279,-2.6119,-2.4872,-2.5099,-2.4062,-2.282,-2.2862,-2.2554,-2.206,-2.1447,-2.129,-2.1065,-2.0184,-1.9666,-1.915,-1.8442,-1.7656,-1.6797,-1.5938,-1.541,0.0,0.0,0.0,0.0,0.0,0.0,0.0,0.0,0.0,0.0,0.0,0.0,0.0,0.0,0.0,0.0,0.0,0.0,0.0,0.0,0.0,0.0,0.0,0.0,0.0,-2.3091,-2.3091,-2.3091,-2.3091,-2.3091,-2.3091,-2.3091,-2.3091,-2.3091,-2.3091,-2.3091,-2.3091,-2.3091,-2.3091,-2.3091,-2.3091,-2.3091,-2.3091,-2.3091,-1.9672,-2.0307,-2.0914,-2.133,-2.2318,-2.3243,-2.3747,-2.4946,-2.5774,-2.5774,-2.6311,-2.6876,-2.7394,-2.7946,-2.8285,-2.8285,-2.8398,-2.8411,-2.8285,-2.8285,-2.7846,-2.6889,-2.6612,-2.5782,-2.4243,-2.3517,-2.2554,0.0,0.0,0.0,0.0,-1.6508,-1.6197,0.0,0.0,0.0,0.0,0.0,-2.3013,-2.3409,-2.4404,-2.4894,-2.5109,-2.5583,-2.5766,-2.5766,-2.5766,-2.5766,-2.5766,-2.5766,-2.5933,-2.6141,-2.6141,-2.5347,-2.4414,-2.4414,-2.38,-2.3023,-2.2691,-2.2646,-2.2549,-2.2129,-2.2021,-2.1816,-2.1065,-2.0811,-2.0391,-1.9277,-1.8564,-1.7803,-1.6711,-1.6427,0.0,0.0,0.0,0.0,0.0,0.0,0.0,0.0,0.0,0.0,0.0,0.0,0.0,0.0,0.0,0.0,0.0,0.0,0.0,0.0,0.0,-2.0078,-2.1738,0.0,-2.2305,0.0,-2.3091,-2.3091,-2.3091,-2.3091,-2.3091,-2.3091,-2.3091,-2.3091,-2.3091,-2.3091,-2.3091,-2.3091,-2.3091,-2.3091,-2.3091,-2.3091,-2.3091,-2.3091,-2.1907,-2.1538,-2.168,-2.3379,-2.3268,-2.3652,-2.5845,-2.6311,-2.6411,-2.6411,-2.6901,-2.7419,-2.7971,-2.8511,-2.8813,-2.8813,-2.9327,-2.9415,-2.885,-2.8813,-2.8549,-2.7971,-2.7027,-2.5985,-2.4931,-2.3825,-2.2544,0.0,0.0,-1.7926,0.0,-1.6274,-1.6847,0.0,0.0,0.0,0.0,-2.2542,-2.3259,-2.3358,-2.3864,-2.377,-2.3327,-2.342,-2.343,-2.343,-2.343,-2.343,-2.343,-2.343,-2.4092,-2.4957,-2.4957,-2.4168,-2.3266,-2.3266,-2.3178,-2.3081,-2.3052,-2.3033,-2.2935,-2.2559,-2.2451,-2.2334,-2.1865,-2.1455,-2.0976,-2.0488,-1.9424,-1.8393,-1.792,-1.7519,-1.7005,0.0,0.0,0.0,0.0,0.0,0.0,0.0,0.0,0.0,0.0,0.0,0.0,0.0,0.0,0.0,0.0,0.0,0.0,-1.8607,0.0,-1.9932,-2.1239,-2.1689,-2.2305,-2.3091,-2.3091,-2.3091,-2.3091,-2.3091,-2.3091,-2.3091,-2.3091,-2.3091,-2.3091,-2.3091,-2.3091,-2.3091,-2.3091,-2.3091,-2.3091,-2.3091,-2.3091,-2.3091,-2.3288,-2.3331,0.0,0.0,0.0,0.0,0.0,-2.7052,-2.757,-2.7896,-2.8134,-2.8348,-2.8574,-2.9101,-2.9453,-2.9453,-2.9666,-2.9691,-2.9465,-2.8813,-2.8195,-2.7623,-2.656,-2.5628,-2.4902,-2.3824,-2.2997,0.0,0.0,0.0,0.0,-1.7656,0.0,0.0,0.0,-1.9807,-2.0757,-2.1632,-2.234,-2.2863,-2.3002,-2.3097,-2.3091,-2.3091,-2.3091,-2.3091,-2.3091,-2.3091,-2.3091,-2.3091,-2.3387,-2.38,-2.38,-2.3464,-2.3091,-2.3091,-2.3091,-2.3091,-2.3091,-2.3091,-2.3052,-2.2886,-2.2847,-2.274,-2.2353,-2.2129,-2.1875,-2.1445,-2.0527,-1.9668,-1.9228,-1.8809,-1.8242,0.0,0.0,0.0,0.0,0.0,0.0,0.0,0.0,0.0,0.0,0.0,0.0,0.0,0.0,0.0,0.0,0.0,0.0,-1.8559,0.0,-2.0039,-2.1611,-2.1797,-2.2305,-2.3091,-2.3091,-2.3091,-2.3091,-2.3091,-2.3091,-2.3091,-2.3091,-2.3091,-2.3091,-2.3091,-2.3091,-2.3091,-2.3091,-2.3091,-2.3091,-2.3091,-2.3091,-2.3091,-2.4682,0.0,-2.5598,0.0,-2.6427,-2.7027,-2.719,-2.7846,-2.8549,-2.9076,-2.8885,-2.8809,-2.9139,-2.9258,-2.9456,-2.9753,-2.9209,-2.8961,-2.9287,-2.8227,-2.7439,-2.7088,-2.6109,0.0,-2.4653,-2.3755,-2.3151,-2.2895,-2.1016,0.0,0.0,-1.8091,-1.8159,0.0,-1.9668,-2.0273,-2.1026,-2.1426,-2.1921,-2.2519,-2.2646,-2.2838,-2.3091,-2.3091,-2.3091,-2.3091,-2.3091,-2.3091,-2.3091,-2.3091,-2.3091,-2.3091,-2.3091,-2.3091,-2.3091,-2.3091,-2.3091,-2.3091,-2.3091,-2.3091,-2.3091,-2.3091,-2.3091,-2.3013,-2.2721,-2.2695,-2.2578,-2.2158,-2.1475,-2.082,-2.0205,-1.9863,-1.9385,-1.8525,0.0,0.0,0.0,0.0,0.0,0.0,-1.5947,-1.5654,0.0,0.0,0.0,0.0,0.0,0.0,0.0,0.0,0.0,0.0,0.0,0.0,0.0,-2.1816,-2.2305,-2.3091,-2.3091,-2.2906,-2.2589,-2.2589,-2.2765,-2.3091,-2.3091,-2.3091,-2.3091,-2.3091,-2.3091,-2.3091,-2.3091,-2.3091,-2.3047,-2.2677,-2.2589,-2.2589,-2.6348,-2.6901,-2.7419,-2.7971,-2.8084,-2.8273,-2.8775,-2.8875,-2.9126,-2.9704,-2.8806,-2.8545,-2.9663,-2.8806,-2.8557,-2.9702,-2.7799,-2.7005,-2.8056,-2.7128,-2.6513,0.0,0.0,-2.5157,-2.4229,-2.3592,-2.2859,-2.1906,0.0,0.0,-1.7425,-1.6953,-1.8105,-2.0605,-2.1016,-2.1455,-2.1894,-2.2314,-2.25,-2.2549,-2.2916,-2.3091,-2.3091,-2.3091,-2.3091,-2.3091,-2.3091,-2.3091,-2.3091,-2.3091,-2.3091,-2.3091,-2.3091,-2.3091,-2.3091,-2.3091,-2.3091,-2.3091,-2.3091,-2.3091,-2.3091,-2.3091,-2.3091,-2.3091,-2.3091,-2.3091,-2.2974,-2.2598,-2.2168,-2.1602,-2.0762,-2.0595,-2.0312,-1.9451,0.0,0.0,0.0,0.0,0.0,0.0,-1.6623,-1.6261,-1.6648,0.0,0.0,0.0,0.0,0.0,0.0,0.0,0.0,-1.8568,-1.9426,0.0,-2.119,-2.167,-2.2305,-2.3091,-2.3091,-2.2492,-2.1337,-2.1337,-2.1987,-2.3091,-2.3091,-2.3091,-2.3091,-2.3091,-2.3091,-2.3091,-2.3091,-2.3091,-2.296,-2.1756,-2.1337,-2.1337,-2.7544,-2.772,-2.7896,-2.8072,-2.7816,-2.7593,-2.7775,-2.7514,-2.7318,-2.7533,-2.7209,-2.7128,-2.7504,-2.7221,-2.7168,0.0,-2.6894,-2.6637,0.0,-2.5964,-2.5336,-2.5336,-2.4407,-2.376,-2.347,-2.2998,-2.2621,-2.2314,0.0,0.0,0.0,-2.0312,-2.0684,-2.1475,-2.1621,-2.1914,-2.2324,-2.2461,-2.2676,-2.2906,-2.3042,-2.3091,-2.3091,-2.3091,-2.3091,-2.3091,-2.3091,-2.3091,-2.3091,-2.3091,-2.3091,-2.3091,-2.3091,-2.3091,-2.3091,-2.3091,-2.3091,-2.3091,-2.3091,-2.3091,-2.3091,-2.3091,-2.3091,-2.3091,-2.3091,-2.3091,-2.3052,-2.2925,-2.2607,-2.2227,-2.1943,-2.166,-2.1222,-2.0341,-2.0077,0.0,0.0,0.0,0.0,0.0,-1.8437,-1.832,0.0,-1.8076,0.0,0.0,0.0,0.0,0.0,0.0,0.0,0.0,-1.9912,0.0,-2.167,-2.21,-2.2598,-2.3091,-2.2262,-2.1257,-2.0079,-2.0079,-2.0711,-2.1845,-2.1845,-2.235,-2.3091,-2.3091,-2.3091,-2.3091,-2.3091,-2.3091,-2.3047,-2.2677,-2.2031,-2.1293,-2.7891,-2.7938,-2.796,-2.7579,-2.7199,-2.7016,-2.7016,-2.6718,-2.6524,-2.6524,-2.6141,-2.5839,-2.5839,-2.5473,0.0,-2.6442,-2.5724,-2.5389,-2.5839,-2.4798,-2.4168,-2.4168,-2.3464,-2.3091,-2.3091,-2.2838,0.0,-2.2744,-2.2324,-2.2041,-2.1894,-2.2041,-2.2119,-2.2129,-2.2285,-2.25,-2.2744,-2.2744,-2.2857,-2.3091,-2.3091,-2.3091,-2.3091,-2.3091,-2.3091,-2.3091,-2.3091,-2.3091,-2.3091,-2.3091,-2.3091,-2.3091,-2.3091,-2.3091,-2.3091,-2.3091,-2.3091,-2.3091,-2.3091,-2.3091,-2.3091,-2.3091,-2.3091,-2.3091,-2.3091,-2.3091,-2.3091,-2.3091,-2.2886,-2.2705,-2.2539,-2.2295,-2.1894,-2.1222,-2.1104,-2.0918,-2.0342,0.0,-1.9803,0.0,0.0,0.0,0.0,-1.9043,0.0,0.0,0.0,0.0,0.0,0.0,0.0,-1.9746,-2.0042,0.0,-2.1451,-2.1228,-2.1326,-2.173,-2.0539,-1.9807,-1.9497,-1.9039,-1.9497,-2.0621,-2.0621,-2.1033,-2.1774,-2.1774,-2.1774,-2.1774,-2.2262,-2.2129,-2.1774,-2.1774,-2.0989,-1.9943,-2.7565,-2.7723,-2.7683,0.0,-2.6431,0.0,-2.6389,-2.6307,-2.6265,-2.6265,-2.5336,-2.466,-2.466,-2.3757,-2.393,-2.6058,0.0,0.0,0.0,-2.3671,-2.3091,-2.3091,-2.3091,-2.3091,-2.3091,-2.3091,-2.3091,-2.3091,-2.2744,-2.2353,-2.1982,-2.2373,-2.2559,-2.2578,-2.2916,-2.3091,-2.3091,-2.3091,-2.3091,-2.3091,-2.3091,-2.3091,-2.3091,-2.3091,-2.3091,-2.3091,-2.3091,-2.3091,-2.3091,-2.3091,-2.3091,-2.3091,-2.3091,-2.3091,-2.3091,-2.3091,-2.3091,-2.3091,-2.3091,-2.3091,-2.3091,-2.3091,-2.3091,-2.3091,-2.3091,-2.3091,-2.3091,-2.3091,-2.3091,-2.2974,-2.2627,-2.2559,-2.2412,-2.2002,-2.1934,-2.1924,-2.1894,-2.1212,-2.0654,0.0,0.0,0.0,0.0,-1.9306,-1.9259,0.0,0.0,0.0,0.0,0.0,-1.851,-2.0508,-1.9791,-1.9757,-2.0576,-1.9419,-1.9024,-1.936,-1.8234,-1.8234,-1.9222,-1.8095,-1.8226,-1.936,-1.936,-1.9405,-1.9497,-1.9497,-1.9497,-1.9625,-2.0755,-2.0486,-1.9497,-1.9497,-1.8726,-1.7692,0.0,0.0,-2.6801,-2.6565,-2.5766,-2.521,-2.521,-2.4467,-2.3887,-2.3887,-2.3681,-2.3507,-2.3507,-2.3266,-2.3299,-2.3854,-2.343,-2.3222,-2.3464,-2.3256,-2.3091,-2.3091,-2.3091,-2.3091,-2.3091,-2.3091,-2.3091,-2.3091,-2.2994,-2.2896,-2.2799,-2.2896,-2.2945,-2.2955,-2.3052,-2.3091,-2.3091,-2.3091,-2.3091,-2.3091,-2.3091,-2.3091,-2.3091,-2.3091,-2.3091,-2.3091,-2.3091,-2.3091,-2.3091,-2.3091,-2.3091,-2.3091,-2.3091,-2.3091,-2.3091,-2.3091,-2.3091,-2.3091,-2.3091,-2.3091,-2.3091,-2.3091,-2.3091,-2.3091,-2.3091,-2.3091,-2.3091,-2.3091,-2.3091,-2.3062,-2.2964,-2.2945,-2.2808,-2.2432,-2.2363,-2.2246,-2.1934,-2.1709,-2.1226,0.0,-2.0831,-2.0554,-1.8654,-1.9274,-1.9018,0.0,0.0,0.0,0.0,-1.6957,-1.7885,-2.0081,-1.9367,-1.9085,-1.9314,-1.9322,-1.8913,-1.8141,-1.7824,-1.7358,-1.6655,-1.6386,-1.6943,-1.8141,-1.8141,-1.8642,-1.9497,-1.9497,-1.9497,-1.9542,-1.9807,-1.9761,-1.9497,-1.9497,-1.8726,-1.7721,-2.6808,-2.6119,-2.5557,-2.502,-2.4425,-2.4006,-2.4006,-2.3507,-2.3091,-2.3091,-2.3091,-2.3091,-2.3091,-2.3091,-2.3091,-2.3091,-2.3091,-2.3091,-2.3091,-2.3091,-2.3091,-2.3091,-2.3091,-2.3091,-2.3091,-2.3091,-2.3091,-2.3091,-2.3091,-2.3091,-2.3091,-2.3091,-2.3091,-2.3091,-2.3091,-2.3091,-2.3091,-2.3091,-2.3091,-2.3091,-2.3091,-2.3091,-2.3091,-2.3091,-2.3091,-2.3091,-2.3091,-2.3091,-2.3091,-2.3091,-2.3091,-2.3091,-2.3091,-2.3091,-2.3091,-2.3091,-2.3091,-2.3091,-2.3091,-2.3091,-2.3091,-2.3091,-2.3091,-2.3091,-2.3091,-2.3091,-2.3091,-2.3091,-2.3091,-2.3091,-2.3091,-2.3091,-2.3023,-2.2789,-2.275,-2.2715,-2.249,-2.2295,-2.1906,-2.1226,-2.1067,-2.0484,-1.9144,-1.9136,-1.8581,-1.7153,0.0,0.0,-1.7321,-1.6499,-1.7122,-1.9445,-1.8491,-1.8094,-1.8358,-1.7988,-1.7483,-1.681,-1.681,-1.648,-1.5784,-1.5784,-1.6204,-1.681,-1.681,-1.721,-1.7801,-1.7801,-1.7801,-1.7894,-1.8449,-1.8311,-1.7894,-1.8449,-1.8008,-1.7092,-2.5199,-2.466,-2.4253,-2.3256,-2.3091,-2.3091,-2.3091,-2.3091,-2.3091,-2.3091,-2.3091,-2.3091,-2.3091,-2.3091,-2.3091,-2.3091,-2.3091,-2.3091,-2.3091,-2.3091,-2.3091,-2.3091,-2.3091,-2.3091,-2.3091,-2.3091,-2.3091,-2.3091,-2.3091,-2.3091,-2.3091,-2.3091,-2.3091,-2.3091,-2.3091,-2.3091,-2.3091,-2.3091,-2.3091,-2.3091,-2.3091,-2.3091,-2.3091,-2.3091,-2.3091,-2.3091,-2.3091,-2.3091,-2.3091,-2.3091,-2.3091,-2.3091,-2.3091,-2.3091,-2.3091,-2.3091,-2.3091,-2.3091,-2.3091,-2.3091,-2.3091,-2.3091,-2.3091,-2.3091,-2.3091,-2.3091,-2.3091,-2.3091,-2.3091,-2.3091,-2.3091,-2.3091,-2.3091,-2.3091,-2.3091,-2.3091,-2.3091,0.0,-2.2246,-2.2074,-2.0775,-1.978,-1.9385,-1.8615,-1.8057,-1.7838,-1.7009,-1.7033,0.0,-1.649,-1.6359,-1.8372,-1.7372,-1.7018,-1.7404,-1.6339,-1.5784,-1.5784,-1.5784,-1.5784,-1.5784,-1.5784,-1.5784,-1.5784,-1.5784,-1.5784,-1.5784,-1.5784,-1.5784,-1.592,-1.699,-1.6763,-1.5927,-1.7048,-1.6996,-1.6335,-2.5041,-2.4006,-2.3299,-2.3135,-2.3091,-2.3091,-2.3091,-2.3091,-2.3091,-2.3091,-2.3091,-2.3091,-2.3091,-2.3091,-2.3091,-2.3091,-2.3091,-2.3091,-2.3091,-2.3091,-2.3091,-2.3091,-2.3091,-2.3091,-2.3091,-2.3091,-2.3091,-2.3091,-2.3091,-2.3091,-2.3091,-2.3091,-2.3091,-2.3091,-2.3091,-2.3091,-2.3091,-2.3091,-2.3091,-2.3091,-2.3091,-2.3091,-2.3091,-2.3091,-2.3091,-2.3091,-2.3091,-2.3091,-2.3091,-2.3091,-2.3091,-2.3091,-2.3091,-2.3091,-2.3091,-2.3091,-2.3091,-2.3091,-2.3091,-2.3091,-2.3091,-2.3091,-2.3091,-2.3091,-2.3091,-2.3091,-2.3091,-2.3091,-2.3091,-2.3091,-2.3091,-2.3091,-2.3091,-2.3091,-2.3091,-2.3091,-2.3091,0.0,-2.1123,-2.0084,-1.9726,-1.8734,-1.6646,-1.725,-1.735,-1.6241,-1.6013,-1.6027,-1.6256,-1.594,-1.59,-1.6263,-1.6082,-1.6008,-1.6103,-1.592,-1.5784,-1.5784,-1.5784,-1.5784,-1.5784,-1.5784,-1.5784,-1.5784,-1.5784,-1.5784,-1.5784,-1.5784,-1.5784,-1.5825,-1.6015,-1.5967,-1.5858,-1.6347,-1.6427,-1.6388,-2.4135,-2.3474,-2.3091,-2.3091,-2.3091,-2.3091,-2.3091,-2.3091,-2.3091,-2.3091,-2.3091,-2.3091,-2.3091,-2.3091,-2.3091,-2.3091,-2.3091,-2.3091,-2.3091,-2.3091,-2.3091,-2.3091,-2.3091,-2.3091,-2.3091,-2.3091,-2.3091,-2.3091,-2.3091,-2.3091,-2.3091,-2.3091,-2.3091,-2.3091,-2.3091,-2.3091,-2.3091,-2.3091,-2.3091,-2.3091,-2.3091,-2.3091,-2.3091,-2.3091,-2.3091,-2.3091,-2.3091,-2.3091,-2.3091,-2.3091,-2.3091,-2.3091,-2.3091,-2.3091,-2.3091,-2.3091,-2.3091,-2.3091,-2.3091,-2.3091,-2.3091,-2.3091,-2.3091,-2.3091,-2.3091,-2.3091,-2.3091,-2.3091,-2.3091,-2.3091,-2.3091,-2.3091,-2.3091,-2.3091,-2.3091,-2.3091,-2.3091,-2.2076,-2.1114,-2.0531,-1.9314,-1.8087,-1.6943,-1.6716,-1.6433,-1.5825,-1.5784,-1.5784,-1.5784,-1.5784,-1.5784,-1.5784,-1.5784,-1.5784,-1.5784,-1.5784,-1.5784,-1.5784,-1.5784,-1.5784,-1.5784,-1.5784,-1.5784,-1.5784,-1.5784,-1.5784,-1.5784,-1.5784,-1.5784,-1.5784,-1.5784,-1.5925,-1.6086,-1.6219,-1.6522,-1.6837,-2.3299,-2.3091,-2.3091,-2.3091,-2.3091,-2.3091,-2.3091,-2.3091,-2.3091,-2.3091,-2.3091,-2.3091,-2.3091,-2.3091,-2.3091,-2.3091,-2.3091,-2.3091,-2.3091,-2.3091,-2.3091,-2.3091,-2.3091,-2.3091,-2.3091,-2.3091,-2.3091,-2.3091,-2.3091,-2.3091,-2.3091,-2.3091,-2.3091,-2.3091,-2.3091,-2.3091,-2.3091,-2.3091,-2.3091,-2.3091,-2.3091,-2.3091,-2.3091,-2.3091,-2.3091,-2.3091,-2.3091,-2.3091,-2.3091,-2.3091,-2.3091,-2.3091,-2.3091,-2.3091,-2.3091,-2.3091,-2.3091,-2.3091,-2.3091,-2.3091,-2.3091,-2.3091,-2.3091,-2.3091,-2.3091,-2.3091,-2.3091,-2.3091,-2.3091,-2.3091,-2.3091,-2.3091,-2.3091,-2.3091,0.0,-2.3091,-2.3091,-2.181,-2.089,-2.089,-1.8718,-1.7271,-1.7271,-1.6386,-1.5784,-1.5784,-1.5784,-1.5784,-1.5784,-1.5784,-1.5784,-1.5784,-1.5784,-1.5784,-1.5784,-1.5784,-1.5784,-1.5784,-1.5784,-1.5784,-1.5784,-1.5784,-1.5784,-1.5784,-1.5784,-1.5784,-1.5784,-1.5784,-1.5784,-1.5791,-1.5905,-1.6072,-1.6342,-1.6476,-1.6811,-1.7213,-2.3299,-2.3091,-2.3091,-2.3091,-2.3091,-2.3091,-2.3091,-2.3091,-2.3091,-2.3091,-2.3091,-2.3091,-2.3091,-2.3091,-2.3091,-2.3091,-2.3091,-2.3091,-2.3091,-2.3091,-2.3091,-2.3091,-2.3091,-2.3091,-2.3091,-2.3091,-2.3091,-2.3091,-2.3091,-2.3091,-2.3091,-2.3091,-2.3091,-2.3091,-2.3091,-2.3091,-2.3091,-2.3091,-2.3091,-2.3091,-2.3091,-2.3091,-2.3091,-2.3091,-2.3091,-2.3091,-2.3091,-2.3091,-2.3091,-2.3091,-2.3091,-2.3091,-2.3091,-2.3091,-2.3091,-2.3091,-2.3091,-2.3091,-2.3091,-2.3091,-2.3091,-2.3091,-2.3091,-2.3091,-2.3091,-2.3091,-2.3091,-2.3091,-2.3091,-2.3091,-2.3091,-2.3091,-2.3091,-2.3091,0.0,0.0,-2.3091,-2.1087,-1.9625,-1.9625,-1.7436,-1.592,-1.592,-1.5879,-1.5784,-1.5784,-1.5784,-1.5784,-1.5784,-1.5784,-1.5784,-1.5784,-1.5784,-1.5784,-1.5784,-1.5784,-1.5784,-1.5784,-1.5784,-1.5784,-1.5784,-1.5784,-1.5784,-1.5784,-1.5784,-1.5784,-1.5784,-1.5784,-1.5784,-1.5804,-1.6132,-1.6301,-1.6388,-1.6931,-1.7166,-1.7239,-2.3178,-2.3091,-2.3091,-2.3091,-2.3091,-2.3091,-2.3091,-2.3091,-2.3091,-2.3091,-2.3091,-2.3091,-2.3091,-2.3091,-2.3091,-2.3091,-2.3091,-2.3208,-2.3525,-2.3545,-2.3418,-2.311,-2.3091,-2.3091,-2.3091,-2.3091,-2.3091,-2.3091,-2.3091,-2.3091,-2.3091,-2.3091,-2.3091,-2.3091,-2.3091,-2.3091,-2.3091,-2.3091,-2.3091,-2.3091,-2.3091,-2.3091,-2.3091,-2.3091,-2.3091,-2.3091,-2.3091,-2.3091,-2.3091,-2.3091,-2.3091,-2.3091,-2.3091,-2.3091,-2.3091,-2.3091,-2.3091,-2.3091,-2.3091,-2.3091,-2.3091,-2.3091,-2.3091,-2.3091,-2.3091,-2.3091,-2.3091,-2.3091,-2.3091,-2.3091,-2.3091,-2.3091,-2.3091,-2.3091,0.0,-2.2818,-2.2076,-2.0531,-1.9222,-1.8457,-1.6842,-1.5784,-1.5784,-1.5784,-1.5784,-1.5784,-1.5784,-1.5784,-1.5784,-1.5784,-1.5784,-1.5784,-1.5784,-1.5784,-1.5784,-1.5784,-1.5784,-1.5784,-1.5784,-1.5784,-1.5784,-1.5784,-1.5784,-1.5784,-1.5784,-1.5784,-1.5784,-1.5784,-1.5939,-1.6112,-1.6226,-1.6543,-1.6891,-1.7119,-1.732,-1.7435,-2.3091,-2.3091,-2.3091,-2.3091,-2.3091,-2.3091,-2.3091,-2.3091,-2.314,-2.3286,-2.3305,-2.3344,-2.3481,-2.35,-2.35,-2.35,-2.35,-2.3627,-2.3965,-2.3984,-2.3848,-2.351,-2.35,-2.35,-2.35,-2.35,-2.35,-2.35,-2.3364,-2.3305,-2.334,-2.3159,-2.3091,-2.3091,-2.3091,-2.3091,-2.3091,-2.3091,-2.3091,-2.3091,-2.3091,-2.3091,-2.3091,-2.3091,-2.3091,-2.3091,-2.3091,-2.3091,-2.3091,-2.3091,-2.3091,-2.3091,-2.3091,-2.3091,-2.296,-2.2183,-2.2501,-2.2916,-2.2183,-2.2271,-2.2633,-2.3003,-2.3091,-2.3091,-2.3091,-2.2818,-2.2536,-2.2536,-2.2217,-2.1952,-2.1952,-2.1952,-2.1952,-2.1952,-2.1952,-2.1676,-2.0845,-1.9716,-1.8642,-1.7777,-1.6574,-1.5784,-1.5784,-1.5784,-1.5784,-1.5784,-1.5784,-1.5784,-1.5784,-1.5784,-1.5784,-1.5784,-1.5784,-1.5784,-1.5784,-1.5784,-1.5784,-1.5784,-1.5784,-1.5784,-1.5784,-1.5784,-1.5784,-1.5784,-1.5784,-1.5784,-1.5791,-1.5925,-1.6086,-1.6342,-1.6529,-1.6844,-1.7213,-1.73,-1.7467,-1.7582,-2.311,-2.311,-2.311,-2.311,-2.311,-2.311,-2.311,-2.311,-2.3257,-2.374,-2.3799,-2.3955,-2.4375,-2.4414,-2.4414,-2.4414,-2.4414,-2.4414,-2.4424,-2.4424,-2.4424,-2.4424,-2.4424,-2.4414,-2.4414,-2.4414,-2.4414,-2.4414,-2.4004,-2.3799,-2.3779,-2.3305,-2.3101,-2.3101,-2.3091,-2.3091,-2.3091,-2.3091,-2.3091,-2.3091,-2.3091,-2.3091,-2.3091,-2.3091,-2.3091,-2.3091,-2.3091,-2.3091,-2.3091,-2.3047,-2.3047,-2.3047,-2.3047,-2.3047,-2.2589,-2.0223,-2.1177,-2.2545,-2.0133,-2.0395,-2.1569,-2.2775,-2.3047,-2.3047,-2.3047,-2.2173,-2.1293,-2.1293,-2.035,-1.9497,-1.9497,-1.9497,-1.9497,-1.9497,-1.9497,-1.9497,-1.9497,-1.8457,-1.7692,-1.7692,-1.6574,-1.5784,-1.5784,-1.5784,-1.5784,-1.5784,-1.5784,-1.5784,-1.5784,-1.5784,-1.5784,-1.5784,-1.5784,-1.5784,-1.5784,-1.5784,-1.5784,-1.5784,-1.5784,-1.5784,-1.5784,-1.5784,-1.5784,-1.5784,-1.5784,-1.5784,-1.5804,-1.6152,-1.6279,-1.6388,-1.6971,-1.7199,-1.7239,-1.7475,-1.7582,-1.7582,-2.3988,-2.3988,-2.3988,-2.3988,-2.3988,-2.3988,-2.3988,-2.3988,-2.4082,-2.4209,-2.4228,-2.4277,-2.4404,-2.4414,-2.4414,-2.4414,-2.4414,-2.4551,-2.4853,-2.5166,-2.5294,-2.5294,-2.4746,-2.4414,-2.4414,-2.4414,-2.4414,-2.4414,-2.4287,-2.4228,-2.4219,-2.3799,-2.3594,-2.3584,-2.3227,-2.3091,-2.3091,-2.3091,-2.3091,-2.3091,-2.3091,-2.3091,-2.3003,-2.2173,-2.2359,-2.2862,-2.1177,-2.1123,-2.1712,-2.0854,-2.0584,-2.0584,-2.0584,-2.0584,-2.0449,-1.9724,-1.9997,-2.0404,-1.9724,-1.9761,-2.0124,-2.0494,-2.0584,-2.0584,-2.0584,-2.0314,-2.0034,-2.0034,-1.9761,-1.9497,-1.9497,-1.9497,-1.9497,-1.9497,-1.9497,-1.9177,-1.8365,-1.7917,-1.7365,-1.648,-1.6015,-1.5784,-1.5784,-1.5784,-1.5784,-1.5784,-1.5784,-1.5784,-1.5784,-1.5784,-1.5784,-1.5784,-1.5784,-1.5784,-1.5784,-1.5784,-1.5784,-1.5784,-1.5784,-1.5784,-1.5784,-1.5784,-1.5784,-1.5784,-1.5784,-1.5945,-1.6146,-1.6239,-1.6569,-1.6958,-1.7132,-1.7326,-1.7514,-1.7549,-1.7582,-1.7582,-2.4414,-2.4414,-2.4414,-2.4414,-2.4414,-2.4414,-2.4414,-2.4414,-2.4473,-2.4648,-2.4678,-2.4746,-2.4922,-2.4894,-2.4894,-2.4894,-2.4894,-2.5049,-2.5322,-2.5538,-2.5693,-2.5693,-2.5177,-2.4894,-2.4894,-2.4894,-2.4894,-2.4894,-2.4756,-2.4678,-2.4668,-2.4238,-2.3945,-2.3779,-2.3516,-2.3257,-2.3091,-2.3091,-2.2818,-2.2403,-2.2403,-2.2085,-2.1587,-2.0845,-2.1033,-2.1489,-2.0034,-1.9988,-2.0486,-1.9761,-1.9497,-1.9405,-1.8956,-1.9131,-1.9314,-1.8303,-1.8718,-1.9314,-1.8303,-1.8403,-1.868,-1.8172,-1.8756,-1.9497,-1.9497,-1.9131,-1.8772,-1.8772,-1.8403,-1.8033,-1.8033,-1.8033,-1.8033,-1.8033,-1.8033,-1.7755,-1.7037,-1.6943,-1.6669,-1.5872,-1.5784,-1.5784,-1.5784,-1.5784,-1.5784,-1.5784,-1.5784,-1.5784,-1.5784,-1.5784,-1.5784,-1.5784,-1.5784,-1.5784,-1.5784,-1.5784,-1.5784,-1.5784,-1.5784,-1.5784,-1.5784,-1.5784,-1.5892,-1.6005,-1.6005,-1.6172,-1.6453,-1.6623,-1.6878,-1.7213,-1.7326,-1.7481,-1.7582,-1.7582,-1.7582,-1.7582,-2.4541,-2.4541,-2.4541,-2.4541,-2.4541,-2.4541,-2.4541,-2.4541,-2.4678,-2.5078,-2.5127,-2.5283,-2.5645,-2.5693,-2.5693,-2.5693,-2.5693,-2.5693,-2.5693,-2.5693,-2.5693,-2.5693,-2.5693,-2.5693,-2.5693,-2.5693,-2.5693,-2.5693,-2.5332,-2.5127,-2.5117,-2.4678,-2.4268,-2.3896,-2.3828,-2.3475,-2.3008,-2.2969,-2.2262,-2.1159,-2.1159,-2.0486,-1.9497,-1.936,-1.9405,-1.9488,-1.9268,-1.9222,-1.9314,-1.9222,-1.9169,-1.8993,-1.7863,-1.8272,-1.8718,-1.6473,-1.739,-1.8672,-1.6426,-1.6669,-1.7271,-1.6109,-1.7483,-1.9169,-1.9169,-1.8319,-1.7552,-1.7552,-1.6622,-1.5784,-1.5784,-1.5784,-1.5784,-1.5784,-1.5784,-1.5784,-1.5784,-1.5784,-1.5784,-1.5784,-1.5784,-1.5784,-1.5784,-1.5784,-1.5784,-1.5784,-1.5784,-1.5784,-1.5784,-1.5784,-1.5784,-1.5784,-1.5784,-1.5784,-1.5784,-1.5784,-1.5784,-1.5784,-1.5784,-1.5784,-1.5784,-1.5804,-1.6019,-1.6321,-1.6348,-1.6473,-1.6767,-1.7092,-1.7213,-1.7266,-1.7475,-1.7582,-1.7582,-1.7582,-1.7582,-1.7582,-2.5401,-2.5401,-2.5401,-2.5401,-2.5401,-2.5401,-2.5401,-2.5401,-2.544,-2.5586,-2.5596,-2.5586,-2.5674,-2.5693,-2.5693,-2.5693,-2.5693,-2.5693,-2.5693,-2.5693,-2.5693,-2.5693,-2.5693,-2.5693,-2.5693,-2.5693,-2.5693,-2.5693,-2.5596,-2.5596,-2.5586,-2.5137,-2.4883,-2.4812,-2.4092,-2.3226,-2.2199,-2.1849,-2.098,-1.9898,-1.9898,-1.9716,-1.9405,-1.8457,-1.868,-1.9268,-1.7296,-1.7257,-1.7956,-1.6936,-1.6608,-1.656,-1.6292,-1.6386,-1.652,-1.5967,-1.6197,-1.6473,-1.5967,-1.6015,-1.6157,-1.5872,-1.6197,-1.6608,-1.6608,-1.6379,-1.6204,-1.6204,-1.5967,-1.5784,-1.5784,-1.5784,-1.5784,-1.5784,-1.5784,-1.5784,-1.5784,-1.5784,-1.5784,-1.5784,-1.5784,-1.5784,-1.5784,-1.5784,-1.5784,-1.5784,-1.5784,-1.5784,-1.5784,-1.5784,-1.5784,-1.5784,-1.5784,-1.5784,-1.5784,-1.5784,-1.5784,-1.5784,-1.5784,-1.5784,-1.5791,-1.6072,-1.6213,-1.6286,-1.6513,-1.678,-1.7112,-1.7172,-1.7333,-1.7495,-1.7555,-1.7582,-1.7582,-1.7582,-1.7582,-1.7582,-2.5693,-2.5693,-2.5693,-2.5693,-2.5693,-2.5693,-2.5693,-2.5693,-2.5693,-2.5693,-2.5693,-2.5693,-2.5693,-2.5693,-2.5693,-2.5693,-2.5693,-2.5693,-2.5693,-2.5693,-2.5693,-2.5693,-2.5693,-2.5693,-2.5693,-2.5693,-2.5693,-2.5693,-2.5693,-2.5693,-2.5684,-2.5498,-2.5273,-2.5049,-2.3918,-2.289,-2.1961,-2.1033,-1.9875,-1.8634,-1.8634,-1.8265,-1.7669,-1.703,-1.7171,-1.7569,-1.6292,-1.6251,-1.6709,-1.6015,-1.5784,-1.5784,-1.5784,-1.5784,-1.5784,-1.5784,-1.5784,-1.5784,-1.5784,-1.5784,-1.5784,-1.5784,-1.5784,-1.5784,-1.5784,-1.5784,-1.5784,-1.5784,-1.5784,-1.5784,-1.5784,-1.5784,-1.5784,-1.5784,-1.5784,-1.5784,-1.5784,-1.5784,-1.5784,-1.5784,-1.5784,-1.5784,-1.5784,-1.5784,-1.5784,-1.5784,-1.5784,-1.5784,-1.5784,-1.5784,-1.5784,-1.5784,-1.5784,-1.5899,-1.6039,-1.6039,-1.6112,-1.6246,-1.6106,-1.6039,-1.6052,-1.6346,-1.6553,-1.675,-1.6904,-1.7088,-1.7407,-1.7407,-1.7442,-1.7582,-1.7582,-1.7582,-1.7582,-1.7582,-1.7582,-1.7582,-2.5693,-2.5693,-2.5693,-2.5693,-2.5693,-2.5693,-2.5693,-2.5693,-2.5693,-2.5693,-2.5693,-2.5693,-2.5693,-2.5693,-2.5693,-2.5693,-2.5693,-2.5693,-2.5693,-2.5693,-2.5693,-2.5693,-2.5693,-2.5693,-2.5693,-2.5693,-2.5693,-2.5693,-2.5693,-2.5693,-2.5693,-2.5693,-2.5392,-2.4823,-2.3568,-2.244,-2.1415,-2.0196,-1.88,-1.7446,-1.7446,-1.6805,-1.5784,-1.5784,-1.5784,-1.5784,-1.5784,-1.5784,-1.5784,-1.5784,-1.5784,-1.5784,-1.5784,-1.5784,-1.5784,-1.5784,-1.5784,-1.5784,-1.5784,-1.5784,-1.5784,-1.5784,-1.5784,-1.5798,-1.5892,-1.5818,-1.5784,-1.5784,-1.5784,-1.5784,-1.5784,-1.5784,-1.5784,-1.5784,-1.5784,-1.5784,-1.5784,-1.5784,-1.5784,-1.5784,-1.5784,-1.5784,-1.5784,-1.5784,-1.5804,-1.5899,-1.5905,-1.5925,-1.5924,-1.5931,-1.5931,-1.5931,-1.5931,-1.6099,-1.6395,-1.6346,-1.6466,-1.67,-1.6513,-1.64,-1.6359,-1.6647,-1.6914,-1.7206,-1.7253,-1.7414,-1.7582,-1.7582,-1.7582,-1.7582,-1.7582,-1.7582,-1.7582,-1.7582,-1.7582,-1.7582,-2.5693,-2.5693,-2.5693,-2.5693,-2.5693,-2.5693,-2.5693,-2.5693,-2.5693,-2.5693,-2.5693,-2.5693,-2.5693,-2.5693,-2.5693,-2.5693,-2.5693,-2.5693,-2.5693,-2.5693,-2.5693,-2.5693,-2.5693,-2.5693,-2.5693,-2.5693,-2.5693,-2.5693,-2.5693,-2.5693,-2.5693,-2.5693,-2.5041,-2.3839,-2.3289,-2.1752,-1.9541,-1.8947,-1.7826,-1.6497,-1.6497,-1.6203,-1.5784,-1.5784,-1.5784,-1.5784,-1.5784,-1.5784,-1.5784,-1.5784,-1.5784,-1.5784,-1.5784,-1.5784,-1.5784,-1.5784,-1.5784,-1.5784,-1.5784,-1.5784,-1.5784,-1.5784,-1.5784,-1.5899,-1.6152,-1.6012,-1.5784,-1.5784,-1.5784,-1.5784,-1.5784,-1.5784,-1.5784,-1.5784,-1.5784,-1.5784,-1.5784,-1.5784,-1.5784,-1.5784,-1.5784,-1.5784,-1.5784,-1.5784,-1.5939,-1.6192,-1.6213,-1.6319,-1.6573,-1.6587,-1.6587,-1.6587,-1.6587,-1.6607,-1.6647,-1.6647,-1.6667,-1.6707,-1.6978,-1.6945,-1.6653,-1.7005,-1.7166,-1.7213,-1.7467,-1.7549,-1.7582,-1.7582,-1.7582,-1.7582,-1.7582,-1.7582,-1.7582,-1.7582,-1.7582,-1.7582,-2.5693,-2.5693,-2.5693,-2.5693,-2.5693,-2.5693,-2.5693,-2.5693,-2.5693,-2.5693,-2.5693,-2.5693,-2.5693,-2.5693,-2.5693,-2.5693,-2.5693,-2.5693,-2.5693,-2.5693,-2.5693,-2.5693,-2.4971,-2.4559,-2.4559,-2.384,-2.3484,-2.3484,-2.4971,-2.5323,-2.4559,-2.4559,-2.389,-2.2558,-2.1536,-2.0411,-1.9134,-1.8196,-1.7275,-1.65,-1.6339,-1.6192,-1.6059,-1.5892,-1.5784,-1.5784,-1.5784,-1.5784,-1.5784,-1.5784,-1.5784,-1.5784,-1.5784,-1.5784,-1.5865,-1.6025,-1.6079,-1.6112,-1.6273,-1.6319,-1.6319,-1.6319,-1.6319,-1.6353,-1.6486,-1.6413,-1.6319,-1.6319,-1.6319,-1.6319,-1.6319,-1.6319,-1.6319,-1.6319,-1.6319,-1.6319,-1.6319,-1.6319,-1.6319,-1.6319,-1.6319,-1.6319,-1.6319,-1.6319,-1.6373,-1.6506,-1.6513,-1.6573,-1.67,-1.6707,-1.6707,-1.6707,-1.6707,-1.6787,-1.7005,-1.7005,-1.7034,-1.7194,-1.7328,-1.7293,-1.7018,-1.7306,-1.744,-1.7454,-1.7528,-1.7582,-1.7582,-1.7582,-1.7582,-1.7582,-1.7582,-1.7582,-1.7582,-1.7582,-1.7582,-1.7582]},{"header":{"parameterUnit":"m.s-1","parameterCategory":1,"la1":30.6,"la2":28.766,"lo1":-90.7593,"lo2":-88.6598,"dx":0.0162,"dy":0.0183,"nx":116,"ny":114,"refTime":"2022-11-29T06:00:00:Z","depth":0,"parameterNumber":3,"parameterNumberName":"V-component_of_WINDS"},"data":[0.0,0.0,0.0,0.0,0.0,0.0,0.0,0.0,0.0,0.0,0.0,0.0,0.0,0.0,0.0,0.0,0.0,0.0,0.0,0.0,0.0,0.0,0.0,0.0,0.0,0.0,0.0,0.0,0.0,0.0,0.0,0.0,0.0,0.0,0.0,0.0,0.0,0.0,0.0,0.0,0.0,0.0,0.0,0.0,0.0,0.0,0.0,0.0,0.0,0.0,0.0,0.0,0.0,0.0,0.0,0.0,0.0,0.0,0.0,0.0,0.0,0.0,0.0,0.0,0.0,0.0,0.0,0.0,0.0,0.0,0.0,0.0,0.0,0.0,0.0,0.0,0.0,0.0,0.0,0.0,0.0,0.0,0.0,0.0,0.0,0.0,0.0,0.0,0.0,0.0,0.0,0.0,0.0,0.0,0.0,0.0,0.0,0.0,0.0,0.0,0.0,0.0,0.0,0.0,0.0,0.0,0.0,0.0,0.0,0.0,0.0,0.0,0.0,0.0,0.0,0.0,0.0,0.0,0.0,0.0,0.0,0.0,0.0,0.0,0.0,0.0,0.0,0.0,0.0,0.0,0.0,0.0,0.0,0.0,0.0,0.0,0.0,0.0,0.0,0.0,0.0,0.0,0.0,0.0,0.0,0.0,0.0,0.0,0.0,0.0,0.0,0.0,0.0,0.0,0.0,0.0,0.0,0.0,0.0,0.0,0.0,0.0,0.0,0.0,0.0,0.0,0.0,0.0,0.0,0.0,0.0,0.0,0.0,0.0,0.0,0.0,0.0,0.0,0.0,0.0,0.0,0.0,0.0,0.0,0.0,0.0,0.0,0.0,0.0,0.0,0.0,0.0,0.0,0.0,0.0,0.0,0.0,0.0,0.0,0.0,0.0,0.0,0.0,0.0,0.0,0.0,0.0,0.0,0.0,0.0,0.0,0.0,0.0,0.0,0.0,0.0,0.0,0.0,0.0,0.0,0.0,0.0,0.0,0.0,0.0,0.0,0.0,0.0,0.0,0.0,0.0,0.0,0.0,0.0,0.0,0.0,0.0,0.0,0.0,0.0,0.0,0.0,0.0,0.0,0.0,0.0,0.0,0.0,0.0,0.0,0.0,0.0,0.0,0.0,0.0,0.0,0.0,0.0,0.0,0.0,0.0,0.0,0.0,0.0,0.0,0.0,0.0,0.0,0.0,0.0,0.0,0.0,0.0,0.0,0.0,0.0,0.0,0.0,0.0,0.0,0.0,0.0,0.0,0.0,0.0,0.0,0.0,0.0,0.0,0.0,0.0,0.0,0.0,0.0,0.0,0.0,0.0,0.0,0.0,0.0,0.0,0.0,0.0,0.0,0.0,0.0,0.0,0.0,0.0,0.0,0.0,0.0,0.0,0.0,0.0,0.0,0.0,0.0,0.0,0.0,0.0,0.0,0.0,0.0,0.0,0.0,0.0,0.0,0.0,0.0,0.0,0.0,0.0,0.0,0.0,0.0,0.0,0.0,0.0,0.0,0.0,0.0,0.0,0.0,0.0,0.0,0.0,0.0,0.0,0.0,0.0,0.0,0.0,0.0,0.0,0.0,0.0,0.0,0.0,0.0,0.0,0.0,0.0,0.0,0.0,0.0,0.0,0.0,0.0,0.0,0.0,0.0,0.0,0.0,0.0,0.0,0.0,0.0,0.0,0.0,0.0,0.0,0.0,0.0,0.0,0.0,0.0,0.0,0.0,0.0,0.0,0.0,0.0,0.0,0.0,0.0,0.0,0.0,0.0,0.0,0.0,0.0,0.0,0.0,0.0,0.0,0.0,0.0,0.0,0.0,0.0,0.0,0.0,0.0,0.0,0.0,0.0,0.0,0.0,0.0,0.0,0.0,0.0,0.0,0.0,0.0,0.0,0.0,0.0,0.0,0.0,0.0,0.0,0.0,0.0,0.0,0.0,0.0,0.0,0.0,0.0,0.0,0.0,0.0,0.0,0.0,0.0,0.0,0.0,0.0,0.0,0.0,0.0,0.0,0.0,0.0,0.0,0.0,0.0,0.0,0.0,0.0,0.0,0.0,0.0,0.0,0.0,0.0,0.0,0.0,0.0,0.0,0.0,0.0,0.0,0.0,0.0,0.0,0.0,0.0,0.0,0.0,0.0,0.0,0.0,0.0,0.0,0.0,0.0,0.0,0.0,0.0,0.0,0.0,0.0,0.0,0.0,0.0,0.0,0.0,0.0,0.0,0.0,0.0,0.0,0.0,0.0,0.0,0.0,0.0,0.0,0.0,0.0,0.0,0.0,0.0,0.0,0.0,0.0,0.0,0.0,0.0,0.0,0.0,0.0,0.0,0.0,0.0,0.0,0.0,0.0,0.0,0.0,0.0,0.0,0.0,0.0,0.0,0.0,0.0,0.0,0.0,0.0,0.0,0.0,0.0,0.0,0.0,0.0,0.0,0.0,0.0,0.0,0.0,0.0,0.0,0.0,0.0,0.0,0.0,0.0,0.0,0.0,0.0,0.0,0.0,0.0,0.0,0.0,0.0,0.0,0.0,0.0,0.0,0.0,0.0,0.0,0.0,0.0,0.0,0.0,0.0,0.0,0.0,0.0,0.0,0.0,0.0,0.0,0.0,0.0,0.0,0.0,0.0,0.0,0.0,0.0,0.0,0.0,0.0,0.0,0.0,0.0,0.0,0.0,0.0,0.0,0.0,0.0,0.0,0.0,0.0,0.0,0.0,0.0,0.0,0.0,0.0,0.0,0.0,0.0,0.0,0.0,0.0,0.0,0.0,0.0,0.0,0.0,0.0,0.0,0.0,0.0,0.0,0.0,0.0,0.0,0.0,0.0,0.0,0.0,0.0,0.0,0.0,0.0,0.0,0.0,0.0,0.0,0.0,0.0,0.0,0.0,0.0,0.0,0.0,0.0,0.0,0.0,0.0,0.0,0.0,0.0,0.0,0.0,0.0,0.0,0.0,0.0,0.0,0.0,0.0,0.0,0.0,0.0,0.0,0.0,0.0,0.0,0.0,0.0,0.0,0.0,0.0,0.0,0.0,0.0,0.0,0.0,0.0,0.0,0.0,0.0,0.0,0.0,0.0,0.0,0.0,0.0,0.0,0.0,0.0,0.0,0.0,0.0,0.0,0.0,0.0,0.0,0.0,0.0,0.0,0.0,0.0,0.0,0.0,0.0,0.0,0.0,0.0,0.0,0.0,0.0,0.0,0.0,0.0,0.0,0.0,0.0,0.0,0.0,0.0,0.0,0.0,0.0,0.0,0.0,0.0,0.0,0.0,0.0,0.0,0.0,0.0,0.0,0.0,0.0,0.0,0.0,0.0,0.0,0.0,0.0,0.0,0.0,0.0,0.0,0.0,0.0,0.0,0.0,0.0,0.0,0.0,0.0,0.0,0.0,0.0,0.0,0.0,0.0,0.0,0.0,0.0,0.0,0.0,0.0,0.0,0.0,0.0,0.0,0.0,0.0,0.0,0.0,0.0,0.0,0.0,0.0,0.0,0.0,0.0,0.0,0.0,0.0,0.0,0.0,0.0,0.0,0.0,0.0,0.0,0.0,0.0,0.0,0.0,0.0,0.0,0.0,0.0,0.0,0.0,0.0,0.0,0.0,0.0,0.0,0.0,0.0,0.0,0.0,0.0,0.0,0.0,0.0,0.0,0.0,0.0,0.0,0.0,0.0,0.0,0.0,0.0,0.0,0.0,0.0,0.0,0.0,0.0,0.0,0.0,0.0,0.0,0.0,0.0,0.0,0.0,0.0,0.0,0.0,0.0,0.0,0.0,0.0,0.0,0.0,0.0,0.0,0.0,0.0,0.0,0.0,0.0,0.0,0.0,0.0,0.0,0.0,0.0,0.0,0.0,0.0,0.0,0.0,0.0,0.0,0.0,0.0,0.0,0.0,0.0,0.0,0.0,0.0,0.0,0.0,0.0,0.0,0.0,0.0,0.0,0.0,0.0,0.0,0.0,0.0,0.0,0.0,0.0,0.0,0.0,0.0,0.0,0.0,0.0,0.0,0.0,0.0,0.0,0.0,0.0,0.0,0.0,0.0,0.0,0.0,0.0,0.0,0.0,0.0,0.0,0.0,0.0,0.0,0.0,0.0,0.0,0.0,0.0,0.0,0.0,0.0,0.0,0.0,0.0,0.0,0.0,0.0,0.0,0.0,0.0,0.0,0.0,0.0,0.0,0.0,0.0,0.0,0.0,0.0,0.0,0.0,0.0,0.0,0.0,0.0,0.0,0.0,0.0,0.0,0.0,0.0,0.0,0.0,0.0,0.0,0.0,0.0,0.0,0.0,0.0,0.0,0.0,0.0,0.0,0.0,0.0,0.0,0.0,0.0,0.0,0.0,0.0,0.0,0.0,0.0,0.0,0.0,0.0,0.0,0.0,0.0,0.0,0.0,0.0,0.0,0.0,0.0,0.0,0.0,0.0,0.0,0.0,0.0,0.0,0.0,0.0,0.0,0.0,0.0,0.0,0.0,0.0,0.0,0.0,0.0,0.0,0.0,0.0,0.0,0.0,0.0,0.0,0.0,0.0,0.0,0.0,0.0,0.0,0.0,0.0,0.0,0.0,0.0,0.0,0.0,0.0,0.0,0.0,0.0,0.0,0.0,0.0,0.0,0.0,0.0,0.0,0.0,0.0,0.0,0.0,0.0,0.0,0.0,0.0,0.0,0.0,0.0,0.0,0.0,0.0,0.0,0.0,0.0,0.0,0.0,0.0,0.0,0.0,0.0,0.0,0.0,0.0,0.0,0.0,0.0,0.0,0.0,0.0,0.0,0.0,0.0,0.0,0.0,0.0,0.0,0.0,0.0,0.0,0.0,0.0,0.0,0.0,0.0,0.0,0.0,0.0,0.0,0.0,0.0,0.0,0.0,0.0,0.0,0.0,0.0,0.0,0.0,0.0,0.0,0.0,0.0,0.0,0.0,0.0,0.0,0.0,0.0,0.0,0.0,0.0,0.0,0.0,0.0,0.0,0.0,0.0,0.0,0.0,0.0,0.0,0.0,0.0,0.0,0.0,0.0,0.0,0.0,0.0,0.0,0.0,0.0,0.0,0.0,0.0,0.0,0.0,0.0,0.0,0.0,0.0,0.0,0.0,0.0,0.0,0.0,0.0,0.0,0.0,0.0,0.0,0.0,0.0,0.0,0.0,0.0,0.0,0.0,0.0,0.0,0.0,0.0,0.0,0.0,0.0,0.0,0.0,0.0,0.0,0.0,0.0,0.0,0.0,0.0,0.0,0.0,0.0,0.0,0.0,0.0,0.0,0.0,0.0,0.0,0.0,0.0,0.0,0.0,0.0,0.0,0.0,0.0,0.0,0.0,0.0,0.0,0.0,0.0,0.0,0.0,0.0,0.0,0.0,0.0,0.0,0.0,0.0,0.0,0.0,0.0,0.0,0.0,0.0,0.0,0.0,0.0,0.0,0.0,0.0,0.0,0.0,0.0,0.0,0.0,0.0,0.0,0.0,0.0,0.0,0.0,0.0,0.0,0.0,0.0,0.0,0.0,0.0,0.0,0.0,0.0,0.0,0.0,0.0,0.0,0.0,0.0,0.0,0.0,0.0,0.0,0.0,0.0,0.0,0.0,0.0,0.0,0.0,0.0,0.0,0.0,0.0,0.0,0.0,0.0,0.0,0.0,0.0,0.0,0.0,0.0,0.0,0.0,0.0,0.0,0.0,0.0,0.0,0.0,0.0,0.0,0.0,0.0,0.0,0.0,0.0,0.0,0.0,0.0,0.0,0.0,0.0,0.0,0.0,0.0,0.0,0.0,0.0,0.0,0.0,0.0,0.0,0.0,0.0,0.0,0.0,0.0,0.0,0.0,0.0,0.0,0.0,0.0,0.0,0.0,0.0,0.0,0.0,0.0,0.0,0.0,0.0,0.0,0.0,0.0,0.0,0.0,0.0,0.0,0.0,0.0,0.0,0.0,0.0,0.0,0.0,0.0,0.0,0.0,0.0,0.0,0.0,0.0,0.0,0.0,0.0,0.0,0.0,0.0,0.0,0.0,0.0,0.0,0.0,0.0,0.0,0.0,0.0,0.0,0.0,0.0,0.0,0.0,0.0,0.0,0.0,0.0,0.0,0.0,0.0,1.1321,1.0242,0.0,0.0,0.0,0.0,0.0,0.0,0.0,0.0,0.0,0.0,0.0,0.0,0.0,0.0,0.0,0.0,0.0,0.0,0.0,0.0,0.0,0.0,0.0,0.3974,0.3939,0.407,0.3901,0.0,0.0,0.0,0.0,0.0,0.0,0.0,0.0,0.0,0.4491,0.5127,0.5127,0.5332,0.5711,0.5293,0.499,0.4813,0.0,0.0,0.0,0.0,0.0,0.0,0.0,0.0,0.0,0.0,0.0,0.0,0.0,0.0,0.0,0.0,0.0,0.0,0.0,0.0,0.0,0.0,0.0,0.0,0.0,0.0,0.0,0.0,0.0,0.0,0.0,0.0,0.0,0.0,0.0,0.0,0.0,0.0,0.0,0.0,0.0,0.0,0.0,0.0,0.0,0.0,0.0,0.0,0.0,0.0,0.0,0.0,0.0,0.0,0.0,0.0,0.0,0.0,0.0,0.0,0.0,0.0,0.0,0.0,0.0,0.0,0.0,0.0,0.0,0.0,1.2877,1.1628,0.0,0.0,0.0,0.0,0.0,0.0,0.0,0.0,0.0,0.0,0.0,0.0,0.0,0.0,0.0,0.0,0.0,0.0,0.0,0.0,0.0,0.4199,0.4361,0.4333,0.4406,0.4676,0.44,0.4301,0.4522,0.4271,0.0,0.0,0.0,0.0,0.4717,0.4727,0.5117,0.59,0.5989,0.6242,0.6628,0.6709,0.6562,0.6244,0.6007,0.0,0.0,0.0,0.0,0.0,0.0,0.0,0.0,0.0,0.0,0.0,0.0,0.0,0.0,0.0,0.0,0.0,0.0,0.0,0.0,0.0,0.0,0.0,0.0,0.0,0.0,0.0,0.0,0.0,0.0,0.0,0.0,0.0,0.0,0.0,0.0,0.0,0.0,0.0,0.0,0.0,0.0,0.0,0.0,0.0,0.0,0.0,0.0,0.0,0.0,0.0,0.0,0.0,0.0,0.0,0.0,0.0,0.0,0.0,0.0,0.0,0.0,0.0,1.4724,1.5188,1.6026,1.6026,1.5841,1.5456,1.4309,1.3172,1.2116,1.2231,0.0,0.0,0.0,0.0,0.0,0.0,0.0,0.0,0.0,0.0,0.0,0.0,0.0,0.0,0.0,0.0,0.0,0.0,0.0,0.4366,0.4626,0.4436,0.4406,0.4676,0.4651,0.4634,0.4673,0.4839,0.0,0.0,0.0,0.0,0.5627,0.5636,0.5861,0.6328,0.6729,0.7139,0.753,0.7939,0.8101,0.8003,0.6836,0.6318,0.6289,0.0,0.0,0.0,0.0,0.0,0.0,0.0,0.0,0.0,0.0,0.0,0.0,0.0,0.0,0.0,0.0,0.0,0.0,0.0,0.0,0.0,0.0,0.0,0.0,0.0,0.0,0.0,0.0,0.0,0.0,0.0,0.0,0.0,0.0,0.0,0.0,0.0,0.0,0.0,0.0,0.0,0.8386,0.8925,0.0,0.0,0.0,0.0,0.0,0.0,0.0,0.0,0.0,0.0,0.0,0.0,0.0,1.4072,1.4456,1.4607,1.4746,1.4866,1.4866,1.5177,1.5749,1.5749,1.5721,1.5668,1.5493,0.0,1.4102,1.3898,0.0,0.0,0.0,0.0,0.0,0.0,0.0,0.0,0.0,0.0,0.0,0.0,0.0,0.0,0.0,0.0,0.0,0.0,0.0,0.0,0.0,0.4868,0.5143,0.5404,0.5427,0.5495,0.564,0.5772,0.0,0.0,0.0,0.5926,0.6123,0.6399,0.6859,0.7524,0.7959,0.8262,0.8431,0.8643,0.873,0.8718,0.8125,0.7583,0.7106,0.6699,0.0,0.0,0.0,0.0,0.0,0.0,0.0,0.0,0.0,0.0,0.0,0.0,0.0,0.0,0.0,0.0,0.0,0.0,0.0,0.0,0.0,0.0,0.0,0.0,0.0,0.0,0.0,0.0,0.0,0.0,0.0,0.0,0.0,0.0,0.0,0.0,0.0,0.0,0.0,0.9027,0.9529,1.0396,1.0773,1.1136,0.0,0.0,0.0,0.0,0.0,0.0,0.0,0.0,0.0,1.4525,1.4833,1.511,1.5349,1.5643,1.5793,1.5806,1.6153,1.643,1.6681,1.6961,1.7112,1.7112,1.7112,1.6734,1.6069,1.5222,1.4683,1.4374,0.0,0.0,0.0,0.0,1.4488,1.448,0.0,0.0,0.0,0.0,0.0,0.0,0.0,0.0,0.0,0.0,0.0,0.0,0.4955,0.5409,0.5808,0.608,0.6104,0.6237,0.656,0.657,0.6618,0.6726,0.6735,0.6784,0.6914,0.7461,0.8115,0.8884,0.9287,0.9551,0.9658,0.9658,0.9658,0.9658,0.9658,0.9062,0.8012,0.7726,0.7333,0.6863,0.0,0.0,0.0,0.0,0.0,0.0,0.0,0.0,0.0,0.0,0.0,0.0,0.0,0.0,0.0,0.0,0.0,0.0,0.0,0.0,0.0,0.0,0.0,0.0,0.0,0.0,0.0,0.0,0.0,0.0,0.0,0.0,0.0,0.0,0.0,0.0,0.0,1.0357,1.091,1.1889,1.2492,1.2881,0.0,0.0,0.0,0.0,0.0,0.0,1.4261,1.4658,1.5002,1.5311,1.5852,1.612,1.612,1.6672,1.6926,1.6939,1.7388,1.7589,1.7624,1.8016,1.8204,1.8204,1.8204,1.7978,1.7521,1.6443,1.5722,1.5351,1.564,1.5575,1.5351,1.5653,1.5757,1.5731,0.0,0.0,0.0,0.0,0.0,0.0,0.0,0.0,0.0,0.0,0.0,0.4955,0.5835,0.596,0.608,0.6358,0.6382,0.6579,0.7041,0.707,0.7232,0.7618,0.7627,0.7837,0.8287,0.9065,0.9708,1.0205,1.0605,1.1025,1.1479,1.1479,1.1479,1.1479,1.1479,1.0528,0.895,0.8973,0.8696,0.8203,0.8247,0.0,0.0,0.0,0.0,0.0,0.0,0.0,0.0,0.0,0.0,0.0,0.0,0.0,0.0,0.0,0.0,0.0,0.0,0.0,0.0,0.0,0.0,0.0,0.0,0.0,0.0,0.0,0.0,0.0,0.0,0.0,0.0,0.0,0.0,0.0,0.0,0.0,0.0,1.3048,1.3652,0.0,0.0,0.0,0.0,1.3994,1.3978,1.4236,1.4755,1.4782,1.5296,1.64,1.6999,1.7322,1.7322,1.784,1.8116,1.8116,1.8154,1.8166,1.8166,1.8191,1.8204,1.8204,1.8204,1.8191,1.8116,1.7546,1.6958,1.6412,1.6434,1.6434,1.6412,1.6434,1.6455,1.638,0.0,0.0,0.0,0.3921,0.3755,0.3605,0.3517,0.3676,0.4002,0.4537,0.5159,0.5792,0.6382,0.6838,0.7252,0.7646,0.769,0.7876,0.8301,0.832,0.8389,0.8529,0.8792,0.927,0.999,1.0283,1.0674,1.1145,1.1281,1.1428,1.1606,1.1606,1.1606,1.1606,1.1606,1.1242,1.0645,1.0097,0.9791,0.9604,0.9067,0.8839,0.0,0.0,0.0,0.0,0.0,0.0,0.0,0.0,0.0,0.0,0.0,0.0,0.0,0.0,0.0,0.0,0.0,0.0,0.0,0.0,0.0,0.0,0.0,0.0,0.0,0.0,0.0,0.0,0.0,0.0,0.0,0.0,0.0,0.0,0.0,0.0,0.0,1.4224,1.4455,0.0,1.5359,1.5385,1.5414,1.5606,1.5973,1.6278,1.6453,1.6798,1.7161,1.7566,1.7802,1.7903,1.7903,1.8103,1.8356,1.8719,1.9045,1.9422,1.9824,2.0189,2.0313,2.0313,2.0313,2.0138,1.9799,1.9598,1.8768,1.7578,1.7578,1.7578,1.7578,1.7578,1.7578,1.7576,0.0,0.0,0.0,0.39,0.3755,0.3605,0.3517,0.3898,0.4387,0.4878,0.5736,0.6488,0.698,0.7574,0.8066,0.8375,0.8522,0.8845,0.9404,0.9434,0.9561,0.9872,1.0137,1.0547,1.1113,1.1279,1.1494,1.1809,1.1956,1.2034,1.2034,1.2034,1.2034,1.2034,1.2034,1.2034,1.1985,1.124,1.0875,1.0717,1.0173,0.9934,0.9839,0.0,0.0,0.0,0.0,0.0,0.0,0.0,0.0,0.0,0.0,0.0,0.0,0.0,0.0,0.0,0.0,0.0,0.0,0.0,0.0,0.0,0.0,0.0,0.0,0.0,0.0,0.0,0.0,0.0,0.0,0.0,0.0,0.0,0.0,1.4113,1.4546,1.5103,1.5104,1.5398,1.6203,1.6246,1.6361,1.6737,1.714,1.7362,1.7362,1.7696,1.8076,1.8456,1.8656,1.8844,1.9032,1.9221,1.9497,1.9861,2.02,2.0577,2.0981,2.1358,2.1493,2.1493,2.1493,2.1307,2.0968,2.0968,2.0327,1.9258,1.8694,1.8456,1.8455,1.8279,1.8204,1.8204,0.0,0.0,0.3911,0.3911,0.3911,0.3825,0.3566,0.4152,0.4862,0.5524,0.6264,0.6961,0.7652,0.8125,0.8404,0.8434,0.8789,0.9385,1.0263,1.0322,1.0704,1.1587,1.1626,1.1636,1.1645,1.2031,1.2223,1.2223,1.2676,1.2905,1.2905,1.2905,1.2905,1.2905,1.2905,1.2905,1.2876,1.2408,1.1969,1.1551,1.1613,1.1082,1.0189,0.0,0.0,0.0,0.0,0.0,0.0,0.0,0.0,0.0,0.0,0.0,0.0,0.0,0.0,0.0,0.0,0.0,0.0,0.0,0.0,0.0,0.0,0.0,0.0,0.0,0.0,0.0,0.0,0.0,0.0,0.0,0.0,0.0,1.4997,1.4882,1.5076,1.5682,1.5694,1.6106,1.7305,1.74,1.7384,1.7364,1.7363,1.7387,1.7399,1.7411,1.7922,1.9008,1.9534,2.0086,2.0677,2.1189,2.1465,2.1506,2.1518,2.1518,2.1543,2.1503,2.1543,2.1543,2.1543,2.1543,2.1543,2.1543,2.1543,2.138,1.9722,1.9083,1.902,1.8481,1.8304,1.8304,0.4211,0.4191,0.4191,0.4191,0.4191,0.4185,0.4159,0.4739,0.5373,0.5887,0.6556,0.7296,0.8114,0.8326,0.8639,0.9211,0.9377,0.9806,1.0684,1.0742,1.1133,1.2002,1.2051,1.2197,1.2533,1.2661,1.2705,1.2705,1.2846,1.2905,1.2905,1.2905,1.2905,1.2905,1.2905,1.2905,1.2895,1.2754,1.263,1.2497,1.2214,1.2145,1.2129,0.0,0.0,0.0,0.0,0.0,0.0,0.0,0.0,0.0,0.0,0.0,0.0,0.0,0.0,0.0,0.0,0.0,0.0,0.0,0.0,0.0,0.0,0.0,0.0,0.0,0.0,0.0,0.0,0.0,0.0,0.0,1.5404,1.5643,1.5512,1.5799,1.6253,1.6873,1.6485,1.665,1.7869,1.7564,1.7666,1.8462,1.8883,1.9293,1.9741,2.0138,2.0195,1.9877,2.0009,2.0153,2.0338,2.0482,2.1088,2.2083,2.1438,2.1675,2.2644,2.2066,2.2096,2.2656,2.2656,2.2656,2.2656,2.2656,2.2656,2.2531,2.1305,2.0815,2.079,2.0639,2.0589,2.0589,0.4476,0.4466,0.4466,0.4466,0.4466,0.4441,0.4372,0.5097,0.5749,0.6026,0.6816,0.7617,0.833,0.8551,0.8906,0.9534,0.9942,1.0311,1.0743,1.1088,1.1639,1.2457,1.25,1.2617,1.2895,1.2905,1.2905,1.2905,1.2905,1.2905,1.2905,1.2905,1.2905,1.2905,1.2905,1.2905,1.2905,1.2905,1.2905,1.288,1.2652,1.26,1.2582,1.1869,1.1724,1.1701,1.0225,1.0013,1.0253,0.905,0.0,0.0,0.0,0.0,0.0,0.0,0.0,0.0,0.0,0.0,0.0,0.0,0.0,0.0,0.0,0.0,0.0,0.0,0.0,0.0,0.0,0.0,0.0,0.0,1.6095,1.6396,1.6396,1.643,1.6794,1.7629,1.7361,1.7569,1.877,1.8771,1.9104,1.9986,1.9994,2.0276,2.0991,2.0986,2.099,2.1095,2.1066,2.1314,2.1776,2.1373,2.1892,2.3333,2.2411,2.2599,2.381,2.3329,2.336,2.381,2.381,2.381,2.381,2.381,2.381,0.0,0.0,0.0,0.0,0.0,2.1493,2.1493,0.4696,0.4745,0.4745,0.4745,0.4745,0.4664,0.4434,0.5338,0.6049,0.6058,0.7006,0.7895,0.8414,0.8779,0.9172,0.964,1.0429,1.0881,1.0795,1.1513,1.2212,1.2881,1.2905,1.2905,1.2905,1.2905,1.2905,1.2905,1.2905,1.2905,1.2905,1.2954,1.2974,1.2974,1.2974,1.2974,1.2949,1.2925,1.2905,1.2905,1.2905,1.2646,1.2233,1.1829,1.1927,1.2171,1.1224,1.1223,1.1534,1.0524,0.0,0.0,0.0,0.0,0.0,0.0,0.0,0.0,0.0,0.0,0.0,0.0,0.0,0.0,0.0,0.0,0.0,0.0,0.0,0.0,0.0,0.0,0.0,0.0,1.6785,1.7536,1.7662,1.7163,1.7181,1.8245,1.8338,1.8739,1.9872,2.0478,2.1018,2.1543,2.0852,2.0814,2.1729,2.0947,0.0,0.0,0.0,2.2749,2.374,2.3003,2.3341,2.4788,2.3812,2.3845,2.4788,2.4691,2.4723,2.4788,2.4788,2.4788,2.4788,2.4788,2.4788,2.4637,2.3145,2.2569,2.2506,2.2046,2.1857,2.1857,0.501,0.502,0.502,0.502,0.502,0.5025,0.5018,0.5762,0.6338,0.6402,0.7168,0.8012,0.8799,0.8955,0.9316,1.0107,1.0615,1.1186,1.1859,1.2388,1.274,1.2881,1.2905,1.2905,1.2905,1.2905,1.2905,1.2905,1.2905,1.2905,1.2915,1.3232,1.3389,1.3389,1.3389,1.3389,1.3359,1.3052,1.2905,1.2905,1.2905,1.2856,1.2705,1.2266,1.2145,1.2157,1.1624,1.1755,1.2015,1.1012,1.0873,1.1005,1.0096,0.9797,0.0,0.0,0.0,0.0,0.0,0.0,0.0,0.0,0.0,0.0,0.0,0.0,0.0,0.0,0.0,0.0,0.0,0.0,0.0,1.7071,1.7614,1.8355,1.9208,1.9221,1.9233,1.9459,1.9483,1.9906,2.1066,2.1295,2.1556,2.2108,2.1989,2.2359,2.3464,2.2587,2.206,2.2067,2.2045,2.2148,2.2376,2.3003,2.3814,2.4788,0.0,0.0,2.4788,2.4054,2.4132,2.4788,2.4788,2.4788,2.4788,2.4788,2.4788,2.4763,2.4424,2.4311,2.4286,2.4217,2.4148,2.4148,0.5098,0.5098,0.5098,0.5098,0.5098,0.5116,0.5142,0.5861,0.6411,0.6444,0.718,0.8041,0.8916,0.9004,0.9434,1.0508,1.0875,1.1489,1.2486,1.2411,1.2501,1.2881,1.2905,1.2905,1.2905,1.2905,1.2905,1.2905,1.2905,1.2905,1.2905,1.3096,1.3193,1.3193,1.3193,1.3193,1.3184,1.2993,1.2905,1.2905,1.2905,1.2905,1.2876,1.2637,1.2559,1.25,1.2061,1.2042,1.2132,1.1437,1.1389,1.1484,1.0773,1.0695,1.0735,0.0,0.0,0.0,0.0,0.0,0.0,0.0,0.0,0.0,0.0,0.0,0.0,0.0,0.0,1.5869,1.6455,0.0,1.7498,1.7752,1.848,1.9196,1.9723,2.0288,2.0505,2.0046,2.062,2.1101,2.1235,2.1714,2.211,2.2378,2.226,2.2579,2.3583,2.3251,2.3117,2.339,2.339,2.3542,2.3792,2.3815,2.4456,2.5636,2.4689,2.4757,2.5636,2.5209,2.5243,2.5636,2.5636,2.5636,2.5636,2.5636,2.5636,2.5636,2.5636,2.531,2.4788,2.4788,2.4788,2.4788,0.5098,0.5098,0.5098,0.5098,0.5098,0.5098,0.5098,0.578,0.6318,0.6396,0.7096,0.7915,0.8789,0.8955,0.9551,1.0918,1.1185,1.1747,1.2817,1.2344,1.227,1.2881,1.2905,1.2905,1.2905,1.2905,1.2905,1.2905,1.2905,1.2905,1.2905,1.2993,1.3023,1.3023,1.3023,1.3023,1.3023,1.2935,1.2905,1.2905,1.2905,1.2905,1.2905,1.2905,1.2905,1.2856,1.2612,1.2507,1.246,1.2027,1.19,1.1794,1.1276,1.1339,1.1419,1.0513,1.0543,0.0,0.0,0.0,0.0,0.0,0.0,0.0,0.0,1.4407,1.4683,1.5649,1.5944,1.6296,1.7234,1.7574,1.7877,1.843,1.9334,2.0049,2.0263,2.1079,2.1338,2.0505,2.1364,2.1861,2.1354,2.2044,2.2577,2.2651,2.2598,2.291,2.3699,2.369,2.4017,2.4826,2.4826,2.507,2.548,2.4937,2.5271,2.6499,2.5699,2.5734,2.6499,2.6499,2.6499,2.6499,2.6499,2.6499,2.6499,2.6499,2.6499,2.6499,2.6499,2.5946,2.5146,2.5146,2.5146,2.5146,0.5098,0.5098,0.5098,0.5098,0.5098,0.5098,0.5098,0.5537,0.5998,0.6357,0.6855,0.75,0.8365,0.8779,0.9678,1.1359,1.155,1.1937,1.2856,1.2822,1.2798,1.2905,1.2905,1.2905,1.2905,1.2905,1.2905,1.2905,1.2905,1.2905,1.2915,1.3262,1.3437,1.3437,1.3437,1.3437,1.3408,1.3037,1.2905,1.2905,1.2905,1.2905,1.2905,1.2905,1.2905,1.2958,1.3443,1.3635,1.3562,1.3092,1.2925,1.2785,1.1824,1.1567,1.1665,1.2079,1.2521,1.2894,1.3006,1.3091,1.3388,1.4453,1.4354,1.4285,0.0,1.5514,1.5694,1.6287,1.6835,1.726,1.7385,1.8179,1.8995,1.9535,2.0189,2.093,2.1895,2.2133,2.1926,2.1188,2.1117,2.1468,2.2237,2.2547,2.284,2.3193,2.4018,2.4747,2.5307,2.458,2.4385,2.4967,2.4979,2.5015,2.5063,2.5857,2.6321,2.6499,2.6383,2.6383,2.6499,2.6499,2.6499,2.6499,2.6499,2.6499,2.6499,2.6499,2.6499,2.6499,2.6499,2.6411,2.6311,2.6311,2.6311,2.6311,0.5098,0.5098,0.5098,0.5098,0.5098,0.5098,0.5098,0.5498,0.5862,0.6027,0.666,0.7334,0.7924,0.9043,1.0058,1.0772,1.1312,1.1848,1.2461,1.25,1.2617,1.2895,1.2905,1.2905,1.2905,1.2905,1.2905,1.2905,1.2905,1.2905,1.2905,1.3066,1.3145,1.3145,1.3145,1.3145,1.3135,1.2983,1.2905,1.2905,1.2905,1.2905,1.2905,1.2905,1.2905,1.292,1.32,1.3286,0.0,1.3465,1.3264,1.2969,1.295,1.2934,1.2936,1.2912,1.3301,1.3807,1.4225,1.4526,1.4918,1.5641,1.5662,1.5608,1.6057,1.6434,1.6735,1.6974,1.7476,1.7953,1.8279,1.8933,1.966,2.0239,2.1069,2.1782,2.2246,2.2556,2.2761,2.2823,2.2321,2.2047,2.2203,2.3042,2.3627,2.3807,2.4492,2.5022,2.5229,2.5426,2.564,2.5873,2.5873,2.5873,2.5873,2.628,2.6499,2.6499,2.6499,2.6499,2.6499,2.6499,2.6499,2.6499,2.6499,2.6499,2.6499,2.6499,2.6499,2.6499,2.6499,2.6499,2.6499,2.6499,2.6499,2.6499,0.5098,0.5098,0.5098,0.5098,0.5098,0.5098,0.5098,0.539,0.5655,0.5783,0.635,0.6992,0.7627,0.8945,0.9921,1.0273,1.087,1.1467,1.2002,1.2018,1.2246,1.2686,1.2705,1.2778,1.2905,1.2905,1.2905,1.2905,1.2905,1.2905,1.2905,1.2905,1.2905,1.2905,1.2905,1.2905,1.2905,1.2905,1.2905,1.2905,1.2905,1.2905,1.2905,1.2905,1.2905,1.2929,1.3079,1.3152,1.3214,1.3661,1.3505,1.3226,1.3722,1.3883,1.3873,1.3851,1.4293,1.4862,1.5304,1.5657,1.6019,1.64,1.65,1.6538,1.6722,1.7087,1.7448,1.7576,1.8053,1.8531,1.8933,1.9572,2.0225,2.083,2.1694,2.2359,2.2493,2.2995,2.3454,2.3783,2.3635,2.3313,2.2857,2.3687,2.4279,2.4399,2.5048,2.5406,2.5406,2.6094,2.6499,2.6499,2.6499,2.6499,2.6499,2.6499,2.6499,2.6499,2.665,2.6725,2.6725,2.6876,2.6952,2.6952,2.6952,2.6952,2.6952,2.6952,2.6952,2.6952,2.6952,2.6952,2.6952,2.6952,2.6751,2.6499,0.5098,0.5098,0.5098,0.5098,0.5098,0.5098,0.5098,0.5108,0.5283,0.5733,0.5823,0.632,0.7559,0.8154,0.8952,1.0195,1.0322,1.0694,1.1567,1.1626,1.18,1.2203,1.2223,1.2428,1.2895,1.2905,1.2905,1.2905,1.2905,1.2905,1.2905,1.2905,1.2905,1.2905,1.2905,1.2905,1.2905,1.2905,1.2905,1.2905,1.2905,1.2905,1.2905,1.2905,1.2905,1.2968,1.3552,1.3768,1.3779,1.3792,1.3802,1.3768,1.3805,1.3794,1.4018,1.5184,1.5959,1.6429,1.6441,1.6475,1.6475,1.6488,1.65,1.6638,1.7247,1.7398,1.7561,1.8078,1.8594,1.8983,1.9008,1.9911,2.0842,2.1408,2.1945,2.2468,2.3007,2.3572,2.3808,2.3361,2.4636,2.5345,2.4945,2.4551,2.4502,2.4945,2.5908,2.6452,2.6452,2.6487,2.6499,2.6499,2.6499,2.6499,2.6499,2.6499,2.6499,2.6499,2.704,2.7291,2.7268,2.7808,2.8059,2.8059,2.8059,2.8059,2.8059,2.8059,2.8059,2.8059,2.8059,2.8059,2.8059,2.8059,2.7381,2.6499,0.5098,0.5098,0.5098,0.5098,0.5098,0.5098,0.5098,0.5098,0.5156,0.5322,0.5606,0.0,0.0,0.0,0.0,0.0,0.9111,0.9805,1.0674,1.0733,1.1056,1.178,1.2047,1.2272,1.2418,1.2734,1.2905,1.2905,1.2905,1.2905,1.2905,1.2905,1.2905,1.2905,1.2905,1.2905,1.2905,1.2905,1.2905,1.2905,1.2905,1.3152,1.3413,1.2714,1.2868,1.3426,0.0,1.2939,1.3262,1.3661,1.3529,1.3334,1.4143,1.412,1.4114,1.5672,1.6018,1.6093,1.6875,1.681,1.6588,1.6999,1.7087,1.7237,1.7802,1.8216,1.8506,1.8694,1.9484,2.0138,2.0138,2.1016,2.182,2.2008,2.2468,2.2895,2.3083,2.364,2.4066,2.4267,2.5062,2.5711,2.5963,2.584,2.5815,2.5965,2.6314,2.6499,2.6499,2.6499,2.6499,2.6499,2.6851,2.704,2.704,2.7369,2.7557,2.7557,2.7745,2.7821,2.7833,2.8021,2.8109,2.8109,2.8109,2.8109,2.8109,2.8109,2.8109,2.8109,2.8109,2.8109,2.8109,2.8109,2.7871,2.7557,0.5098,0.5175,0.5243,0.5243,0.5243,0.0,0.0,0.0,0.0,0.0,0.0,0.0,0.0,0.0,0.0,0.0,0.0,0.9082,0.9794,0.9971,1.0361,1.1095,1.1523,1.1804,1.1992,1.2289,1.2514,1.2646,1.2646,1.2725,1.2905,1.2905,1.2905,1.2905,1.2905,1.2905,1.2905,1.2905,1.2993,1.3076,1.2773,1.2988,1.3372,1.2368,1.2423,0.0,1.2239,1.2178,1.2545,1.3246,1.3348,1.3406,1.4387,1.4867,1.5268,1.6177,1.6343,1.6408,1.7185,1.7112,1.6961,1.7539,1.7677,1.7815,1.8367,1.8744,1.9058,1.9246,1.9861,2.0377,2.0377,2.1267,2.202,2.202,2.2619,2.3108,2.3108,2.3772,2.4418,2.475,2.546,2.6084,2.6461,2.6499,2.6499,2.6499,2.6499,2.6499,2.6499,2.6688,2.6788,2.6788,2.7329,2.7582,2.7582,2.7921,2.821,2.8398,2.8398,2.8511,2.8712,2.8712,2.8712,2.8712,2.8712,2.8712,2.8712,2.8712,2.8712,2.8712,2.8712,2.8712,2.8712,2.8712,2.8712,2.8649,0.5117,0.5339,0.5521,0.0,0.0,0.0,0.0,0.0,0.0,0.0,0.0,0.0,0.0,0.0,0.0,0.0,0.0,0.0,0.8945,0.9328,0.9747,1.0215,1.0645,1.1074,1.1528,1.1577,1.179,1.2174,1.2174,1.2412,1.2837,1.2837,1.2837,1.2837,1.2837,1.2861,1.2861,1.2861,1.3086,1.3406,1.2567,1.2516,1.2805,1.1906,1.1591,1.1632,1.1569,1.1567,1.1734,1.2596,1.3362,1.398,1.4537,1.59,1.7202,1.6645,1.6904,1.7353,1.7413,1.7448,1.7574,1.8103,1.8242,1.8368,1.892,1.9045,1.9183,1.9698,1.9823,1.9849,1.9849,2.074,2.1493,2.1531,2.238,2.307,2.3108,2.4073,2.4788,2.4788,2.582,2.6499,2.6499,2.6499,2.6499,2.6537,2.6537,2.6537,2.6537,2.7065,2.7318,2.7318,2.7858,2.8147,2.8147,2.8185,2.8448,2.8938,2.8938,2.9264,2.9792,2.9792,2.9792,2.9792,2.9792,2.9792,2.9792,2.9792,2.9792,2.9792,2.9792,2.9792,2.9792,2.9792,2.9792,2.9641,0.0,0.0,0.0,0.0,0.0,0.0,0.0,0.0,0.0,0.0,0.0,0.0,0.0,0.0,0.0,0.0,0.0,0.0,0.8522,0.8659,0.8887,0.9316,1.0039,1.0518,1.0625,1.1273,1.1655,1.1751,1.1751,1.1809,1.1917,1.1917,1.1917,1.1917,1.1917,1.2131,1.2443,1.2443,1.2703,1.3107,1.2893,1.291,1.2903,1.1645,1.1595,1.2059,1.1015,1.1036,1.175,1.2715,1.3978,1.5084,1.4789,1.5335,1.6108,1.6362,1.6531,1.6852,1.7749,1.8003,1.8129,1.8657,1.8795,1.8933,1.9459,1.961,1.9635,1.9773,2.015,2.0478,2.0478,2.1043,2.1619,2.2033,2.2334,2.2631,2.3045,2.4073,2.4788,2.4788,2.582,2.6499,2.6499,2.6499,2.6663,2.7077,2.7115,2.7115,2.7115,2.7595,2.7896,2.7896,2.8436,2.8687,2.8687,2.9151,2.944,2.9578,2.9578,2.9641,2.9792,2.9792,2.9792,2.9792,2.9792,2.9792,2.9792,2.9792,2.9792,2.9792,2.9792,2.9792,2.9792,2.9792,2.9792,2.9754,0.0,0.0,0.0,0.0,0.0,0.0,0.0,0.0,0.0,0.0,0.0,0.0,0.0,0.0,0.0,0.0,0.0,0.0,0.0,0.8287,0.8502,0.8721,0.9365,0.9717,0.9717,1.0215,1.0547,1.0713,1.0929,1.1115,1.1301,1.1496,1.1606,1.1606,1.1606,1.1869,1.2298,1.2298,1.2552,0.0,0.0,1.2363,1.2226,1.105,1.0927,1.1285,1.0505,1.1134,1.2463,1.3265,1.4452,1.5588,1.5511,1.59,1.6408,1.6435,1.6788,1.7345,1.8022,1.838,1.8669,1.9233,1.9334,1.9447,1.9736,1.9623,1.9434,1.9434,1.9522,1.961,1.961,2.0225,2.0853,2.1154,2.1832,2.2422,2.2706,2.3722,2.4556,2.4763,2.5561,2.6223,2.6461,2.6499,2.6725,2.7278,2.7281,2.7394,2.7632,2.816,2.8461,2.8461,2.9013,2.9302,2.9302,2.9628,2.9792,2.9792,2.9792,2.9792,2.9792,2.9792,2.9792,2.9792,0.0,2.9792,2.9792,2.9792,2.9792,2.9792,2.9792,2.9792,2.9792,2.9792,2.9792,2.9792,0.0,0.0,0.0,0.0,0.0,0.0,0.0,0.0,0.0,0.6245,0.6065,0.6287,0.698,0.7427,0.0,0.0,0.0,0.0,0.0,0.0,0.8228,0.8228,0.8613,0.8857,0.8916,0.8975,0.9162,0.9533,0.9922,1.0303,1.0664,1.1066,1.1242,1.1263,1.1305,1.1611,1.2047,1.2077,1.2343,1.2649,1.1897,1.148,1.1217,0.0,1.0104,1.0099,1.0184,1.1491,1.3288,1.3906,1.4824,1.582,1.6324,1.6861,1.7184,1.6638,1.7275,1.8091,1.8091,1.8481,1.9008,1.9472,1.9597,1.9597,1.9597,1.9246,1.8895,1.8895,1.8506,1.8204,1.8204,1.8957,1.9635,1.9773,2.1091,2.2146,2.2284,2.3288,2.4205,2.4725,2.5272,2.5858,2.6436,2.6499,2.6751,2.7344,2.7394,2.7632,2.8185,2.87,2.9001,2.9001,2.9528,2.9792,2.9792,2.9792,2.9792,2.9792,2.9792,2.9792,2.9792,2.9792,2.9792,2.9792,2.9792,2.9792,2.9792,2.9792,2.9792,2.9792,2.9792,2.9792,2.9792,2.9792,2.9792,2.9792,0.0,0.0,0.0,0.0,0.0,0.0,0.0,0.0,0.0,0.0,0.7448,0.7259,0.0,0.0,0.0,0.0,0.0,0.0,0.0,0.0,0.0,0.7324,0.771,0.81,0.8493,0.8828,0.9043,0.9094,0.9189,0.9268,0.9336,0.9414,0.9443,0.9461,0.9788,1.0213,1.0664,1.0939,1.1364,1.1797,1.1661,1.129,1.0775,1.0356,0.0,0.0,1.057,1.1572,1.2782,1.3767,1.5106,1.6358,1.6466,1.6563,1.6647,1.6525,1.6999,1.7549,1.7549,1.7928,1.8367,1.8455,1.848,1.848,1.848,1.8417,1.8342,1.8342,1.8267,1.8204,1.8204,1.8355,1.8769,1.966,2.0451,2.1295,2.2184,2.3288,2.4205,2.4725,2.5272,2.5858,2.6436,2.6499,2.6914,2.7883,2.7959,2.821,2.8712,2.9327,2.9641,2.9641,2.9741,2.9792,2.9792,2.9792,2.9792,2.9792,2.9792,2.9792,2.9792,2.9792,2.9792,2.9792,2.9792,0.0,2.9792,2.9792,2.9792,2.9792,2.9792,2.9792,2.9792,2.9792,2.9792,2.9792,0.0,0.0,0.0,0.0,0.0,0.0,0.0,0.8718,0.8765,0.8811,0.8775,0.8681,0.8509,0.8694,0.882,0.0,0.0,0.0,0.0,0.0,0.0,0.6938,0.7126,0.7532,0.8167,0.8382,0.8535,0.8627,0.0,0.8858,0.8682,0.8906,0.9106,0.9315,0.9516,0.9956,1.057,1.0732,1.0771,1.0723,1.0723,1.0207,0.9466,0.9588,0.0,0.0,1.0958,1.1768,1.2653,1.4055,1.5211,1.6132,1.64,1.65,1.65,1.65,1.6923,1.741,1.741,1.779,1.8204,1.8204,1.8204,1.8204,1.8204,1.7978,1.7777,1.7777,1.7539,1.7325,1.7325,1.7576,1.8041,1.8844,1.9673,2.0614,2.1732,2.2598,2.354,2.4662,2.5046,2.5523,2.6411,2.6751,2.7266,2.8047,2.8373,2.8787,2.9352,2.9641,2.9792,2.9792,2.9792,2.9792,2.9792,2.9792,2.9792,2.9792,2.9792,2.9792,2.9792,2.9792,2.9792,2.9792,2.9792,2.9792,2.9792,2.9792,2.9792,2.9792,2.9792,2.9792,2.9792,2.9792,2.9792,2.9792,0.0,0.0,0.0,0.0,0.0,0.0,0.0,0.9737,0.9815,0.9554,0.9725,0.9802,0.9528,0.9502,0.9502,0.0,0.0,0.0,0.0,0.0,0.0,0.0,0.0,0.0,0.7989,0.0,0.0,0.8407,0.8725,0.0,0.0,0.0,0.0,0.0,0.9489,0.9837,1.0315,1.0389,1.0102,0.0,0.0,0.9052,0.8361,0.0,0.0,0.0,0.0,1.1864,1.2479,1.4155,1.5085,1.5618,1.617,1.64,1.65,1.65,1.6835,1.72,1.72,1.7513,1.784,1.784,1.784,1.784,1.784,1.7501,1.72,1.72,1.6835,1.65,1.65,1.6886,1.7388,1.794,1.8932,2.0024,2.1182,2.1895,2.2907,2.4587,2.4788,2.5259,2.6386,2.7002,2.7507,2.8059,2.8737,2.9315,2.9767,2.9792,2.9792,2.9792,2.9792,2.9792,2.9792,2.9792,2.9792,2.9792,2.9792,2.9792,2.9792,2.9792,2.9792,2.9792,2.9792,2.9792,2.9792,2.9792,2.9792,2.9792,2.9792,2.9792,2.9792,2.9792,2.9792,2.9792,0.0,0.0,0.0,0.0,0.0,0.0,0.0,0.988,0.9893,0.9854,0.988,0.9893,0.9854,0.9854,0.9854,0.0,0.0,0.0,0.0,0.0,0.0,0.0,0.0,0.0,0.0,0.0,0.0,0.8748,0.8792,0.0,0.0,0.0,0.0,0.0,0.0,0.9146,0.8737,0.9096,0.0,0.0,0.0,0.0,0.0,0.0,0.0,0.0,0.0,1.164,1.193,1.3607,1.4525,1.506,1.5593,1.612,1.65,1.65,1.6538,1.6575,1.6575,1.6613,1.6651,1.6651,1.6651,1.6651,1.6651,1.6613,1.6575,1.6575,1.6538,1.65,1.65,1.6538,1.6785,1.7385,1.838,1.9459,2.0616,2.1644,2.2907,2.4587,2.4788,2.5259,2.6386,2.7002,2.7507,2.8059,2.9101,2.9729,2.9792,2.9792,2.9792,2.9792,2.9792,2.9792,2.9792,2.9792,2.9792,2.9792,2.9792,2.9792,2.9792,2.9792,2.9792,2.9792,2.9792,2.9792,0.0,2.9792,2.9792,2.9792,2.9792,2.9792,2.9792,2.9792,2.9792,2.9792,0.0,0.0,0.0,0.0,0.0,0.0,0.9818,0.9905,0.9905,0.9905,0.9905,0.9905,0.9905,0.9905,0.9905,0.9905,0.0,0.0,0.0,0.0,0.0,0.0,0.0,0.0,0.0,0.0,0.8822,0.9168,0.9168,0.0,0.0,0.0,0.0,0.0,0.0,0.92,0.8874,0.903,0.0,0.0,0.0,0.0,0.0,0.0,0.0,0.0,0.0,0.0,1.1804,1.3119,1.4167,1.4984,1.5517,1.607,1.65,1.65,1.65,1.65,1.65,1.65,1.65,1.65,1.65,1.65,1.65,1.6237,1.6019,1.6019,1.5756,1.563,1.5957,1.6019,1.6321,1.726,1.8028,1.9032,2.049,2.1358,2.256,2.455,2.4788,2.5259,2.6386,2.7291,2.8147,2.9051,2.9541,2.9792,2.9792,2.9792,2.9792,2.9792,2.9792,2.9792,2.9792,2.9792,2.9792,2.9792,2.9792,2.9792,2.9792,2.9792,2.9792,2.9792,2.9792,2.9792,0.0,2.9792,2.9792,2.9792,2.9792,2.9792,2.9792,2.9792,2.9792,2.9792,0.0,0.0,0.0,0.0,0.0,0.9466,0.9843,0.9905,0.9905,0.9905,0.9905,0.9905,0.9905,0.9905,0.9905,0.9905,0.8885,0.0,0.0,0.0,0.0,0.0,0.0,0.0,0.0,0.0,0.9243,0.9541,0.9541,0.9356,0.0,0.0,0.9224,0.9408,0.0,0.0,0.0,0.0,0.0,0.0,0.0,0.0,0.0,0.0,0.0,0.0,0.0,0.0,0.0,0.0,0.0,1.4765,1.5299,1.5831,1.6287,1.645,1.65,1.65,1.65,1.65,1.65,1.65,1.65,1.645,1.6287,1.5969,1.5643,1.5512,1.516,1.506,1.5593,1.5693,1.6007,1.6974,1.7727,1.8719,2.0226,2.1056,2.2322,2.4525,2.4788,2.5259,2.6386,2.7457,2.8574,2.9704,2.9792,2.9792,2.9792,2.9792,2.9792,2.9792,2.9792,2.9792,2.9792,2.9792,2.9792,2.9792,2.9792,2.9792,2.9792,2.9792,2.9792,2.9792,2.9792,2.9792,0.0,2.9792,2.9792,2.9792,2.9792,2.9792,2.9792,2.9792,2.9792,2.9792,0.0,0.0,0.0,0.0,0.0,0.0,0.9905,0.9905,0.9905,0.9905,0.9905,0.9905,0.9905,0.9905,0.9905,0.9905,0.9403,0.0,0.0,0.0,0.0,0.0,0.0,0.0,0.0,0.0,0.9365,0.9893,0.9893,0.9725,0.9408,0.9725,0.9712,0.9421,0.0,0.0,0.0,0.0,0.0,0.0,0.0,0.0,0.0,0.0,0.0,0.0,0.0,0.0,0.0,0.0,0.0,0.0,0.0,1.5286,1.5806,1.6337,1.65,1.65,1.65,1.65,1.65,1.65,1.65,1.635,1.5831,1.5706,1.5563,1.5009,1.4896,1.506,1.5593,1.5693,1.5881,1.6412,1.7476,1.8581,1.966,2.0778,2.2322,2.4525,2.4788,2.5259,2.6386,2.7457,2.8574,2.9704,2.9792,0.0,2.9792,2.9792,2.9792,2.9792,2.9792,2.9792,2.9792,2.9792,2.9792,2.9792,2.9792,2.9792,2.9792,2.9792,2.9792,2.9792,2.9792,2.9792,0.0,2.9792,2.9792,2.9792,2.9792,2.9792,2.9792,2.9792,2.9792,2.9792,0.0,0.0,0.0,0.0,0.0,0.0,0.0,0.9905,0.9905,0.9905,0.9905,0.9905,0.9905,0.9905,0.9905,0.9905,0.9415,0.0,0.0,0.0,0.0,0.0,0.0,0.0,0.0,0.9818,1.0281,1.0444,1.086,1.1005,1.0904,1.1005,1.1005,1.0891,1.0578,1.0143,0.0,0.0,0.0,0.0,0.0,0.0,0.0,0.0,0.0,0.0,0.0,0.0,0.0,0.0,0.0,0.0,0.0,0.0,0.0,1.5906,1.6199,1.65,1.65,1.65,1.65,1.65,1.6212,1.5906,1.5731,1.5135,1.4563,1.4387,1.4029,1.4036,1.4984,1.5148,1.5462,1.635,1.7476,1.8581,1.9648,2.0778,2.2322,2.4525,2.5485,2.6377,2.7482,2.7896,2.8574,2.9704,2.9792,2.9792,2.9792,2.9792,2.9792,2.9792,2.9792,2.9792,2.9792,2.9792,2.9792,2.9792,2.9792,2.9792,2.9792,2.9792,2.9792,2.9792,2.9792,2.9792,2.9792,2.9792,2.9792,2.9792,2.9792,2.9792,2.9792,2.9792,2.9792,2.9792,0.0,0.0,0.0,0.0,0.0,0.0,0.0,0.9905,0.9905,0.9905,0.9905,0.9905,0.9905,0.9905,0.9905,0.9905,0.9604,0.0,0.0,0.0,0.0,0.0,0.0,0.0,0.9679,1.0356,1.082,1.1034,1.1412,1.1603,1.1603,1.1603,1.1603,1.159,1.1211,1.0734,0.0,0.0,0.0,0.0,0.0,0.0,0.9126,0.0,0.0,0.0,0.0,0.0,0.0,0.0,0.0,0.0,0.0,0.0,0.0,0.0,1.5944,1.6237,1.6437,1.65,1.65,1.65,1.6237,1.5957,1.5743,1.5185,1.4651,1.4437,1.4104,1.4124,1.5035,1.5198,1.55,1.635,1.7476,1.8581,1.9648,2.0778,2.2322,2.4525,2.582,2.6927,2.7996,2.8109,2.8574,2.9704,2.9792,2.9792,2.9792,2.9792,2.9792,2.9792,2.9792,2.9792,2.9792,2.9792,2.9792,2.9792,2.9792,2.9792,2.9792,2.9792,2.9792,2.9792,2.9792,2.9792,0.0,2.9792,2.9792,2.9792,2.9792,2.9792,2.9792,2.9792,2.9792,2.9792,0.0,0.0,0.0,0.0,0.0,0.0,0.0,0.9905,0.9905,0.9905,0.9905,0.9905,0.9905,0.9905,0.9905,0.9905,0.0,0.0,0.0,0.0,0.0,0.0,0.0,0.0,1.0745,1.0845,1.1171,1.1779,1.1816,1.1842,1.1842,1.1842,1.1842,1.1829,1.1754,1.1337,0.0,0.0,0.0,0.0,0.8612,0.8712,0.0,0.0,0.0,0.0,0.0,0.0,0.0,0.0,0.0,0.0,0.0,0.0,0.0,0.0,0.0,0.0,0.0,1.6437,1.65,1.65,1.6463,1.63,1.5806,1.5668,0.0,1.4997,1.4896,1.506,1.5593,1.5693,1.5894,1.6463,1.7466,1.8593,1.971,2.0941,2.2498,2.4569,2.5824,2.6964,2.7996,2.8134,2.8612,2.9716,2.9792,2.9792,2.9792,2.9792,2.9792,2.9792,2.9792,2.9792,2.9792,2.9792,2.9792,2.9792,2.9792,2.9792,2.9792,2.9792,2.9792,0.0,2.9792,2.9792,2.9792,2.9792,2.9792,2.9792,2.9792,2.9792,2.9792,2.9792,2.9792,2.9792,0.0,0.0,0.0,0.0,0.0,0.0,0.0,0.0,0.0,0.0,0.9905,0.9905,0.9905,0.9905,0.9905,0.0,0.0,0.0,0.0,0.0,0.0,0.0,0.0,0.0,1.1362,1.22,1.2918,1.3506,1.3921,1.4117,1.4117,1.4117,1.4117,1.4079,1.322,1.2021,0.0,0.0,0.0,0.0,0.9579,0.9604,0.0,0.0,0.0,0.0,0.9905,0.9981,0.0,0.0,0.0,0.0,0.0,0.0,0.0,0.0,1.4777,1.511,1.5248,0.0,1.65,1.65,1.6195,1.5856,0.0,1.5387,1.5047,1.4941,1.4896,1.506,1.5593,1.5693,1.6019,1.7033,1.7752,1.8731,2.0277,2.2523,2.423,2.4725,2.6163,2.7356,2.8047,2.8486,2.9026,2.9741,2.9792,2.9792,2.9792,2.9792,2.9792,2.9792,2.9792,2.9792,2.9792,2.9792,2.9792,2.9792,2.9792,2.9792,2.9792,2.9792,2.9792,2.9792,2.9792,2.9792,2.9792,2.9792,2.9792,2.9792,2.9792,2.9792,2.9792,2.9792,2.9792,2.9792,0.0,0.0,0.0,0.0,0.0,0.0,0.0,0.0,0.0,0.0,0.0,0.9905,0.9905,0.9905,0.0,0.0,0.0,0.0,0.0,0.0,0.0,0.0,0.0,1.1199,1.23,1.317,1.3891,1.4462,1.4765,1.4896,1.4896,1.4896,1.4896,1.4846,1.3704,1.2425,0.0,0.0,0.0,0.0,0.9629,0.0,0.0,0.0,0.0,0.0,0.9905,0.9905,0.0,1.0231,1.0507,1.0806,0.0,0.0,0.0,0.0,1.4079,1.4588,1.4821,1.5512,1.6132,1.6132,1.6107,1.607,1.607,1.5844,1.563,1.563,1.563,1.5718,1.6019,1.6283,1.6672,1.731,1.8254,1.961,2.1531,2.354,2.4876,2.5146,2.6427,2.7494,0.0,2.8574,2.9126,2.9741,2.9792,2.9792,2.9792,2.9792,2.9792,2.9792,2.9792,2.9792,2.9792,2.9792,2.9792,2.9792,2.9792,2.9792,2.9792,2.9792,2.9792,2.9792,2.9792,2.9792,2.9792,2.9792,2.9792,2.9792,2.9792,2.9792,2.9792,2.9792,2.9792,2.9792,0.0,0.0,0.0,0.0,0.0,0.0,0.0,0.0,0.0,0.0,0.0,0.0,0.0,0.0,0.0,0.0,0.0,0.0,0.0,0.0,0.0,0.0,1.1412,1.2228,1.3315,1.3991,1.4614,1.5148,1.5148,1.5148,1.5148,1.5148,1.5097,1.4972,1.3917,1.2801,1.1638,0.0,0.0,0.0,0.9403,0.0,0.0,0.0,0.0,0.0,0.0,0.0,0.0,0.9905,1.0193,1.062,1.0769,0.0,0.0,0.0,0.0,0.0,1.4639,1.5173,1.5613,1.5668,1.6107,1.65,1.65,1.65,1.65,1.65,1.65,1.6525,1.6613,1.7049,1.7486,1.7737,1.9196,2.0966,2.2844,2.4148,2.5109,2.5548,2.6666,2.7595,2.8059,2.8687,2.9264,2.9754,2.9792,2.9792,2.9792,2.9792,2.9792,2.9792,2.9792,2.9792,2.9792,2.9792,2.9792,2.9792,2.9934,2.9998,2.9998,3.0139,3.0152,3.0037,0.0,0.0,2.9998,2.9998,2.9998,2.9998,2.9869,2.9908,2.9998,2.9998,3.0113,3.0216,0.0,0.0,0.0,0.0,0.0,0.0,0.0,0.0,0.0,0.0,0.0,0.0,0.0,0.0,0.0,0.0,0.0,0.0,0.0,0.0,0.0,1.1437,1.1989,1.2806,1.3934,1.4934,1.5718,1.6237,1.6237,1.6237,1.6237,1.6237,1.6019,1.5563,1.4921,1.3765,1.2241,1.1615,0.0,0.9893,0.9805,0.0,0.0,0.0,0.0,0.0,0.0,0.0,0.0,0.9905,0.9956,1.0194,1.1161,0.0,0.0,0.0,0.0,0.0,1.406,1.4614,1.5135,1.558,1.6107,1.65,1.65,1.65,1.65,1.65,1.65,1.6672,1.7162,1.7348,1.7863,1.9208,2.1202,2.2706,2.3058,2.4481,2.5511,2.5586,2.7005,2.8009,2.8097,2.9051,2.9691,2.9779,2.9792,2.9792,2.9792,2.9792,2.9792,2.9792,2.9792,2.9792,2.9792,2.9792,2.9792,2.9792,3.0595,3.097,3.1007,3.1829,3.1756,3.1044,0.0,3.1719,3.097,3.097,3.097,3.0895,3.0101,3.0279,3.097,3.097,3.1513,3.2177,0.0,0.0,0.0,0.0,0.0,0.0,0.0,0.0,0.0,0.0,0.0,0.0,0.0,0.0,0.0,0.0,0.0,0.0,0.0,0.0,1.0971,1.1578,1.2696,1.3707,1.4513,1.5567,1.6237,1.65,1.65,1.65,1.65,1.65,1.6199,1.5668,1.5135,1.4142,1.2789,1.1952,1.1111,1.0306,0.0,0.0,0.0,0.0,0.0,0.0,0.0,0.0,0.0,0.0,0.9905,0.9993,1.0522,0.0,0.0,0.0,0.0,0.0,1.3946,1.4488,1.5022,1.5575,1.6107,1.65,1.65,1.65,1.65,1.65,1.6773,1.7061,1.736,1.8103,1.9233,2.0891,2.2243,2.3321,2.3935,2.4946,2.5824,2.644,0.0,2.8222,2.8487,2.9302,2.9792,2.9792,2.9792,2.9792,2.9792,3.0279,3.0558,3.0558,3.1057,3.1304,3.1304,3.1304,3.1057,3.0558,3.1513,3.196,3.196,3.2393,3.2357,3.1997,0.0,3.2357,3.196,3.196,3.196,3.1924,3.1476,3.1586,3.196,3.196,3.2249,3.2593,0.0,0.0,0.0,0.0,0.0,0.0,0.0,0.0,0.0,0.0,0.0,0.0,0.0,0.0,0.0,0.0,0.0,0.0,0.0,1.0532,1.1123,1.159,1.333,1.4475,1.4884,1.5957,1.65,1.65,1.65,1.65,1.65,1.65,1.6274,1.5856,1.5336,1.445,1.3341,1.2379,1.1472,1.0656,0.0,0.0,0.0,0.0,0.0,0.0,0.0,0.0,0.0,0.0,0.0,0.0,0.0,0.0,0.0,1.1902,1.2667,1.3546,1.4135,1.4676,1.5223,1.5756,1.6208,1.65,1.65,1.66,1.6722,1.6722,1.7174,1.7652,1.7926,1.9284,2.0853,2.2243,2.3058,2.3847,2.4838,2.546,2.6163,2.7168,2.777,2.8323,2.8838,2.9453,2.9792,2.9792,2.9998,3.0139,3.0139,3.1007,3.1536,3.1536,3.2249,3.2593,3.2593,3.282,3.2464,3.1536,3.25,3.2925,3.2961,3.3171,3.3136,3.2961,3.3185,3.315,3.2925,3.2925,3.2925,3.2925,3.2713,3.2749,3.2961,3.3185,3.329,3.329,0.0,0.0,0.0,0.0,0.0,0.0,0.0,0.0,0.0,0.0,0.0,0.0,0.0,0.0,0.0,0.0,0.0,0.0,0.0,1.0937,1.1538,1.1603,1.3677,1.4865,1.4896,1.5957,1.65,1.65,1.65,1.65,1.65,1.65,1.6475,1.6412,1.5881,1.5047,1.3984,1.3358,1.2159,1.0694,1.0656,0.0,0.0,0.0,0.0,0.0,0.0,0.0,0.0,0.0,0.0,0.0,0.0,0.0,1.1804,1.2801,1.3534,1.4148,1.4702,1.5236,1.5768,1.63,1.6463,1.65,1.65,1.6936,1.7348,1.7348,1.7765,1.8455,1.9447,2.1004,2.2305,2.2945,2.396,2.4863,2.546,2.6072,2.665,2.7241,2.777,2.8323,2.8838,2.9453,2.9792,2.9792,3.0595,3.1106,3.1106,3.1997,3.25,3.25,3.2558,3.2593,3.2593,3.3449,3.3415,3.25,3.3449,3.391,3.391,3.4887,3.4773,3.3959,3.4887,3.4773,3.391,3.391,3.391,3.3808,3.2961,3.3136,3.3993,3.4953,3.5279,3.5279,0.0,0.0,0.0,0.0,0.0,0.0,0.0,0.0,0.0,0.0,0.0,0.0,0.0,0.0,0.0,0.0,0.0,0.0,0.0,1.096,1.1603,1.1603,1.3715,1.4896,1.4896,1.5957,1.65,1.65,1.65,1.65,1.65,1.65,1.65,1.6475,1.5944,1.5299,1.4538,1.3591,1.245,1.1236,1.0858,1.0382,0.0,0.0,0.0,0.0,0.0,0.0,0.0,0.0,0.9905,1.0031,1.0795,1.1299,1.1801,1.2902,1.3622,1.4286,1.516,1.5563,1.5919,1.6823,1.7049,1.7049,1.7049,1.7488,1.799,1.8342,1.8832,1.9748,2.1515,2.2368,2.3095,2.401,2.4808,2.5372,2.5573,2.6389,2.7216,2.772,2.8285,2.88,2.9415,2.9666,3.0037,3.062,3.1007,3.1462,3.2033,3.2961,3.3449,3.3449,3.4075,3.4409,3.4409,3.4773,3.4739,3.4409,3.4773,3.4953,3.4953,3.5326,3.5279,3.4953,3.5311,3.5279,3.4953,3.4953,3.4953,3.4905,3.4558,3.4624,3.4986,3.5359,3.5504,3.5504,0.0,0.0,0.0,0.0,0.0,0.0,0.0,0.0,0.0,0.0,0.0,0.0,0.0,0.0,0.0,0.0,0.0,0.0,0.9843,1.096,1.1603,1.1603,1.3715,1.4896,1.4896,1.5957,1.65,1.65,1.65,1.65,1.65,1.65,1.65,1.6475,1.612,1.5555,1.4846,1.4074,1.3019,1.1801,1.1209,1.0645,0.0,0.0,0.0,0.0,0.0,0.0,0.0,0.0,0.9905,1.0031,1.0745,1.1274,1.1854,1.3107,1.3903,1.4551,1.5462,1.5957,1.6409,1.7209,1.7639,1.7903,1.7903,1.8317,1.8819,1.9171,2.0086,2.129,2.2819,2.3396,2.3948,2.4908,2.536,2.5724,2.6076,2.6791,2.7557,2.8285,2.8662,2.9252,3.0152,3.0241,3.0633,3.1573,3.1924,3.2357,3.3031,3.3959,3.4461,3.4461,3.5133,3.5504,3.5504,3.5504,3.5504,3.5504,3.5504,3.5504,3.5504,3.5504,3.5504,3.5504,3.5504,3.5504,3.5504,3.5504,3.5504,3.5504,3.5504,3.5504,3.5504,3.5504,3.5504,3.5504,0.0,0.0,0.0,0.0,0.0,0.0,0.0,0.0,0.0,0.0,0.0,0.0,0.0,0.0,0.0,0.0,0.0,0.0,0.9868,1.096,1.1603,1.1603,1.3715,1.4884,1.4896,1.5957,1.65,1.65,1.65,1.65,1.65,1.65,1.65,1.65,1.65,1.5906,1.4896,1.4896,1.3941,1.235,1.1829,1.1236,1.0631,0.0,0.0,0.0,0.0,0.0,0.0,0.0,0.9905,1.0094,1.1224,1.1603,1.193,1.3624,1.4475,1.5009,1.5555,1.6522,1.7398,1.741,1.8216,1.9008,1.9008,1.9421,1.9823,1.9836,2.1578,2.3108,2.312,2.4036,2.4963,2.5523,2.5598,2.6,2.7118,2.7329,2.7708,2.8762,2.89,2.9528,3.1053,3.1217,3.1609,3.2522,3.3449,3.3993,3.4027,3.4953,3.5504,3.5504,3.5504,3.5504,3.5504,3.5504,3.5504,3.5504,3.5504,3.5504,3.5504,3.5504,3.5504,3.5504,3.5504,3.5504,3.5504,3.5504,3.5504,3.5504,3.5504,3.5504,3.5504,3.5504,3.5504,3.5504,0.0,0.0,0.0,0.0,0.0,0.0,0.0,0.0,0.0,0.0,0.0,0.0,0.0,0.0,0.0,0.0,0.0,0.0,0.9868,1.096,1.1603,1.1603,1.3355,1.4513,1.4884,1.5957,1.65,1.65,1.65,1.65,1.65,1.65,1.65,1.65,1.65,1.5906,1.4896,1.4896,1.3941,1.235,1.1829,1.1236,1.0631,0.0,0.0,0.0,0.0,0.0,0.0,0.0,0.0,0.0,1.0733,1.1261,1.193,1.3624,1.4475,1.5097,1.6019,1.6522,1.6961,1.7765,1.8204,1.8756,1.9937,2.0602,2.1204,2.1954,2.297,2.3866,2.4224,2.4895,2.5548,2.6147,2.6562,2.6904,2.7231,2.7946,2.8561,2.885,2.9868,3.0712,3.1167,3.1815,3.2558,3.3518,3.3842,3.4312,3.5019,3.5359,3.5504,3.5504,3.5504,3.5504,3.5504,3.5504,3.5504,3.5504,3.5504,3.5504,3.5504,3.5504,3.5504,3.5504,3.5504,3.5504,3.5504,3.5504,3.5504,3.5504,3.5504,3.5504,3.5504,3.5504,3.5504,3.5504,0.0,0.0,0.0,0.0,0.0,0.0,0.0,0.0,0.0,0.0,0.6599,0.6599,0.0,0.0,0.0,0.0,0.0,0.0,0.9868,1.0747,1.1349,1.159,1.2973,1.4205,1.5198,1.5856,1.6296,1.65,1.65,1.65,1.65,1.65,1.65,1.65,1.65,1.5906,1.4896,1.4896,1.4067,1.2651,1.1902,1.1374,1.0971,0.0,0.0,0.0,0.0,0.0,0.0,0.0,0.0,0.0,1.0683,1.1226,1.193,1.3624,1.4475,1.5135,1.6199,1.6663,1.7074,1.7978,1.8367,1.902,2.0891,2.1581,2.2133,2.3221,2.3929,2.4494,2.5034,2.5573,2.616,2.6725,2.7102,2.7444,2.7871,2.8511,2.9114,2.9754,3.0649,3.1499,3.2249,3.282,3.3567,3.4509,3.461,3.4872,3.5472,3.5504,3.5504,3.5504,3.5504,3.5504,3.5504,3.5504,3.5504,3.5504,3.5504,3.5504,3.5504,3.5504,3.5504,3.5504,3.5504,3.5504,3.5504,3.5504,3.5504,3.5504,3.5504,3.5504,3.5504,3.5504,3.5504,3.5504,0.0,0.0,0.0,0.0,0.0,0.0,0.0,0.0,0.0,0.6599,0.6599,0.6599,0.0,0.0,0.0,0.8238,0.8787,0.9327,0.9868,1.0407,1.0946,1.1487,1.2601,1.3917,1.5442,1.5618,1.5944,1.6425,1.6475,1.65,1.65,1.65,1.65,1.65,1.65,1.5932,1.4959,1.4909,1.4262,1.3203,1.2115,1.164,1.149,1.0395,0.0,0.0,0.0,0.0,0.0,0.0,0.0,0.0,1.0847,1.1345,1.1966,1.3498,1.4418,1.5181,1.6158,1.6861,1.7473,1.8053,1.8707,1.9747,2.1782,2.2359,2.2774,2.3853,2.4506,2.5034,2.5511,2.6164,2.6801,2.7321,2.746,2.7864,2.8887,2.9076,2.9641,3.104,3.1352,3.2141,3.3842,3.4095,3.4509,3.5424,3.5504,3.5504,3.5504,3.5504,3.5504,3.5504,3.5504,3.5504,3.5504,3.5504,3.5504,3.5504,3.5504,3.5504,3.5504,3.5504,3.5504,3.5504,3.5504,3.5504,3.5504,3.5504,3.5504,3.5504,3.5504,3.5504,3.5504,3.5504,3.5504,3.5504,0.0,0.0,0.0,0.0,0.0,0.0,0.0,0.0,0.6599,0.6599,0.6599,0.6599,0.6599,0.7078,0.0,0.8238,0.8787,0.9327,0.9868,1.0407,1.077,1.0896,1.2371,1.3373,1.3729,1.5028,1.5756,1.5869,1.6287,1.65,1.65,1.65,1.65,1.65,1.65,1.6145,1.5512,1.5072,1.4525,1.3808,1.268,1.1977,1.1527,1.0795,1.0442,0.0,0.0,0.0,0.0,0.0,0.0,0.0,1.0199,1.105,1.2149,1.2627,1.3996,1.5433,1.5782,1.6271,1.6948,1.7953,1.9597,2.1079,2.1556,2.2686,2.3828,2.4474,2.5059,2.546,2.5573,2.6609,2.7667,2.831,2.8712,2.9213,2.9967,3.0438,3.0826,3.1167,3.25,3.3567,3.3959,3.4725,3.5279,3.5472,3.5504,3.5504,3.5504,3.5504,3.5504,3.5504,3.5504,3.5504,3.5504,3.5504,3.5504,0.0,3.5504,3.5504,3.5504,3.5504,3.5504,3.5504,3.5504,3.5504,3.5504,3.5504,3.5504,3.5504,3.5504,3.5504,3.5504,3.5504,3.5504,3.5504,0.0,0.0,0.0,0.0,0.0,0.0,0.0,0.0,0.6599,0.6599,0.6599,0.6599,0.6599,0.6853,0.0,0.0,0.8386,0.895,0.9478,1.0018,1.0432,1.0681,1.1811,1.2676,1.3185,1.4055,1.4902,1.5693,1.5982,1.6237,1.65,1.65,1.65,1.65,1.65,1.6187,1.568,1.5412,1.484,1.4009,1.3144,1.2583,1.2182,1.141,1.1035,1.0845,1.0625,0.0,0.0,0.0,0.0,0.0,0.0,0.0,1.2302,1.2778,1.4153,1.5565,1.5897,1.6228,1.6763,1.7928,1.9861,2.1493,2.1493,2.3068,2.4708,2.5305,2.5503,2.5807,2.6493,2.7464,2.8364,2.8979,2.9896,3.0753,3.1375,3.1699,3.2033,3.25,3.338,3.4211,3.4691,3.518,3.5504,3.5504,3.5504,3.5504,3.5504,3.5504,3.5504,3.5504,3.5504,3.5504,3.5504,3.5504,3.5504,3.5504,3.5504,3.5504,3.5504,3.5504,3.5504,3.5504,3.5504,3.5504,3.5504,3.5504,3.5504,3.5504,3.5504,3.5504,3.5504,3.5504,3.5504,3.5504,0.0,0.0,0.0,0.0,0.0,0.0,0.0,0.0,0.0,0.6599,0.6599,0.6599,0.6599,0.6599,0.6815,0.0,0.0,0.0,0.9063,0.9604,1.0106,1.0545,1.1136,1.1848,1.2747,1.3048,1.388,1.5266,1.5467,1.5781,1.6233,1.64,1.65,1.65,1.65,1.6237,1.5831,1.5731,1.5185,1.4311,1.3634,1.3288,1.305,1.2191,1.1786,1.1683,1.1292,1.0897,1.0637,1.1016,0.0,0.0,0.0,0.0,1.2434,1.3154,1.4445,1.5726,1.6177,1.6545,1.702,1.7964,1.971,2.1255,2.1443,2.3299,2.5219,2.6125,2.614,2.64,2.7683,2.8518,2.9188,2.9853,3.1021,3.2068,3.2744,3.2855,3.3136,3.391,3.4143,3.4576,3.5439,3.5504,3.5504,0.0,0.0,3.5504,3.5504,3.5504,3.5504,3.5504,3.5504,3.5504,3.5504,3.5504,3.5504,3.5504,3.5504,3.5504,3.5504,3.5504,3.5504,3.5504,3.5504,3.5504,3.5504,3.5504,3.5504,3.5504,3.5504,3.5504,3.5504,3.5504,3.5504,3.5504,0.0,0.0,0.0,0.0,0.0,0.0,0.0,0.0,0.0,0.0,0.6599,0.6599,0.6599,0.6599,0.6815,0.7356,0.7951,0.8524,0.9063,0.0,0.0,1.0006,1.0532,1.0896,1.1032,1.2459,1.3311,1.3523,1.4513,1.5035,1.5135,1.607,1.65,1.65,1.65,1.645,1.635,1.5906,1.5618,1.5399,1.4387,1.3899,1.3716,1.3061,1.2907,1.3036,1.2983,1.3098,1.3161,1.2378,1.2054,0.0,0.0,0.0,1.2664,1.2761,1.441,1.6217,1.6281,1.7123,1.8,1.8158,1.912,2.0288,2.1267,2.3018,2.4936,2.6754,2.7451,2.7898,2.867,2.9512,3.0449,3.165,3.1972,3.2477,3.365,3.3808,3.3842,3.3993,3.4758,3.5359,3.5504,0.0,0.0,0.0,3.5504,3.5504,3.5504,3.5504,3.5504,3.5504,3.5504,3.5504,3.5504,3.5504,3.5504,3.5504,3.5504,3.5504,3.5504,3.5504,3.5504,3.5504,3.5504,3.5504,3.5504,3.5504,3.5504,3.5504,3.5504,3.5504,3.5504,3.5504,3.5504,3.5504,0.0,0.0,0.0,0.0,0.0,0.0,0.0,0.0,0.0,0.0,0.0,0.6599,0.6599,0.6599,0.6815,0.7356,0.7951,0.8663,0.9503,0.9767,0.9905,0.9905,1.0131,1.0394,1.0681,1.1748,1.2601,1.3198,1.4042,1.4614,1.4916,1.5387,1.5756,1.607,1.6384,1.65,1.6475,1.6237,1.6155,1.6093,1.5323,1.5101,1.5158,1.4367,1.4079,1.4063,1.375,1.3509,1.3291,1.2977,1.2506,1.2067,1.199,0.0,0.0,0.0,1.4655,1.6213,1.6646,1.7649,1.8682,1.9052,1.9996,2.1136,2.2379,2.3878,2.5437,2.7088,2.8197,2.9073,2.9612,3.0313,3.1092,3.206,3.289,3.375,3.4707,3.4839,3.4839,3.4839,3.5246,3.5504,0.0,0.0,0.0,0.0,3.5504,3.5504,3.5504,3.5504,3.5504,3.5504,3.5504,3.5504,3.5504,3.5504,3.5504,3.5504,3.5504,3.5504,3.5504,3.5504,3.5504,3.5504,3.5504,3.5504,3.5504,3.5504,3.5504,3.5504,3.5504,3.5504,3.5504,3.5504,3.5504,3.5504,0.0,0.0,0.0,0.0,0.0,0.0,0.0,0.0,0.0,0.0,0.0,0.7034,0.7034,0.0,0.0,0.0,0.8162,0.8901,0.9843,0.9767,0.9692,0.9692,0.9692,0.988,1.0281,1.101,1.1839,1.2801,1.3375,1.3928,1.4481,1.4607,1.4916,1.5324,1.6007,1.6287,1.63,1.6437,1.6489,1.6446,1.5927,1.5932,1.6208,1.5381,1.5149,1.5217,1.4806,1.446,1.4159,1.3981,1.3473,1.2909,1.3015,1.3254,0.0,0.0,0.0,1.6344,1.7096,1.7954,1.8809,1.9487,2.0414,2.1505,2.2807,2.425,2.5672,2.6969,2.8378,2.955,3.0221,3.0861,3.1502,3.2171,3.3247,3.4277,3.513,3.525,3.531,3.5489,0.0,0.0,0.0,0.0,0.0,0.0,3.5504,3.5504,3.5504,3.5504,3.5504,3.5504,3.5504,3.5504,3.5504,3.5504,3.5504,3.5504,3.5504,3.5504,3.5504,3.5504,3.5504,3.5504,3.5504,3.5504,3.5504,3.5504,3.5504,3.5504,3.5504,3.5504,3.5504,3.5504,3.5504,3.5504,0.0,0.0,0.0,0.0,0.0,0.0,0.0,0.0,0.0,0.0,0.0,0.8211,0.8211,0.8211,0.8223,0.825,0.8749,0.929,0.9855,0.9415,0.9138,0.9138,0.9138,0.0,0.9189,1.0219,1.1046,1.1691,1.2228,1.2764,1.3298,1.3866,1.4166,1.4242,1.5286,1.5731,1.5768,1.6274,1.6497,1.6443,1.5927,1.5938,1.6232,1.5681,1.6014,1.6778,1.675,1.7057,1.7275,1.6069,1.565,1.5382,1.4141,1.3893,1.414,0.0,0.0,0.0,1.7646,1.791,1.811,1.8775,1.9464,2.0293,2.1441,2.3275,2.5098,2.6294,2.7674,2.9041,3.0257,3.102,3.1706,3.2393,3.2557,3.3066,3.4384,3.4563,3.4771,0.0,0.0,0.0,0.0,0.0,0.0,0.0,3.5504,3.5504,3.5504,3.5504,3.5504,3.5504,3.5504,3.5504,3.5504,3.5504,3.5504,3.5504,3.5504,3.5504,3.5504,3.5504,3.5504,3.5504,3.5504,3.5504,3.5504,3.5504,3.5504,3.5504,3.5504,3.5504,3.5504,3.5504,3.5504,3.5504,0.0,0.0,0.0,0.0,0.0,0.0,0.0,0.0,0.0,0.0,0.0,0.0,0.0,0.8298,0.8437,0.8787,0.9302,0.9705,0.988,0.939,0.91,0.91,0.8774,0.8749,0.9088,0.9805,1.0457,1.1021,1.16,1.2165,1.2701,1.3167,1.3433,1.3602,1.5415,1.6011,1.5751,1.6635,1.7209,1.749,1.6945,1.7237,1.7915,1.7366,1.7169,1.7191,1.7436,1.7452,1.7274,1.7087,1.6488,1.5724,1.523,1.4835,1.4678,1.5277,1.6039,1.6859,1.7589,1.8086,1.8685,1.9788,2.0244,2.0855,2.2505,2.345,2.4471,2.6214,2.7318,2.8244,2.9116,3.0148,3.1225,3.2303,3.2512,3.2826,3.3724,3.3844,0.0,0.0,0.0,0.0,0.0,0.0,0.0,0.0,0.0,3.5504,3.5504,3.5504,3.5504,3.5504,3.5504,3.5504,3.5504,3.5504,3.5504,3.5504,3.5504,3.5504,3.5504,3.5504,3.5504,3.5504,3.5504,3.5504,3.5504,3.5504,3.5504,3.5504,3.5504,3.5504,3.5504,3.5504,3.5504,3.5504,0.0,0.0,0.0,0.0,0.0,0.0,0.0,0.0,0.0,0.9078,0.0,0.0,0.0,0.0,0.9177,0.9353,0.9705,0.9905,0.9905,0.9227,0.8825,0.8825,0.8288,0.8162,0.8524,0.9077,0.9704,1.0432,1.0948,1.1606,1.2416,1.2795,1.3126,1.3523,1.5575,1.6189,1.5781,1.7043,1.7767,1.8066,1.7706,1.8007,1.8593,1.8243,1.813,1.818,1.8229,1.8274,1.8275,1.8091,1.7475,1.6728,1.6518,1.5979,1.5485,1.5739,1.6069,1.6548,1.7189,1.7848,1.8625,1.9746,2.0359,2.1032,2.2338,2.3131,2.3984,2.5315,2.6327,2.7186,2.8098,2.8951,3.0028,3.1584,3.1839,3.2153,3.3036,0.0,0.0,0.0,0.0,0.0,0.0,0.0,0.0,0.0,0.0,0.0,3.5504,3.5504,3.5504,3.5504,3.5504,3.5504,3.5504,3.5504,3.5504,3.5504,3.5504,3.5504,3.5504,3.5504,3.5504,3.5504,3.5504,3.5504,3.5504,3.5504,3.5504,3.5504,3.5504,3.5504,3.5504,3.5504,3.5651,3.5863,0.0,0.0,0.0,0.0,0.0,0.0,0.0,0.0,1.0119,1.067,0.0,0.0,0.0,0.0,0.0,0.9968,0.9931,0.9918,0.9905,0.8914,0.8324,0.8311,0.7716,0.7406,0.7416,0.801,0.8837,0.9906,1.0235,1.1079,1.2398,1.2735,1.324,1.3977,1.5727,1.6243,1.5848,1.746,1.8125,1.8125,1.8125,1.8145,1.8165,1.8179,1.89,1.982,1.9185,1.9713,2.0475,1.9193,1.8732,1.8565,1.7908,1.7234,1.6577,1.6009,1.5814,1.5919,0.0,0.0,0.0,1.8521,1.9705,2.0673,2.0703,2.2173,2.3535,2.3565,2.4627,2.5944,2.727,2.7525,2.8184,3.0103,3.0447,3.0941,0.0,0.0,0.0,0.0,0.0,0.0,0.0,0.0,0.0,0.0,3.5474,3.5489,3.5504,3.5504,3.5504,3.5504,3.5504,3.5504,3.5504,3.5504,3.5504,3.5504,3.5504,3.5504,3.5504,3.5504,3.5504,3.5504,3.5537,3.5537,3.5537,3.5537,3.5537,3.5537,3.5554,3.5569,3.5569,3.5569,3.6038,3.6646,0.0,0.0,0.0,0.0,0.0,0.9555,1.0482,1.053,1.0682,0.0,0.0,0.0,1.1362,1.1349,1.1123,1.0532,1.0482,1.0319,0.9931,0.9265,0.8712,0.8324,0.7716,0.749,0.7686,0.8289,0.9025,0.9901,1.0246,1.0911,1.1909,1.2524,1.3099,1.3722,1.6243,1.7122,1.6803,1.8124,1.8669,1.8669,1.8669,1.8912,1.9321,1.9801,1.9958,1.9975,2.0676,2.0583,2.0118,2.0143,1.951,1.8565,1.7908,1.7234,1.6666,1.6502,1.6144,1.5919,1.6547,0.0,0.0,0.0,0.0,0.0,2.0583,2.1126,2.1784,2.2763,2.358,2.4418,2.5262,2.5839,2.6647,2.8169,2.9232,3.0118,0.0,0.0,0.0,0.0,0.0,0.0,0.0,0.0,0.0,0.0,3.4788,3.4981,3.5474,3.5504,3.5504,3.5504,3.5504,3.5504,3.5504,3.5504,3.5504,3.5504,3.5504,3.5504,3.5504,3.5504,3.5504,3.5537,3.6054,3.6306,3.6306,3.6306,3.6306,3.6368,3.6951,3.7145,3.7145,3.7145,3.7279,3.7485,0.0,0.0,0.9019,0.9796,1.0119,1.044,1.0922,1.1357,1.1899,0.0,0.0,0.0,1.2307,1.2065,1.1777,1.1354,1.133,1.1169,1.0755,1.0212,0.9619,0.9033,0.8198,0.7808,0.796,0.8031,0.8571,0.9567,0.9876,1.0608,1.1718,1.2284,1.2982,1.3837,1.6055,1.7155,1.7428,1.8701,1.9225,1.9254,1.9533,1.9853,2.0183,2.0857,2.1099,2.1136,2.155,2.1589,2.1416,2.1193,2.0423,1.9375,1.8416,1.7848,1.7413,1.686,1.6443,1.6204,1.6293,1.6786,1.7369,1.7773,0.0,0.0,1.9779,2.0299,2.0912,0.0,2.2368,2.3011,2.3684,2.4343,2.5121,2.6183,2.723,0.0,0.0,0.0,0.0,0.0,0.0,0.0,0.0,3.2916,3.3365,3.4023,3.4068,3.4367,3.504,3.5355,3.5504,3.5504,3.5504,3.5504,3.5504,3.5504,3.5504,3.5504,3.5504,3.5504,3.5504,3.5504,3.5668,3.5975,3.6415,3.6783,3.7114,3.7424,3.7395,3.716,3.7632,3.7793,3.7793,3.7793,3.8007,3.8246,0.0,0.0,1.0148,1.0448,1.0962,1.1242,1.1006,1.2192,1.3353,0.0,1.4599,1.4564,1.3654,1.3153,1.2778,1.2601,1.251,1.2358,1.2134,1.1488,1.0805,1.0148,0.9022,0.8349,0.8228,0.7723,0.8029,0.919,0.9466,1.0317,1.1723,1.2058,1.2865,1.414,1.5543,1.6737,1.7788,1.9121,1.9753,1.9854,2.0468,2.0733,2.0882,2.156,2.2224,2.2733,2.2203,2.2697,2.3415,2.2128,2.1306,0.0,0.0,1.8867,1.8568,1.7294,1.6831,1.6577,1.6054,1.6278,1.6696,1.6696,1.7637,0.0,1.8687,1.963,2.0494,0.0,2.1126,2.1769,2.2373,2.2987,2.361,2.4276,0.0,0.0,0.0,0.0,0.0,0.0,0.0,0.0,3.1227,3.1884,3.2572,3.323,3.341,3.3784,3.4474,3.5055,3.5429,3.5504,3.5504,3.5504,3.5504,3.5504,3.5504,3.5504,3.5504,3.5522,3.5619,3.5619,3.6038,3.6737,3.6813,3.7263,3.7978,3.8718,3.858,3.7921,3.8007,3.8064,3.8064,3.8064,3.8486,3.9016,0.9084,0.9824,1.0563,1.1034,1.1658,1.2228,1.2659,1.3295,1.4075,1.5084,1.5761,1.6058,1.5878,1.5754,1.5489,1.4978,1.4495,1.3984,1.3459,1.2355,1.1449,1.0831,1.0061,0.9271,0.8456,0.8835,0.928,0.9753,1.0078,1.0759,1.1799,1.2122,1.2852,1.3948,1.5773,1.7007,1.7788,1.9121,2.0004,2.0528,2.0643,2.1017,2.1575,2.2254,2.2897,2.3475,2.3887,2.3864,2.3415,2.2128,2.1605,2.1365,0.0,1.9944,1.9346,1.8536,1.7548,1.6666,1.6562,1.6622,1.6696,1.6696,1.7294,0.0,1.8583,1.8912,1.9241,0.0,2.0438,2.0946,2.1081,2.1635,2.2278,2.2972,0.0,0.0,0.0,0.0,0.0,0.0,0.0,0.0,2.9953,3.0537,3.118,3.1839,3.2901,3.3784,3.4474,3.4638,3.4936,3.5489,3.5504,3.5504,3.5504,3.5504,3.5504,3.5504,3.5504,3.5814,3.6384,3.6384,3.6828,3.7602,3.8201,3.8536,3.8745,3.9558,3.9411,3.8745,3.9385,3.9653,3.9653,3.9653,3.9731,3.9876,0.946,1.039,1.1292,1.1713,1.2326,1.301,1.3828,1.4548,1.5424,1.6639,1.7309,1.7489,1.6962,1.6898,1.6754,1.6388,1.6063,1.5702,1.5268,1.4369,1.3555,1.2914,1.1603,1.065,1.0152,0.9852,0.9923,1.0344,1.051,1.1017,1.1805,1.1962,1.2843,1.4363,1.568,1.6982,1.8252,1.9271,2.0273,2.1201,2.1201,2.1784,2.2712,2.3385,2.4044,2.4642,2.4978,2.4874,2.4507,2.3864,2.343,0.0,2.1994,2.1475,2.0936,1.9585,1.8732,1.8057,1.7369,1.7204,1.7115,1.6771,1.7204,0.0,0.0,1.7968,1.8296,1.8625,1.9241,1.9687,1.9687,2.0509,2.1321,0.0,0.0,0.0,0.0,0.0,0.0,0.0,0.0,0.0,2.8573,2.9175,3.009,3.1445,3.2462,3.3314,3.3968,3.4653,3.5186,3.5552,3.552,3.5878,3.6631,3.6243,3.6243,3.6662,3.6662,3.686,3.7203,3.7203,3.7616,3.8358,3.8745,3.9139,3.9516,3.9927,3.9876,3.9558,3.9952,4.0096,4.0096,4.0096,4.0096,4.0096,1.0069,1.1012,1.1933,1.2337,1.2905,1.368,1.4752,1.5673,1.6737,1.8078,1.8724,1.871,1.7861,1.7767,1.7729,1.7597,1.7486,1.7326,1.7114,1.6398,1.5739,1.5186,1.3376,1.2254,1.1999,1.0862,1.0434,1.0798,1.0798,1.1136,1.1805,1.1925,1.2927,1.4648,1.5559,1.6922,1.8565,1.9495,2.0587,2.1724,2.1964,2.2757,2.3879,2.453,2.5202,2.5794,2.5794,2.5884,2.5974,2.5839,2.5337,2.4605,2.3565,2.3077,2.2538,2.0786,2.0007,1.9468,1.8371,1.7908,1.7563,1.704,1.7294,1.7548,0.0,0.0,0.0,0.0,0.0,0.0,0.0,0.0,0.0,0.0,0.0,0.0,0.0,0.0,0.0,0.0,0.0,0.0,0.0,2.8107,2.9531,3.1426,3.2184,3.2854,3.3453,3.4654,3.5476,3.5784,3.5768,3.6384,3.7793,3.716,3.716,3.7793,3.7793,3.7863,3.8007,3.8007,3.8414,3.9139,3.9139,3.9489,4.0096,4.0096,4.0096,4.0096,4.0096,4.0096,4.0096,4.0096,4.0096,4.0096,1.0693,1.1286,1.1999,1.2623,1.3297,1.4165,1.5474,1.6319,1.7282,1.8638,1.9288,1.9555,1.9444,1.9429,1.9417,1.9412,1.8857,1.8502,1.8476,1.731,1.6562,1.6502,1.5172,1.3897,1.2699,1.1965,1.1341,1.0798,1.0798,1.1136,1.1805,1.2415,1.3133,1.3991,1.5786,1.7055,1.7938,1.9791,2.1021,2.1799,2.2936,2.3834,0.0,2.5217,2.5899,2.6482,2.6482,2.6881,2.7285,0.0,2.6033,2.5457,0.0,2.4448,2.334,2.2583,2.11,1.9678,1.9513,1.8612,1.7667,1.7609,1.7654,1.7684,0.0,0.0,1.7781,1.8083,0.0,0.0,0.0,0.0,0.0,0.0,0.0,0.0,1.8999,0.0,0.0,0.0,0.0,0.0,0.0,0.0,2.9824,3.13,3.2112,3.2787,3.3461,3.4277,3.5291,3.6533,3.6575,3.6966,3.7777,3.769,3.769,3.7793,3.7793,3.8133,3.8772,3.8772,3.9209,3.9952,3.9952,4.002,4.0096,4.0096,4.0096,4.0096,4.0096,4.0096,4.0096,4.0096,4.0096,4.0096,1.0947,1.1655,1.2594,1.3256,1.4272,1.541,1.6697,1.7833,1.8879,1.9807,2.0143,2.0423,2.0831,2.0857,2.0692,2.0318,2.0015,1.9705,1.9301,1.8386,1.7863,1.7863,1.6263,1.5124,1.4554,1.3496,1.2825,1.2541,1.2149,1.2299,1.2957,1.2849,1.375,1.5517,1.6338,1.7488,1.8942,2.0183,2.1321,0.0,0.0,2.5061,0.0,2.6632,2.7435,2.8349,2.8349,2.8528,2.8723,0.0,2.8143,0.0,0.0,0.0,0.0,2.3744,2.2622,2.171,2.0587,1.9884,1.9324,1.8812,0.0,0.0,1.8484,0.0,1.8371,0.0,0.0,0.0,0.0,0.0,0.0,0.0,1.8476,0.0,0.0,0.0,0.0,0.0,0.0,0.0,0.0,0.0,0.0,0.0,0.0,3.2348,3.3421,3.4152,3.5217,3.6727,3.672,3.7478,3.9102,3.8679,3.8679,3.9146,3.9146,3.9305,3.961,3.961,3.9782,4.0096,4.0096,4.0096,4.0096,4.0096,4.0096,4.0096,4.0096,4.0096,4.0096,4.0096,4.0096,4.0096,1.1779,1.2254,1.3074,1.3929,1.5035,1.6278,1.7743,1.9121,2.0154,2.0628,2.1017,2.144,2.1919,2.1964,2.1769,2.1291,2.1081,2.0767,2.0292,1.9615,1.9256,1.9256,1.7551,1.6503,1.6323,1.5022,1.4259,1.4066,1.3403,1.3316,1.3782,1.3493,1.4453,1.6458,1.6816,1.7997,1.9768,2.0617,2.1739,2.3062,2.4335,2.6198,2.8154,2.8154,2.8858,2.9846,2.9666,2.9711,2.9834,2.9834,2.9756,0.0,2.8663,2.8034,2.721,0.0,2.4313,2.3535,2.1934,0.0,0.0,0.0,0.0,0.0,0.0,0.0,0.0,0.0,0.0,0.0,0.0,0.0,0.0,0.0,0.0,0.0,0.0,0.0,0.0,0.0,0.0,0.0,0.0,0.0,0.0,0.0,0.0,0.0,3.3404,3.4144,3.5229,3.6763,3.6944,3.792,3.9766,3.9415,3.9516,4.0096,4.0096,4.0096,4.0096,4.0096,4.0096,4.0096,4.0096,4.0096,4.0096,4.0096,4.0096,4.0096,4.0096,4.0096,4.0096,4.0096,4.0096,4.0096,1.3573,1.3223,1.322,1.4541,1.5335,1.6443,1.8373,1.9824,2.0673,2.0703,2.1814,2.2643,2.2658,2.2658,2.2658,2.2643,2.2044,2.1665,2.1635,2.1021,2.0643,2.0643,1.9328,1.8296,1.7637,1.6398,1.5424,1.4766,1.4094,1.3782,1.3812,1.4438,1.5125,1.5888,1.7131,1.8416,1.9798,2.1096,2.2398,2.3684,2.5031,2.7156,2.9547,0.0,2.9924,3.0387,2.9804,0.0,0.0,3.0477,3.0073,0.0,0.0,0.0,0.0,0.0,0.0,0.0,0.0,0.0,0.0,2.147,0.0,0.0,0.0,0.0,1.9667,0.0,0.0,0.0,0.0,0.0,0.0,0.0,0.0,0.0,0.0,0.0,0.0,0.0,0.0,0.0,0.0,0.0,0.0,0.0,0.0,0.0,3.3313,3.4112,3.5211,3.6755,3.7486,3.8229,3.9022,3.9715,4.007,4.0096,4.0096,4.0096,4.0096,4.0096,4.0096,4.0096,4.0096,4.0096,4.0096,4.0096,4.0096,4.0096,4.0096,4.0096,4.0096,4.0096,4.0096,4.0096,1.4408,1.4274,1.4272,1.4721,1.6054,1.758,1.9139,2.0124,2.0853,2.1306,2.2149,2.3032,2.3879,2.3947,2.3947,2.3947,2.3738,2.3266,2.2418,2.2164,2.162,2.0733,1.9839,1.9046,1.8371,1.7505,1.6727,1.6054,1.5426,1.5125,1.5125,1.4901,1.5605,1.7086,1.7519,1.8685,2.0423,2.1321,2.2697,0.0,0.0,2.9295,3.0821,0.0,0.0,3.1809,3.1599,3.1943,0.0,3.1973,3.1689,3.1405,3.0717,3.0043,2.9265,2.7989,2.7121,0.0,0.0,0.0,2.3197,2.274,0.0,0.0,0.0,0.0,0.0,0.0,0.0,0.0,0.0,0.0,0.0,0.0,0.0,0.0,0.0,0.0,0.0,0.0,0.0,0.0,0.0,0.0,0.0,0.0,0.0,0.0,0.0,3.3119,3.4455,3.596,3.7246,3.8261,3.8988,3.974,4.0096,4.0096,4.0096,4.0096,4.0096,4.0096,4.0096,4.0096,4.0096,4.0096,4.0096,4.0096,4.0096,4.0096,4.0096,4.0096,4.0096,4.0096,4.0096,4.0096,1.511,1.5155,1.523,1.5441,1.6906,1.8506,1.9854,2.0617,2.138,2.2263,2.3182,2.4133,2.5187,2.5307,2.5307,2.5307,2.5083,2.4717,2.414,2.3625,2.2996,2.2123,2.1231,2.0333,1.9435,1.8745,1.8087,1.7413,1.6533,1.6234,1.6458,1.58,1.6398,1.8057,1.8057,1.9163,2.1111,2.1769,2.3176,0.0,0.0,3.0357,0.0,0.0,3.1913,3.2856,0.0,3.314,3.3425,3.3006,3.2856,3.2662,3.1569,3.1061,3.0567,2.9056,2.8483,2.7929,2.6153,2.5345,0.0,2.4441,2.4081,0.0,2.3687,0.0,2.3054,0.0,0.0,0.0,0.0,0.0,0.0,0.0,0.0,0.0,0.0,0.0,0.0,0.0,0.0,0.0,0.0,0.0,0.0,0.0,0.0,0.0,0.0,0.0,3.3677,3.5165,3.6705,3.7855,3.8599,3.9326,3.9842,4.0096,4.0096,4.0096,4.0096,4.0096,4.0096,4.0096,4.0096,4.0096,4.0096,4.0096,4.0096,4.0096,4.0096,4.0096,4.0096,4.0096,4.0096,4.0096,1.5769,1.5918,1.6129,1.6697,1.7848,1.9151,2.0494,2.1306,2.2188,2.343,2.4777,2.5869,2.6557,2.6632,2.6686,2.6737,2.6168,2.6048,2.6602,2.5465,0.0,0.0,2.34,2.2113,2.0823,2.0109,1.9405,1.8747,1.7428,1.7115,1.7699,1.7055,1.7443,1.8702,1.8702,1.9824,2.1739,2.2418,2.3864,2.5989,2.8577,3.0432,3.1675,3.2303,3.2991,3.3589,3.3559,3.3559,3.3589,3.3559,3.3544,3.3425,3.2766,3.2138,3.1508,3.0761,3.0188,2.9504,2.8126,2.776,2.7534,2.6609,0.0,0.0,0.0,0.0,2.3342,0.0,0.0,0.0,0.0,0.0,0.0,0.0,0.0,0.0,0.0,0.0,0.0,0.0,0.0,0.0,0.0,0.0,0.0,0.0,0.0,0.0,0.0,0.0,3.2919,3.4387,3.5949,3.711,3.7905,3.8633,3.9385,4.0096,4.0096,4.0096,4.0096,4.0096,4.0096,4.0096,4.0096,4.0096,4.0096,4.0096,4.0096,4.0096,4.0096,4.0096,4.0096,4.0096,4.0096,4.0096,1.7175,1.761,1.7999,1.8147,1.8461,1.9151,2.0494,2.168,2.2733,2.349,2.4777,2.6048,2.7225,2.7345,2.775,2.8753,2.8678,0.0,0.0,0.0,0.0,2.4664,2.3819,2.2996,2.2209,2.1036,2.0109,1.9453,1.8612,1.8027,1.7713,1.7518,1.7893,1.8702,1.8702,1.9824,2.1739,2.2418,2.4695,2.7979,2.9609,3.136,0.0,0.0,3.3978,3.4921,3.4412,3.4547,3.4921,3.4397,3.4249,3.4144,3.344,3.3561,3.3516,3.1772,3.1912,3.2226,3.0345,2.9817,2.9633,2.8846,2.8443,2.7955,0.0,0.0,0.0,0.0,0.0,0.0,0.0,0.0,0.0,0.0,0.0,0.0,0.0,0.0,0.0,0.0,0.0,0.0,0.0,0.0,0.0,0.0,0.0,0.0,0.0,0.0,0.0,3.3643,3.5131,3.6552,3.7889,3.8633,3.9385,4.0096,4.0096,4.0096,4.0096,4.0096,4.0096,4.0096,4.0096,4.0096,4.0096,4.0096,4.0096,4.0096,4.0096,4.0096,4.0096,4.0096,4.0096,4.0096,1.7713,1.8493,1.9226,1.9507,2.0064,2.0692,2.1455,2.2428,2.3646,2.5136,2.6027,2.6976,2.8334,2.8468,2.8783,2.9532,2.9606,0.0,2.8918,0.0,0.0,2.6398,2.5704,2.465,2.3137,2.2353,0.0,2.0139,1.9465,1.8942,1.8568,1.8267,1.8491,1.9151,1.945,2.0528,2.2269,2.4066,2.6477,2.9146,3.0432,3.1973,0.0,3.3814,3.4577,3.5459,3.507,3.5175,3.5444,3.5055,3.4921,3.4801,3.4143,3.4455,3.479,3.3324,3.3716,3.4226,3.2453,3.1946,3.1765,3.0995,3.05,2.9988,2.9096,2.8269,2.7385,0.0,0.0,0.0,0.0,0.0,0.0,0.0,0.0,0.0,0.0,0.0,0.0,0.0,0.0,0.0,0.0,0.0,0.0,0.0,0.0,0.0,0.0,0.0,0.0,3.3339,3.4523,3.6011,3.7889,3.8311,3.9039,4.0096,4.0096,4.0096,4.0096,4.0096,4.0096,4.0096,4.0096,4.0096,4.0096,4.0096,4.0096,4.0096,4.0096,4.0096,4.0096,4.0096,4.0096,4.0096,1.8222,1.9204,2.0245,2.0857,2.2039,2.2981,2.3188,2.3676,0.0,2.7285,0.0,2.8349,2.9592,2.9789,2.9864,2.9953,3.0071,3.0253,3.0612,3.0133,2.9505,2.8757,2.8004,2.6507,2.4163,2.3864,2.2862,0.0,2.0467,2.0147,2.0041,1.9539,1.9604,2.0179,2.0782,2.1827,2.3378,2.6426,2.8595,3.0114,3.1293,3.2658,3.3985,3.4575,3.5225,3.5797,3.5797,3.5683,3.5504,3.5504,3.5554,3.5546,3.4961,3.537,3.5902,3.5174,3.5578,3.591,3.4475,3.4171,3.4047,3.3139,3.2409,3.1876,3.1564,3.0364,2.8908,2.7571,2.6539,2.5659,0.0,0.0,0.0,0.0,0.0,0.0,0.0,0.0,0.0,0.0,0.0,0.0,0.0,0.0,0.0,0.0,0.0,0.0,0.0,0.0,0.0,3.3305,3.4015,0.0,3.7889,0.0,3.8633,4.0096,4.0096,4.0096,4.0096,4.0096,4.0096,4.0096,4.0096,4.0096,4.0096,4.0096,4.0096,4.0096,4.0096,4.0096,4.0096,4.0096,4.0096,4.0096,2.1006,2.1489,2.2026,2.2305,2.3315,2.4514,2.5738,2.6027,2.6447,2.7465,2.8558,2.9547,3.0253,3.0851,3.1376,3.1943,3.2497,0.0,0.0,0.0,0.0,2.9487,2.8259,2.7375,2.6911,2.527,2.3977,0.0,0.0,2.2466,2.1929,2.2258,2.2469,2.2596,2.2706,2.3877,2.5874,2.7655,0.0,3.2238,3.2999,3.4482,3.6248,3.6331,3.6809,3.7383,3.7383,3.6569,3.5504,3.5504,3.5894,3.6399,3.6261,3.7205,3.8072,3.6806,3.7392,3.8112,3.6653,3.6705,3.6827,3.5407,3.4959,3.4526,3.3301,3.1867,3.0734,3.0463,2.8822,2.7181,2.6437,0.0,0.0,0.0,0.0,0.0,0.0,0.0,0.0,0.0,0.0,0.0,0.0,0.0,0.0,0.0,0.0,0.0,0.0,0.0,0.0,0.0,3.3541,0.0,0.0,0.0,3.8633,4.0096,4.0096,4.0096,4.0096,4.0096,4.0096,4.0096,4.0096,4.0096,4.0096,4.0096,4.0096,4.0096,4.0096,4.0096,4.0096,4.0096,4.0096,4.0096,2.2224,2.2918,2.3561,2.3668,2.5009,2.6288,0.0,2.7964,2.8727,2.9041,2.9968,3.0836,3.148,3.2153,3.2677,3.2991,3.3305,3.323,3.2587,3.2557,3.1929,3.0657,2.9983,2.9146,2.8128,2.6826,2.5659,2.4642,0.0,2.3572,2.2909,2.3104,2.3209,2.3274,2.4737,2.6354,0.0,0.0,0.0,3.3314,3.4336,3.5558,3.685,3.7206,3.7502,3.7793,3.7793,3.7324,3.6692,3.6692,3.6935,3.7203,3.7203,3.8003,3.8761,3.8101,3.8695,3.9327,3.8237,3.8193,3.821,3.7053,3.6783,3.6394,3.4873,3.3977,3.3169,3.2022,3.0581,2.9093,2.7536,2.6691,0.0,0.0,0.0,0.0,0.0,0.0,0.0,0.0,0.0,0.0,0.0,0.0,0.0,0.0,0.0,0.0,0.0,0.0,0.0,0.0,0.0,0.0,0.0,0.0,0.0,4.0096,4.0096,4.0096,4.0096,4.0096,4.0096,4.0096,4.0096,4.0096,4.0096,4.0096,4.0096,4.0096,4.0096,4.0096,4.0096,4.0096,4.0096,4.0096,2.3496,2.4417,2.5258,2.542,2.6834,2.8071,2.8364,2.9729,3.0717,3.0717,3.1286,3.1959,3.2647,3.3305,3.3709,3.3709,3.3844,3.3858,3.3709,3.3709,3.3185,3.1974,3.1645,3.0863,2.9475,2.8656,2.7728,0.0,0.0,0.0,0.0,2.4132,2.4529,0.0,0.0,0.0,0.0,0.0,3.3407,3.4461,3.5674,3.6734,3.7578,3.8107,3.829,3.829,3.829,3.829,3.829,3.829,3.8177,3.8035,3.8035,3.8569,3.9166,3.9166,3.961,3.9977,3.9402,3.9225,3.9056,3.8328,3.8142,3.7787,3.6394,3.5955,3.5318,3.3389,3.2154,3.0835,2.8872,2.8382,0.0,0.0,0.0,0.0,0.0,0.0,0.0,0.0,0.0,0.0,0.0,0.0,0.0,0.0,0.0,0.0,0.0,0.0,0.0,0.0,0.0,3.4776,3.7652,0.0,3.8633,0.0,4.0096,4.0096,4.0096,4.0096,4.0096,4.0096,4.0096,4.0096,4.0096,4.0096,4.0096,4.0096,4.0096,4.0096,4.0096,4.0096,4.0096,4.0096,2.6108,2.6716,2.7377,2.8111,2.8733,2.9602,3.0938,3.1286,3.1406,3.1406,3.1989,3.2677,3.3335,3.3978,3.4414,3.4414,3.4951,3.5055,3.4459,3.4414,3.4099,3.3335,3.2138,3.1734,3.2199,3.098,3.0259,0.0,0.0,2.7669,0.0,2.6952,2.8815,0.0,0.0,0.0,0.0,3.3185,3.4727,3.6576,3.7458,3.86,3.98,3.9859,3.9876,3.9876,3.9876,3.9876,3.9876,3.9876,3.9411,3.8799,3.8799,3.9342,3.9995,3.9995,4.0045,4.0079,4.0028,3.9994,3.9825,3.9073,3.8886,3.8684,3.7872,3.7161,3.6423,3.5487,3.3643,3.1938,3.1038,3.0345,2.9379,0.0,0.0,0.0,0.0,0.0,0.0,0.0,0.0,0.0,0.0,0.0,0.0,0.0,0.0,0.0,0.0,0.0,0.0,3.231,0.0,3.4523,3.688,3.7567,3.8633,4.0096,4.0096,4.0096,4.0096,4.0096,4.0096,4.0096,4.0096,4.0096,4.0096,4.0096,4.0096,4.0096,4.0096,4.0096,4.0096,4.0096,4.0096,4.0096,2.7754,2.8303,0.0,0.0,0.0,0.0,0.0,3.2168,3.2856,3.3245,3.3529,3.3784,3.4053,3.4681,3.51,3.51,3.5355,3.5385,3.5115,3.5502,3.5447,3.4804,3.4692,3.4635,3.4512,3.317,3.2465,0.0,0.0,0.0,0.0,2.9676,0.0,0.0,0.0,3.2964,3.4375,3.5214,3.6545,3.8145,3.8472,3.9211,4.0096,4.0096,4.0096,4.0096,4.0096,4.0096,4.0096,4.0096,3.9901,3.961,3.961,3.9833,4.0096,4.0096,4.0096,4.0096,4.0096,4.0096,4.0028,3.974,3.9673,3.9486,3.8717,3.8328,3.7889,3.7144,3.5554,3.4066,3.3305,3.2577,3.1596,0.0,0.0,0.0,0.0,0.0,0.0,0.0,0.0,0.0,0.0,0.0,0.0,0.0,0.0,0.0,0.0,0.0,0.0,3.2226,0.0,3.4709,3.7432,3.7753,3.8633,4.0096,4.0096,4.0096,4.0096,4.0096,4.0096,4.0096,4.0096,4.0096,4.0096,4.0096,4.0096,4.0096,4.0096,4.0096,4.0096,4.0096,4.0096,4.0096,2.9415,0.0,3.0507,0.0,3.1495,3.2138,3.2333,3.3185,3.4023,3.4728,3.4963,3.5026,3.4803,3.5415,3.5733,3.5537,3.591,3.6085,3.5846,3.6538,3.6745,3.6275,3.6603,0.0,3.6379,3.5218,3.4729,3.4921,3.3389,0.0,0.0,3.0712,3.1532,0.0,3.4066,3.5115,3.6326,3.711,3.8065,3.9005,3.9225,3.9656,4.0096,4.0096,4.0096,4.0096,4.0096,4.0096,4.0096,4.0096,4.0096,4.0096,4.0096,4.0096,4.0096,4.0096,4.0096,4.0096,4.0096,4.0096,4.0096,4.0096,4.0096,3.996,3.9453,3.9309,3.9106,3.8379,3.7195,3.5971,3.4996,3.4404,3.3575,3.2087,0.0,0.0,0.0,0.0,0.0,0.0,2.7621,2.7114,0.0,0.0,0.0,0.0,0.0,0.0,0.0,0.0,0.0,0.0,0.0,0.0,0.0,3.7787,3.8633,4.0096,4.0096,4.0179,4.0336,4.0336,4.0237,4.0096,4.0096,4.0096,4.0096,4.0096,4.0096,4.0096,4.0096,4.0096,4.0121,4.0286,4.0336,4.0336,3.1331,3.1989,3.2677,3.3335,3.3469,3.3694,3.4369,3.4488,3.4711,3.54,3.6134,3.6291,3.5587,3.6134,3.6306,3.5554,3.689,3.7427,3.6646,3.7338,3.7777,0.0,0.0,3.7122,3.7758,3.7122,3.712,3.7848,0.0,0.0,3.0106,2.9364,3.136,3.56,3.64,3.7161,3.7922,3.865,3.8971,3.9056,3.9791,4.0096,4.0096,4.0096,4.0096,4.0096,4.0096,4.0096,4.0096,4.0096,4.0096,4.0096,4.0096,4.0096,4.0096,4.0096,4.0096,4.0096,4.0096,4.0096,4.0096,4.0096,4.0096,4.0096,4.0096,4.0096,3.9893,3.914,3.8396,3.7415,3.587,3.5583,3.5092,3.3605,0.0,0.0,0.0,0.0,0.0,0.0,2.872,2.8094,2.8908,0.0,0.0,0.0,0.0,0.0,0.0,0.0,0.0,3.2242,3.3732,0.0,3.6795,3.7533,3.8633,4.0096,4.0096,4.0368,4.088,4.088,4.0601,4.0096,4.0096,4.0096,4.0096,4.0096,4.0096,4.0096,4.0096,4.0096,4.0171,4.0703,4.088,4.088,3.2826,3.3036,3.3245,3.3455,3.4273,3.5002,3.5232,3.6101,3.6835,3.704,3.7279,3.7338,3.7086,3.7294,3.7308,0.0,3.7531,3.769,0.0,3.8133,3.8553,3.8553,3.8871,3.9156,3.9353,3.8656,3.8403,3.865,0.0,0.0,0.0,3.5182,3.5825,3.7195,3.7449,3.7956,3.8667,3.8903,3.9276,3.9774,4.0011,4.0096,4.0096,4.0096,4.0096,4.0096,4.0096,4.0096,4.0096,4.0096,4.0096,4.0096,4.0096,4.0096,4.0096,4.0096,4.0096,4.0096,4.0096,4.0096,4.0096,4.0096,4.0096,4.0096,4.0096,4.0096,4.0028,3.9808,3.9157,3.8497,3.8007,3.7516,3.6664,3.5143,3.4687,0.0,0.0,0.0,0.0,0.0,3.1935,3.1732,0.0,3.1309,0.0,0.0,0.0,0.0,0.0,0.0,0.0,0.0,3.4489,0.0,3.7533,3.8278,3.914,4.0096,4.0473,4.0943,4.1512,4.1512,4.1201,4.0655,4.0655,4.0424,4.0096,4.0096,4.0096,4.0096,4.0096,4.0096,4.0121,4.0286,4.0577,4.0903,3.4213,3.4501,3.476,3.5063,3.585,3.6427,3.6427,3.72,3.7793,3.7793,3.8035,3.8218,3.8218,3.8486,0.0,3.7851,3.8318,3.8541,3.8218,3.8924,3.9342,3.9342,3.9833,4.0096,4.0096,3.9656,0.0,3.9394,3.8667,3.8176,3.7922,3.8176,3.8311,3.8328,3.8599,3.8971,3.9394,3.9394,3.969,4.0096,4.0096,4.0096,4.0096,4.0096,4.0096,4.0096,4.0096,4.0096,4.0096,4.0096,4.0096,4.0096,4.0096,4.0096,4.0096,4.0096,4.0096,4.0096,4.0096,4.0096,4.0096,4.0096,4.0096,4.0096,4.0096,4.0096,4.0096,4.0096,3.974,3.9326,3.9039,3.8616,3.7922,3.6664,3.6462,3.614,3.5233,0.0,3.4213,0.0,0.0,0.0,0.0,3.2983,0.0,0.0,0.0,0.0,0.0,0.0,0.0,3.4201,3.5606,0.0,3.86,3.9301,4.0002,4.0761,4.1308,4.1643,4.181,4.2021,4.181,4.1246,4.1246,4.1059,4.0737,4.0737,4.0737,4.0737,4.0473,4.0546,4.0737,4.0737,4.1082,4.1578,3.552,3.6211,3.6904,0.0,3.7835,0.0,3.7863,3.7921,3.795,3.795,3.8553,3.8989,3.8989,3.9636,3.9532,3.8092,0.0,0.0,0.0,3.9688,4.0096,4.0096,4.0096,4.0096,4.0096,4.0096,4.0096,4.0096,3.9394,3.8717,3.8075,3.8751,3.9073,3.9106,3.9791,4.0096,4.0096,4.0096,4.0096,4.0096,4.0096,4.0096,4.0096,4.0096,4.0096,4.0096,4.0096,4.0096,4.0096,4.0096,4.0096,4.0096,4.0096,4.0096,4.0096,4.0096,4.0096,4.0096,4.0096,4.0096,4.0096,4.0096,4.0096,4.0096,4.0096,4.0096,4.0096,4.0096,4.0096,3.9893,3.9191,3.9073,3.8819,3.8108,3.799,3.7973,3.7922,3.6648,3.5774,0.0,0.0,0.0,0.0,3.3778,3.3782,0.0,0.0,0.0,0.0,0.0,3.4996,3.5791,3.7124,3.8465,3.9844,4.0486,4.1147,4.1874,4.244,4.244,4.1937,4.25,4.2422,4.1874,4.1874,4.1853,4.181,4.181,4.181,4.1729,4.1178,4.1313,4.181,4.181,4.2183,4.2711,0.0,0.0,3.7573,3.7764,3.829,3.8635,3.8635,3.9156,3.9558,3.9558,3.9705,3.9808,3.9808,3.9995,3.9952,3.9601,3.9876,4.002,3.9833,3.9978,4.0096,4.0096,4.0096,4.0096,4.0096,4.0096,4.0096,4.0096,3.9926,3.9757,3.9588,3.9757,3.9842,3.9859,4.0028,4.0096,4.0096,4.0096,4.0096,4.0096,4.0096,4.0096,4.0096,4.0096,4.0096,4.0096,4.0096,4.0096,4.0096,4.0096,4.0096,4.0096,4.0096,4.0096,4.0096,4.0096,4.0096,4.0096,4.0096,4.0096,4.0096,4.0096,4.0096,4.0096,4.0096,4.0096,4.0096,4.0096,4.0096,4.0045,3.9876,3.9842,3.9605,3.8853,3.8734,3.8531,3.799,3.7601,3.7517,0.0,3.7291,3.7177,3.8035,3.7725,3.7526,0.0,0.0,0.0,0.0,3.8651,3.8575,3.7966,3.9273,4.0126,4.0493,4.1202,4.1863,4.248,4.2635,4.2827,4.3105,4.325,4.3014,4.248,4.248,4.2241,4.181,4.181,4.181,4.1789,4.1643,4.1664,4.181,4.181,4.2183,4.2783,3.7496,3.8003,3.843,3.8805,3.9183,3.9463,3.9463,3.9808,4.0096,4.0096,4.0096,4.0096,4.0096,4.0096,4.0096,4.0096,4.0096,4.0096,4.0096,4.0096,4.0096,4.0096,4.0096,4.0096,4.0096,4.0096,4.0096,4.0096,4.0096,4.0096,4.0096,4.0096,4.0096,4.0096,4.0096,4.0096,4.0096,4.0096,4.0096,4.0096,4.0096,4.0096,4.0096,4.0096,4.0096,4.0096,4.0096,4.0096,4.0096,4.0096,4.0096,4.0096,4.0096,4.0096,4.0096,4.0096,4.0096,4.0096,4.0096,4.0096,4.0096,4.0096,4.0096,4.0096,4.0096,4.0096,4.0096,4.0096,4.0096,4.0096,4.0096,4.0096,3.9977,3.9571,3.9503,3.9343,3.8954,3.8616,3.8523,3.8791,3.85,3.8525,3.9143,3.9126,3.9176,3.9332,0.0,0.0,3.9835,4.0709,4.0706,3.9648,4.0575,4.1244,4.1598,4.2248,4.2734,4.3087,4.3087,4.3214,4.3515,4.3515,4.3339,4.3087,4.3087,4.2865,4.2581,4.2581,4.2581,4.2542,4.2304,4.2364,4.2542,4.2304,4.2812,4.3669,3.8619,3.8989,3.9289,3.9978,4.0096,4.0096,4.0096,4.0096,4.0096,4.0096,4.0096,4.0096,4.0096,4.0096,4.0096,4.0096,4.0096,4.0096,4.0096,4.0096,4.0096,4.0096,4.0096,4.0096,4.0096,4.0096,4.0096,4.0096,4.0096,4.0096,4.0096,4.0096,4.0096,4.0096,4.0096,4.0096,4.0096,4.0096,4.0096,4.0096,4.0096,4.0096,4.0096,4.0096,4.0096,4.0096,4.0096,4.0096,4.0096,4.0096,4.0096,4.0096,4.0096,4.0096,4.0096,4.0096,4.0096,4.0096,4.0096,4.0096,4.0096,4.0096,4.0096,4.0096,4.0096,4.0096,4.0096,4.0096,4.0096,4.0096,4.0096,4.0096,4.0096,4.0096,4.0096,4.0096,4.0096,0.0,3.9319,3.9416,3.9278,3.9242,3.9417,3.9808,4.0085,4.0183,4.0562,4.087,0.0,4.1996,4.2068,4.1143,4.1554,4.2122,4.2808,4.3268,4.3515,4.3515,4.3515,4.3515,4.3515,4.3515,4.3515,4.3515,4.3515,4.3515,4.3515,4.3515,4.3515,4.3444,4.2995,4.3105,4.3463,4.314,4.3706,4.4728,3.8745,3.9463,3.9952,4.007,4.0096,4.0096,4.0096,4.0096,4.0096,4.0096,4.0096,4.0096,4.0096,4.0096,4.0096,4.0096,4.0096,4.0096,4.0096,4.0096,4.0096,4.0096,4.0096,4.0096,4.0096,4.0096,4.0096,4.0096,4.0096,4.0096,4.0096,4.0096,4.0096,4.0096,4.0096,4.0096,4.0096,4.0096,4.0096,4.0096,4.0096,4.0096,4.0096,4.0096,4.0096,4.0096,4.0096,4.0096,4.0096,4.0096,4.0096,4.0096,4.0096,4.0096,4.0096,4.0096,4.0096,4.0096,4.0096,4.0096,4.0096,4.0096,4.0096,4.0096,4.0096,4.0096,4.0096,4.0096,4.0096,4.0096,4.0096,4.0096,4.0096,4.0096,4.0096,4.0096,4.0096,0.0,4.0793,4.1293,4.1357,4.1709,4.2668,4.2428,4.2408,4.2866,4.2973,4.3009,4.3048,4.3208,4.3244,4.3067,4.3156,4.3246,4.3356,4.3444,4.3515,4.3515,4.3515,4.3515,4.3515,4.3515,4.3515,4.3515,4.3515,4.3515,4.3515,4.3515,4.3515,4.3479,4.341,4.3427,4.3571,4.4161,4.4527,4.4874,3.9385,3.985,4.0096,4.0096,4.0096,4.0096,4.0096,4.0096,4.0096,4.0096,4.0096,4.0096,4.0096,4.0096,4.0096,4.0096,4.0096,4.0096,4.0096,4.0096,4.0096,4.0096,4.0096,4.0096,4.0096,4.0096,4.0096,4.0096,4.0096,4.0096,4.0096,4.0096,4.0096,4.0096,4.0096,4.0096,4.0096,4.0096,4.0096,4.0096,4.0096,4.0096,4.0096,4.0096,4.0096,4.0096,4.0096,4.0096,4.0096,4.0096,4.0096,4.0096,4.0096,4.0096,4.0096,4.0096,4.0096,4.0096,4.0096,4.0096,4.0096,4.0096,4.0096,4.0096,4.0096,4.0096,4.0096,4.0096,4.0096,4.0096,4.0096,4.0096,4.0096,4.0096,4.0096,4.0096,4.0096,4.0552,4.0995,4.1291,4.1895,4.2482,4.3014,4.3124,4.3232,4.3479,4.3515,4.3515,4.3515,4.3515,4.3515,4.3515,4.3515,4.3515,4.3515,4.3515,4.3515,4.3515,4.3515,4.3515,4.3515,4.3515,4.3515,4.3515,4.3515,4.3515,4.3515,4.3515,4.3515,4.3515,4.3515,4.3754,4.4195,4.4562,4.5241,4.6104,3.9952,4.0096,4.0096,4.0096,4.0096,4.0096,4.0096,4.0096,4.0096,4.0096,4.0096,4.0096,4.0096,4.0096,4.0096,4.0096,4.0096,4.0096,4.0096,4.0096,4.0096,4.0096,4.0096,4.0096,4.0096,4.0096,4.0096,4.0096,4.0096,4.0096,4.0096,4.0096,4.0096,4.0096,4.0096,4.0096,4.0096,4.0096,4.0096,4.0096,4.0096,4.0096,4.0096,4.0096,4.0096,4.0096,4.0096,4.0096,4.0096,4.0096,4.0096,4.0096,4.0096,4.0096,4.0096,4.0096,4.0096,4.0096,4.0096,4.0096,4.0096,4.0096,4.0096,4.0096,4.0096,4.0096,4.0096,4.0096,4.0096,4.0096,4.0096,4.0096,4.0096,4.0096,0.0,4.0096,4.0096,4.0696,4.111,4.111,4.2165,4.2883,4.2883,4.325,4.3515,4.3515,4.3515,4.3515,4.3515,4.3515,4.3515,4.3515,4.3515,4.3515,4.3515,4.3515,4.3515,4.3515,4.3515,4.3515,4.3515,4.3515,4.3515,4.3515,4.3515,4.3515,4.3515,4.3515,4.3515,4.3533,4.3699,4.4158,4.4746,4.5113,4.603,4.7131,3.9952,4.0096,4.0096,4.0096,4.0096,4.0096,4.0096,4.0096,4.0096,4.0096,4.0096,4.0096,4.0096,4.0096,4.0096,4.0096,4.0096,4.0096,4.0096,4.0096,4.0096,4.0096,4.0096,4.0096,4.0096,4.0096,4.0096,4.0096,4.0096,4.0096,4.0096,4.0096,4.0096,4.0096,4.0096,4.0096,4.0096,4.0096,4.0096,4.0096,4.0096,4.0096,4.0096,4.0096,4.0096,4.0096,4.0096,4.0096,4.0096,4.0096,4.0096,4.0096,4.0096,4.0096,4.0096,4.0096,4.0096,4.0096,4.0096,4.0096,4.0096,4.0096,4.0096,4.0096,4.0096,4.0096,4.0096,4.0096,4.0096,4.0096,4.0096,4.0096,4.0096,4.0096,0.0,0.0,4.0096,4.1053,4.1729,4.1729,4.2753,4.3444,4.3444,4.348,4.3515,4.3515,4.3515,4.3515,4.3515,4.3515,4.3515,4.3515,4.3515,4.3515,4.3515,4.3515,4.3515,4.3515,4.3515,4.3515,4.3515,4.3515,4.3515,4.3515,4.3515,4.3515,4.3515,4.3515,4.3515,4.357,4.4323,4.4636,4.4874,4.636,4.7003,4.7204,4.0045,4.0096,4.0096,4.0096,4.0096,4.0096,4.0096,4.0096,4.0096,4.0096,4.0096,4.0096,4.0096,4.0096,4.0096,4.0096,4.0096,4.0299,4.0747,4.0781,4.0561,4.013,4.0096,4.0096,4.0096,4.0096,4.0096,4.0096,4.0096,4.0096,4.0096,4.0096,4.0096,4.0096,4.0096,4.0096,4.0096,4.0096,4.0096,4.0096,4.0096,4.0096,4.0096,4.0096,4.0096,4.0096,4.0096,4.0096,4.0096,4.0096,4.0096,4.0096,4.0096,4.0096,4.0096,4.0096,4.0096,4.0096,4.0096,4.0096,4.0096,4.0096,4.0096,4.0096,4.0096,4.0096,4.0096,4.0096,4.0096,4.0096,4.0096,4.0096,4.0096,4.0096,0.0,4.0229,4.0552,4.1291,4.1937,4.2322,4.3032,4.3515,4.3515,4.3515,4.3515,4.3515,4.3515,4.3515,4.3515,4.3515,4.3515,4.3515,4.3515,4.3515,4.3515,4.3515,4.3515,4.3515,4.3515,4.3515,4.3515,4.3515,4.3515,4.3515,4.3515,4.3515,4.3515,4.3515,4.3791,4.4268,4.458,4.5296,4.625,4.6874,4.7424,4.7902,4.0096,4.0096,4.0096,4.0096,4.0096,4.0096,4.0096,4.0096,4.018,4.0434,4.0468,4.0536,4.0773,4.0807,4.0807,4.0807,4.0807,4.1027,4.1508,4.1542,4.1305,4.0823,4.0807,4.0807,4.0807,4.0807,4.0807,4.0807,4.057,4.0468,4.0426,4.0214,4.0096,4.0096,4.0096,4.0096,4.0096,4.0096,4.0096,4.0096,4.0096,4.0096,4.0096,4.0096,4.0096,4.0096,4.0096,4.0096,4.0096,4.0096,4.0096,4.0096,4.0096,4.0096,4.0171,4.0538,4.0385,4.0196,4.0538,4.049,4.0311,4.0146,4.0096,4.0096,4.0096,4.0229,4.0343,4.0343,4.0497,4.0642,4.0642,4.0642,4.0642,4.0642,4.0642,4.0767,4.1133,4.1686,4.2241,4.2655,4.3178,4.3515,4.3515,4.3515,4.3515,4.3515,4.3515,4.3515,4.3515,4.3515,4.3515,4.3515,4.3515,4.3515,4.3515,4.3515,4.3515,4.3515,4.3515,4.3515,4.3515,4.3515,4.3515,4.3515,4.3515,4.3515,4.3533,4.3754,4.4195,4.4746,4.526,4.6122,4.7131,4.7369,4.7828,4.8306,4.013,4.013,4.013,4.013,4.013,4.013,4.013,4.013,4.0383,4.1119,4.1221,4.1491,4.2219,4.2286,4.2286,4.2286,4.2286,4.2286,4.2303,4.2303,4.2303,4.2303,4.2303,4.2286,4.2286,4.2286,4.2286,4.2286,4.1576,4.1221,4.1187,4.0468,4.0113,4.0113,4.0096,4.0096,4.0096,4.0096,4.0096,4.0096,4.0096,4.0096,4.0096,4.0096,4.0096,4.0096,4.0096,4.0096,4.0096,4.0121,4.0121,4.0121,4.0121,4.0121,4.0336,4.1464,4.1007,4.036,4.1508,4.1358,4.078,4.0254,4.0121,4.0121,4.0121,4.0521,4.0903,4.0903,4.138,4.181,4.181,4.181,4.181,4.181,4.181,4.181,4.181,4.2322,4.2711,4.2711,4.3178,4.3515,4.3515,4.3515,4.3515,4.3515,4.3515,4.3515,4.3515,4.3515,4.3515,4.3515,4.3515,4.3515,4.3515,4.3515,4.3515,4.3515,4.3515,4.3515,4.3515,4.3515,4.3515,4.3515,4.3515,4.3515,4.357,4.4378,4.4727,4.4874,4.647,4.7094,4.7204,4.8012,4.8306,4.8306,4.1653,4.1653,4.1653,4.1653,4.1653,4.1653,4.1653,4.1653,4.1711,4.1931,4.1965,4.2049,4.2269,4.2286,4.2286,4.2286,4.2286,4.2523,4.3047,4.3589,4.3921,4.3921,4.2861,4.2286,4.2286,4.2286,4.2286,4.2286,4.2066,4.1965,4.1948,4.1221,4.0865,4.0849,4.0333,4.0096,4.0096,4.0096,4.0096,4.0096,4.0096,4.0096,4.0146,4.0521,4.0441,4.0204,4.1007,4.1013,4.0726,4.115,4.1286,4.1286,4.1286,4.1286,4.1353,4.1703,4.1573,4.1375,4.1703,4.1664,4.149,4.1331,4.1286,4.1286,4.1286,4.142,4.1534,4.1534,4.1664,4.181,4.181,4.181,4.181,4.181,4.181,4.1958,4.2362,4.2596,4.2845,4.3214,4.341,4.3515,4.3515,4.3515,4.3515,4.3515,4.3515,4.3515,4.3515,4.3515,4.3515,4.3515,4.3515,4.3515,4.3515,4.3515,4.3515,4.3515,4.3515,4.3515,4.3515,4.3515,4.3515,4.3515,4.3515,4.3809,4.436,4.4617,4.537,4.6434,4.6911,4.7443,4.7957,4.8214,4.8306,4.8306,4.2286,4.2286,4.2286,4.2286,4.2286,4.2286,4.2286,4.2286,4.2388,4.2692,4.2743,4.2861,4.3166,4.3227,4.3227,4.3227,4.3227,4.3386,4.3859,4.4344,4.4615,4.4615,4.3718,4.3227,4.3227,4.3227,4.3227,4.3227,4.2878,4.2743,4.2726,4.1982,4.1474,4.1187,4.073,4.0383,4.0096,4.0096,4.0229,4.0417,4.0417,4.057,4.0814,4.1133,4.1059,4.0844,4.1534,4.1556,4.1313,4.1664,4.181,4.1853,4.208,4.1979,4.1895,4.2346,4.2165,4.1895,4.2346,4.2324,4.2203,4.2424,4.2126,4.181,4.181,4.1979,4.2162,4.2162,4.2324,4.2483,4.2483,4.2483,4.2483,4.2483,4.2483,4.26,4.2976,4.3014,4.3142,4.3462,4.3515,4.3515,4.3515,4.3515,4.3515,4.3515,4.3515,4.3515,4.3515,4.3515,4.3515,4.3515,4.3515,4.3515,4.3515,4.3515,4.3515,4.3515,4.3515,4.3515,4.3515,4.3515,4.3663,4.3975,4.3975,4.4433,4.5204,4.5517,4.6214,4.7131,4.7443,4.7865,4.8306,4.8306,4.8306,4.8306,4.2506,4.2506,4.2506,4.2506,4.2506,4.2506,4.2506,4.2506,4.2743,4.3436,4.3521,4.3792,4.453,4.4615,4.4615,4.4615,4.4615,4.4615,4.4615,4.4615,4.4615,4.4615,4.4615,4.4615,4.4615,4.4615,4.4615,4.4615,4.3876,4.3521,4.3504,4.2743,4.2033,4.139,4.1271,4.0866,4.0256,4.0188,4.0473,4.0972,4.0972,4.1313,4.181,4.1874,4.1853,4.1793,4.1916,4.1937,4.1895,4.1937,4.194,4.2041,4.2598,4.2402,4.2165,4.3196,4.2772,4.2185,4.3214,4.3142,4.2883,4.3375,4.2734,4.194,4.194,4.2382,4.2769,4.2769,4.316,4.3515,4.3515,4.3515,4.3515,4.3515,4.3515,4.3515,4.3515,4.3515,4.3515,4.3515,4.3515,4.3515,4.3515,4.3515,4.3515,4.3515,4.3515,4.3515,4.3515,4.3515,4.3515,4.3515,4.3515,4.3515,4.3515,4.3515,4.3515,4.3515,4.3515,4.3515,4.3515,4.357,4.4011,4.4691,4.4764,4.5259,4.6067,4.6801,4.7131,4.7278,4.8012,4.8306,4.8306,4.8306,4.8306,4.8306,4.4107,4.4107,4.4107,4.4107,4.4107,4.4107,4.4107,4.4107,4.4175,4.4316,4.4333,4.4429,4.4581,4.4615,4.4615,4.4615,4.4615,4.4615,4.4615,4.4615,4.4615,4.4615,4.4615,4.4615,4.4615,4.4615,4.4615,4.4615,4.4445,4.4333,4.4316,4.3538,4.3098,4.2868,4.1728,4.1367,4.164,4.0985,4.1064,4.1599,4.1599,4.1686,4.1853,4.2322,4.2203,4.1916,4.281,4.2847,4.2559,4.2995,4.3123,4.3142,4.3286,4.325,4.3178,4.3427,4.3321,4.3196,4.3427,4.341,4.3357,4.3462,4.3321,4.3123,4.3123,4.3232,4.3339,4.3339,4.3427,4.3515,4.3515,4.3515,4.3515,4.3515,4.3515,4.3515,4.3515,4.3515,4.3515,4.3515,4.3515,4.3515,4.3515,4.3515,4.3515,4.3515,4.3515,4.3515,4.3515,4.3515,4.3515,4.3515,4.3515,4.3515,4.3515,4.3515,4.3515,4.3515,4.3515,4.3515,4.3533,4.4158,4.4544,4.4745,4.5369,4.6104,4.6856,4.7021,4.7461,4.8067,4.8233,4.8306,4.8306,4.8306,4.8306,4.8306,4.4615,4.4615,4.4615,4.4615,4.4615,4.4615,4.4615,4.4615,4.4615,4.4615,4.4615,4.4615,4.4615,4.4615,4.4615,4.4615,4.4615,4.4615,4.4615,4.4615,4.4615,4.4615,4.4615,4.4615,4.4615,4.4615,4.4615,4.4615,4.4615,4.4615,4.4598,4.4164,4.3775,4.3386,4.2927,4.2488,4.2074,4.1957,4.2021,4.2223,4.2223,4.2384,4.2657,4.2958,4.2902,4.2678,4.3286,4.3322,4.3105,4.341,4.3515,4.3515,4.3515,4.3515,4.3515,4.3515,4.3515,4.3515,4.3515,4.3515,4.3515,4.3515,4.3515,4.3515,4.3515,4.3515,4.3515,4.3515,4.3515,4.3515,4.3515,4.3515,4.3515,4.3515,4.3515,4.3515,4.3515,4.3515,4.3515,4.3515,4.3515,4.3515,4.3515,4.3515,4.3515,4.3515,4.3515,4.3515,4.3515,4.3515,4.3515,4.3515,4.3515,4.3681,4.4066,4.4066,4.4268,4.4635,4.425,4.4066,4.4103,4.4911,4.548,4.5865,4.6287,4.6948,4.7663,4.7663,4.7921,4.8306,4.8306,4.8306,4.8306,4.8306,4.8306,4.8306,4.4615,4.4615,4.4615,4.4615,4.4615,4.4615,4.4615,4.4615,4.4615,4.4615,4.4615,4.4615,4.4615,4.4615,4.4615,4.4615,4.4615,4.4615,4.4615,4.4615,4.4615,4.4615,4.4615,4.4615,4.4615,4.4615,4.4615,4.4615,4.4615,4.4615,4.4615,4.4615,4.4315,4.3763,4.4208,4.3805,4.2836,4.3187,4.3238,4.3044,4.3044,4.3214,4.3515,4.3515,4.3515,4.3515,4.3515,4.3515,4.3515,4.3515,4.3515,4.3515,4.3515,4.3515,4.3515,4.3515,4.3515,4.3515,4.3515,4.3515,4.3515,4.3515,4.3515,4.3551,4.3663,4.3606,4.3515,4.3515,4.3515,4.3515,4.3515,4.3515,4.3515,4.3515,4.3515,4.3515,4.3515,4.3515,4.3515,4.3515,4.3515,4.3515,4.3515,4.3515,4.357,4.3681,4.3699,4.3754,4.39,4.3919,4.3919,4.3919,4.3919,4.4232,4.4893,4.4911,4.5241,4.5883,4.5369,4.5057,4.4947,4.5736,4.6471,4.7113,4.7241,4.7681,4.8306,4.8306,4.8306,4.8306,4.8306,4.8306,4.8306,4.8306,4.8306,4.8306,4.4615,4.4615,4.4615,4.4615,4.4615,4.4615,4.4615,4.4615,4.4615,4.4615,4.4615,4.4615,4.4615,4.4615,4.4615,4.4615,4.4615,4.4615,4.4615,4.4615,4.4615,4.4615,4.4615,4.4615,4.4615,4.4615,4.4615,4.4615,4.4615,4.4615,4.4615,4.4615,4.4828,4.5191,4.462,4.4847,4.562,4.5045,4.4681,4.4418,4.4418,4.4069,4.3515,4.3515,4.3515,4.3515,4.3515,4.3515,4.3515,4.3515,4.3515,4.3515,4.3515,4.3515,4.3515,4.3515,4.3515,4.3515,4.3515,4.3515,4.3515,4.3515,4.3515,4.3681,4.4378,4.3993,4.3515,4.3515,4.3515,4.3515,4.3515,4.3515,4.3515,4.3515,4.3515,4.3515,4.3515,4.3515,4.3515,4.3515,4.3515,4.3515,4.3515,4.3515,4.3791,4.4488,4.4544,4.4837,4.5535,4.5571,4.5571,4.5571,4.5571,4.5626,4.5736,4.5736,4.5792,4.5902,4.6489,4.6397,4.5755,4.6562,4.7003,4.7131,4.7828,4.8214,4.8306,4.8306,4.8306,4.8306,4.8306,4.8306,4.8306,4.8306,4.8306,4.8306,4.4615,4.4615,4.4615,4.4615,4.4615,4.4615,4.4615,4.4615,4.4615,4.4615,4.4615,4.4615,4.4615,4.4615,4.4615,4.4615,4.4615,4.4615,4.4615,4.4615,4.4615,4.4615,4.4934,4.5115,4.5115,4.5433,4.5597,4.5597,4.4934,4.4759,4.5115,4.5115,4.5407,4.5996,4.6053,4.6114,4.6194,4.6194,4.59,4.5333,4.4892,4.4488,4.4121,4.3663,4.3515,4.3515,4.3515,4.3515,4.3515,4.3515,4.3515,4.3515,4.3515,4.3515,4.3589,4.403,4.4176,4.4268,4.4709,4.4837,4.4837,4.4837,4.4837,4.4929,4.5296,4.5094,4.4837,4.4837,4.4837,4.4837,4.4837,4.4837,4.4837,4.4837,4.4837,4.4837,4.4837,4.4837,4.4837,4.4837,4.4837,4.4837,4.4837,4.4837,4.4984,4.5351,4.5369,4.5535,4.5883,4.5902,4.5902,4.5902,4.5902,4.6122,4.6562,4.6562,4.6801,4.7241,4.7609,4.7351,4.6599,4.7388,4.7755,4.7791,4.8159,4.8306,4.8306,4.8306,4.8306,4.8306,4.8306,4.8306,4.8306,4.8306,4.8306,4.8306]}]]